     2.10           OBSERVATION DATA    G (GPS)             RINEX VERSION / TYPE
teqc 2005May6 SOPAC 20050707 00:27:51UTC                    PGM / RUN BY / DATE
Linux 2.4.20-8|Pentium IV|gcc|Linux|486/DX+                 COMMENT
BIT 2 OF LLI FLAGS DATA COLLECTED UNDER A/S CONDITION       COMMENT
CM 24 58                                                    MARKER NAME
2458                                                        MARKER NUMBER
Dave Goodman                                                OBSERVER / AGENCY
0220309504 TRIMBLE 5700 2.01                                REC # / TYPE / VERS
12422974 TRM41249.00 NONE                                   ANT # / TYPE
 -2538157.0000 -4043132.0000  4217929.0000                  APPROX POSITION XYZ
        2.0000        0.0000        0.0000                  ANTENNA: DELTA H/E/N
     1     1                                                WAVELENGTH FACT L1/2
     6    L1    L2    C1    P2    P1    D1                  # / TYPES OF OBSERV
    15.0000                                                 INTERVAL
Northern California Height Modernization 2004               COMMENT
                                                            COMMENT
SOPAC - Scripps Orbit and Permanent Array Center            COMMENT
IGPP - Institute of Geophysics and Planetary Physics        COMMENT
SIO - Scripps Institution of Oceanography                   COMMENT
UCSD - University of California, San Diego                  COMMENT
                                                            COMMENT
email: archive@gpsmail.ucsd.edu                             COMMENT
ftp://garner.ucsd.edu                                       COMMENT
http://sopac.ucsd.edu                                       COMMENT
                                                            COMMENT
                                                            COMMENT
Approximate Lat, Lon : 41.653, -122.119                     COMMENT
                                                            COMMENT
SNR is mapped to RINEX snr flag value [0-9]                 COMMENT
L1 & L2: 2-19 dBHz = 1, 20-27 dBHz = 2, 28-31 dBHz = 3      COMMENT
32-35 dBHz = 4, 36-38 dBHz = 5, 39-41 dBHz = 6              COMMENT
42-44 dBHz = 7, 45-48 dBHz = 8, >= 49 dBHz = 9              COMMENT
  2004     9     8    20    58   30.0000000     GPS         TIME OF FIRST OBS
                                                            END OF HEADER
 04  9  8 20 58 30.0000000  0  6G 3G 8G13G16G23G27
    -42580.34057    -34392.20352  23269509.6724   23269509.5354

   -126201.02758    -91016.24253  23169438.7584   23169437.3554
     30353.87559
     16822.69957                  20276565.2504   20276562.2974

    243150.00457    168412.12152  23827152.9614   23827151.5164

    188708.26659    125933.53155  21414072.5474   21414068.8284
    -46210.09059
    -36308.23056                  21636280.0474   21636278.2624

 04  9  8 20 58 45.0000000  0  6G 3G 8G13G16G23G27
    -52751.10948    -42317.46543  23267574.6954   23267573.5864
       678.0514
   -155841.27748   -114112.52043  23163797.5004   23163796.8674
      1976.0174
     37422.45349     22330.66847  20277910.5864   20277907.3914
      -471.2394
    301762.98846    214084.54342  23838306.5554   23838304.6524
     -3907.5324
    232816.25849    160303.37945  21422466.0234   21422462.0394
     -2940.5334
    -57199.00849    -44871.01645  21634189.1804   21634186.9734
       732.5954
 04  9  8 20 59  0.0000000  0  6G 3G 8G13G16G23G27
    -62813.95748    -50158.62543  23265659.5084   23265659.0084
       670.8574
   -185450.98448   -137185.00443  23158163.5314   23158162.0234
      1973.9804
     44589.97749     27915.74647  20279274.2034   20279271.8204
      -477.8354
    360425.31647    259795.40642  23849469.8364   23849467.6954
     -3910.8224
    277005.81348    194736.77045  21430875.2894   21430870.6054
     -2945.9704
    -68149.91049    -53404.18445  21632105.2344   21632103.2464
       730.0604
 04  9  8 20 59 15.0000000  0  6G 3G 8G13G16G23G27
    -72754.19148    -57904.26243  23263768.4534   23263767.6954
       662.6824
   -215015.52747   -160222.30143  23152537.2114   23152536.2544
      1970.9704
     51871.12949     33589.36747  20280659.5394   20280657.2304
      -485.4104
    419151.06347    305555.68442  23860645.2114   23860642.9774
     -3915.0504
    321291.32449    229244.94545  21439302.4614   21439297.5664
     -2952.3674
    -79048.41849    -61896.53145  21630031.0164   21630029.1994
       726.5674
 04  9  8 20 59 30.0000000  0  6G 3G 8G13G16G23G27
    -82566.89547    -65550.51242  23261900.7274   23261900.4224
       654.1804
   -244530.49248   -183220.94543  23146921.2734   23146920.0594
      1967.6644
     59270.49649     39355.10247  20282068.2424   20282065.1484
      -493.2914
    477944.45346    351368.69142  23871832.7664   23871831.2034
     -3919.5594
    365677.26649    263831.37945  21447748.7894   21447744.3524
     -2959.0634
    -89889.91049    -70344.43745  21627968.0704   21627966.0984
       722.7664
 04  9  8 20 59 45.0000000  0  6G 3G 8G13G16G23G27
    -92245.49246    -73092.28543  23260058.3524   23260058.8594
       645.2404
   -273989.48047   -206175.99643  23141314.9844   23141314.0474
      1963.9334
     66794.36749     45217.85547  20283499.8284   20283496.9224
      -501.5914
    536811.43446    397239.01642  23883034.6724   23883032.9104
     -3924.4654
    410169.71149    298500.79345  21456215.5864   21456211.4024
     -2966.1634
   -100668.21549    -78743.12146  21625917.2274   21625915.3284
       718.5544
 04  9  8 21  0  0.0000000  0  6G 3G 8G13G16G23G27
   -101789.26647    -80528.96942  23258242.2504   23258242.6294
       636.2524
   -303391.90647   -229086.95343  23135719.8984   23135719.3714
      1960.1624
     74443.51249     51178.21547  20284955.4534   20284952.5904
      -509.9434
    595752.26247    443166.89842  23894250.8364   23894248.9924
     -3929.3894
    454769.10249    333253.54346  21464702.3834   21464698.5864
     -2973.2934
   -111382.79749    -87092.14146  21623878.1724   21623876.0944
       714.3054
 04  9  8 21  0 15.0000000  0  6G 3G 8G13G16G23G27
   -111196.59847    -87859.34442  23256452.3754   23256452.2814
       627.1554
   -332736.37147   -251952.75443  23130135.9774   23130135.2504
      1956.2984
     82219.41449     57237.35547  20286434.7814   20286432.0784
      -518.3934
    654768.00447    489153.16042  23905481.5554   23905479.5394
     -3934.3834
    499476.83249    368090.71545  21473210.6094   21473205.7034
     -2980.5154
   -122032.27349    -95390.43746  21621851.4844   21621849.3874
       709.9654
 04  9  8 21  0 30.0000000  0  6G 3G 8G13G16G23G27
   -120468.01647    -95083.81243  23254687.7114   23254687.8094
       618.0954
   -362023.60547   -274773.95343  23124562.5394   23124562.0394
      1952.4824
     90121.41849     63394.75847  20287938.4924   20287936.1484
      -526.8004
    713857.38746    535196.78542  23916726.0004   23916723.7344
     -3939.2924
    544292.00849    403011.60946  21481738.3364   21481734.0164
     -2987.6784
   -132617.56249   -103638.71146  21619837.4774   21619835.2234
       705.6864
 04  9  8 21  0 45.0000000  0  6G 3G 8G13G16G23G27
   -129604.06648   -102202.80143  23252949.4534   23252950.0004
       609.0704
   -391254.48447   -297551.23843  23119000.2974   23118999.2934
      1948.7254
     98148.60549     69649.70747  20289466.0234   20289463.2814
      -535.1464
    773019.22347    581296.89542  23927984.0554   23927981.4454
     -3944.1224
    589213.47749    438015.33646  21490286.3914   21490282.5904
     -2994.7654
   -143139.54349   -111837.64846  21617835.2274   21617833.0084
       701.4654
 04  9  8 21  1  0.0000000  0  6G 3G 8G13G16G23G27
   -138604.09847   -109215.79743  23251236.7974   23251236.6134
       600.0024
   -420428.48847   -320284.19943  23113448.5634   23113447.8954
      1944.9344
    106301.72349     76002.77346  20291017.8674   20291014.6684
      -543.5414
    832253.76647    627453.63742  23939256.1024   23939253.4184
     -3948.9704
    634241.67249    473102.19945  21498855.2114   21498851.4104
     -3001.8804
   -153597.69549   -119986.85946  21615844.9304   21615843.0314
       697.2104
 04  9  8 21  1 15.0000000  0  6G 3G 8G13G16G23G27
   -147465.41447   -116120.71942  23249551.2274   23249550.5274
       590.7544
   -449543.01247   -342970.82443  23107907.8364   23107907.4304
      1940.9684
    114583.16849     82455.84047  20292593.4144   20292590.3834
      -552.0964
    891563.00047    673668.59842  23950541.4924   23950539.7974
     -3953.9494
    679378.88349    508274.03146  21507444.9614   21507440.3284
     -3009.1474
   -163989.65649   -128084.48846  21613867.2894   21613865.4774
       692.7974
 04  9  8 21  1 30.0000000  0  6G 3G 8G13G16G23G27
   -156193.43047   -122921.76242  23247889.7974   23247889.3094
       581.8684
   -478603.96947   -365615.69943  23102377.6334   23102377.3754
      1937.3974
    122987.51249     89004.68047  20294192.6334   20294189.8484
      -560.2904
    950941.03147    719937.15242  23961840.9924   23961838.9304
     -3958.5354
    724619.41049    543526.37145  21516053.4384   21516049.3874
     -3016.0354
   -174321.13349   -136134.98446  21611901.1094   21611899.5434
       688.7654
 04  9  8 21  1 45.0000000  0  6G 3G 8G13G16G23G27
   -164786.09848   -129617.31242  23246254.7894   23246254.0594
       572.8454
   -507609.31247   -388217.23043  23096858.5784   23096857.2194
      1933.6904
    131517.09049     95651.09847  20295815.8204   20295813.1254
      -568.6394
   1010389.35246    766260.49242  23973154.0634   23973152.1994
     -3963.2214
    769965.02749    578860.59845  21524682.8204   21524678.0124
     -3023.0414
   -184590.27749   -144136.91846  21609947.1484   21609945.3324
       684.6104
 04  9  8 21  2  0.0000000  0  6G 3G 8G13G16G23G27
   -173241.80148   -136206.16843  23244645.6174   23244644.8244
       563.7144
   -536557.85547   -410774.52343  23091349.8284   23091349.3244
      1929.9034
    140172.83249    102395.82847  20297462.9304   20297460.1844
      -577.0494
   1069908.98046    812639.39142  23984480.3054   23984478.0824
     -3967.9754
    815416.79349    614277.53545  21533331.8754   21533327.3054
     -3030.1184
   -194795.78949   -152089.25446  21608005.0314   21608003.2624
       680.3674
 04  9  8 21  2 15.0000000  0  6G 3G 8G13G16G23G27
   -181563.35548   -142690.46542  23243062.5864   23243061.1954
       554.7704
   -565452.54747   -433289.84843  23085850.9384   23085850.9184
      1926.3134
    148951.79749    109236.57847  20299133.7034   20299130.7704
      -585.2644
   1129496.40246    859071.11742  23995819.3984   23995817.3634
     -3972.4954
    860971.66449    649774.81345  21542000.7814   21541996.6454
     -3036.9914
   -204940.81649   -159994.47346  21606074.6724   21606072.7704
       676.3354
 04  9  8 21  2 30.0000000  0  6G 3G 8G13G16G23G27
   -189750.70348   -149070.22343  23241504.1414   23241503.4884
       545.8234
   -594293.41447   -455763.22743  23080362.9844   23080361.6804
      1922.7244
    157853.97349    116173.32847  20300827.6954   20300825.1174
      -593.4784
   1189151.23446    905555.35542  24007170.8834   24007169.2544
     -3976.9894
    906629.40649    685352.24645  21550689.0554   21550685.2584
     -3043.8494
   -215025.43749   -167852.60946  21604155.4844   21604153.9694
       672.3084
 04  9  8 21  2 45.0000000  0  6G 3G 8G13G16G23G27
   -197804.49647   -155345.88743  23239971.5234   23239970.8634
       536.9204
   -623081.23447   -478195.26243  23074884.6484   23074884.1764
      1919.1884
    166878.66849    123205.55547  20302545.1334   20302542.0274
      -601.6464
   1248872.16446    952091.11742  24018535.8594   24018534.2584
     -3981.3954
    952389.06649    721009.09845  21559396.9924   21559392.4064
     -3050.6444
   -225050.60549   -175664.41846  21602247.8834   21602245.6334
       668.3454
 04  9  8 21  3  0.0000000  0  6G 3G 8G13G16G23G27
   -205724.60547   -161517.39142  23238464.2584   23238463.8134
       528.0074
   -651816.31247   -500586.23043  23069416.6254   23069415.9224
      1915.6724
    176025.81649    130333.20346  20304285.7114   20304282.6134
      -609.8104
   1308658.79747    998678.05142  24029912.8134   24029911.2894
     -3985.7764
    998250.27749    756745.08645  21568124.4924   21568119.3404
     -3057.4144
   -235016.51249   -183430.05546  21600351.2584   21600349.5084
       664.3944
 04  9  8 21  3 15.0000000  0  6G 3G 8G13G16G23G27
   -213511.35247   -167584.96943  23236982.4844   23236981.9614
       519.1164
   -680498.98847   -522936.33643  23063958.6954   23063957.6724
      1912.1784
    185295.00849    137555.94547  20306049.6254   20306046.8634
      -617.9464
   1368510.15247   1045315.43442  24041301.9064   24041301.6524
     -3990.0904
   1044212.34849    792559.67645  21576870.1254   21576866.0124
     -3064.1384
   -244923.75849   -191149.98446  21598466.0944   21598463.8674
       660.4834
 04  9  8 21  3 30.0000000  0  6G 3G 8G13G16G23G27
   -221165.03947   -173548.88343  23235525.7734   23235525.6564
       510.2464
   -709129.83247   -545246.08643  23058510.4304   23058509.5084
      1908.7234
    194685.74249    144873.39547  20307836.5864   20307833.5274
      -626.0494
   1428425.37547   1092002.58642  24052703.9614   24052703.0434
     -3994.3484
   1090274.55549    828452.28945  21585635.2114   21585631.6054
     -3070.8144
   -254772.96549   -198824.68746  21596591.8134   21596589.6994
       656.6144
 04  9  8 21  3 45.0000000  0  6G 3G 8G13G16G23G27
   -228686.40647   -179409.66842  23234094.5474   23234094.4384
       501.4244
   -737709.86348   -567516.22343  23053071.7814   23053070.6684
      1905.3354
    204197.14849    152284.87547  20309646.3984   20309643.7384
      -634.0944
   1488403.10947   1138738.43442  24064117.6414   24064116.1054
     -3998.5164
   1136435.92249    864422.14845  21594419.4924   21594415.6524
     -3077.4244
   -264565.03949   -206454.86745  21594728.3834   21594726.3754
       652.8054
 04  9  8 21  4  0.0000000  0  6G 3G 8G13G16G23G27
   -236073.14548   -185165.55143  23232689.1724   23232688.4614
       492.4494
   -766236.87947   -589745.04743  23047643.3914   23047642.5434
      1901.8014
    213831.59049    159792.23447  20311480.1724   20311477.3594
      -642.2964
   1548445.17647   1185524.41842  24075543.1484   24075541.2544
     -4002.8044
   1182698.38749    900470.78945  21603223.3984   21603219.3244
     -3084.1644
   -274297.95749   -214038.95346  21592876.1884   21592874.1804
       648.8614
 04  9  8 21  4 15.0000000  0  6G 3G 8G13G16G23G27
   -243326.19147   -190817.25842  23231308.8594   23231307.8054
       483.5364
   -794712.27748   -611933.65243  23042224.5554   23042223.6294
      1898.3604
    223587.84849    167394.51247  20313336.5944   20313333.4774
      -650.4174
   1608550.04747   1232359.34842  24086980.8444   24086978.9694
     -4006.9914
   1229060.62549    936597.20345  21612045.8444   21612041.3754
     -3090.8164
   -283972.94949   -221577.91046  21591035.0164   21591033.4614
       644.9994
 04  9  8 21  4 30.0000000  0  6G 3G 8G13G16G23G27
   -250445.93048   -196365.07042  23229953.7274   23229953.6484
       474.6494
   -823136.41447   -634082.30543  23036815.6334   23036814.3984
      1894.9424
    233465.55949    175091.42247  20315216.0944   20315213.2504
      -658.5144
   1668716.80147   1279242.51242  24098430.2274   24098428.1994
     -4011.1174
   1275522.03549    972800.88345  21620886.7034   21620882.7154
     -3097.4274
   -293590.64149   -229072.21146  21589205.0394   21589203.4144
       641.1794
 04  9  8 21  4 45.0000000  0  6G 3G 8G13G16G23G27
   -257434.81247   -201810.95343  23228624.0234   23228623.7814
       465.9264
   -851512.14148   -656193.23443  23031416.0864   23031414.5474
      1891.7154
    243462.09849    182880.93047  20317118.0164   20317115.2894
      -666.4364
   1728942.51247   1326171.60942  24109890.4224   24109888.4884
     -4015.0474
   1322079.68049   1009079.53945  21629746.1884   21629742.0634
     -3103.8434
   -303153.72749   -236523.96146  21587385.3284   21587383.2734
       637.5394
 04  9  8 21  5  0.0000000  0  6G 3G 8G13G16G23G27
   -264289.69547   -207152.41042  23227319.5784   23227319.6094
       456.9924
   -879836.44148   -678264.10243  23026025.9384   23026024.7154
      1888.2874
    253580.36349    190765.28947  20319043.5864   20319040.8094
      -674.5514
   1789229.64147   1373148.55542  24121362.5944   24121360.7154
     -4019.1424
   1368736.48449   1045435.45345  21638625.1334   21638621.1414
     -3110.4544
   -312659.28949   -243930.88346  21585576.4614   21585574.8014
       633.7044
 04  9  8 21  5 15.0000000  0  6G 3G 8G13G16G23G27
   -271013.28547   -212391.54742  23226039.9384   23226040.0474
       448.2394
   -908111.95748   -700296.94943  23020645.2584   23020643.8754
      1885.0344
    263817.36349    198742.16447  20320991.6024   20320989.0864
      -682.4674
   1849574.84047   1420170.71942  24132845.6174   24132843.8984
     -4023.0134
   1415489.28949   1081866.18845  21647521.7974   21647517.4064
     -3116.8544
   -322110.43749   -251295.41046  21583777.8054   21583776.2504
       630.0774
 04  9  8 21  5 30.0000000  0  7G19G 3G 8G13G16G23G27
    -74240.02356    -56898.60552  24292932.1094   24292930.5984

   -277605.13747   -217528.03543  23224785.5704   23224785.4304
       439.4574
   -936338.38348   -722291.55143  23015274.2584   23015272.7774
      1881.7624
    274173.66849    206812.01647  20322962.5234   20322959.9064
      -690.4204
   1909978.11747   1467238.21542  24144340.9614   24144338.8484
     -4026.8854
   1462338.32049   1118371.91045  21656437.1414   21656432.4574
     -3123.2694
   -331506.76249   -258617.21946  21581989.8054   21581988.2074
       626.4224
 04  9  8 21  5 45.0000000  0  7G19G 3G 8G13G16G23G27
   -103777.46946    -79914.73442  24287311.7974   24287309.6414
      1969.1634
   -284066.81648   -222563.09443  23223555.7344   23223556.5944
       430.7794
   -964517.75047   -744249.48043  23009911.1174   23009910.9414
      1878.6244
    284647.58649    214973.50847  20324955.6024   20324953.0784
      -698.2614
   1970437.33646   1514349.25042  24155845.1954   24155843.1454
     -4030.6154
   1509281.46149   1154950.96145  21665369.9064   21665365.3984
     -3129.5434
   -340850.19949   -265897.82046  21580211.9694   21580210.3054
       622.8964
 04  9  8 21  6  0.0000000  0  7G19G 3G 8G13G16G23G27
   -133269.43747   -102895.44942  24281699.1334   24281696.9804
      1966.1314
   -290398.71547   -227497.03543  23222351.2734   23222350.3914
       422.1274
   -992650.59448   -766171.15243  23004558.3134   23004557.1804
      1875.5234
    295238.56349    223226.21147  20326971.3754   20326968.4774
      -706.0654
   2030951.53947   1561503.15642  24167361.1024   24167358.8754
     -4034.2804
   1556318.08649   1191602.84445  21674320.7504   21674316.7384
     -3135.7754
   -350141.42249   -273137.73046  21578443.8134   21578442.0514
       619.4154
 04  9  8 21  6 15.0000000  0  7G19G 3G 8G13G16G23G27
   -162714.71146   -125839.79342  24276095.8674   24276093.7274
      1963.0184
   -296599.51647   -232328.81643  23221170.7114   23221171.0744
       413.3874
  -1020736.05148   -788055.91443  22999213.6024   22999212.3324
      1872.3644
    305947.62149    231570.93047  20329009.1254   20329006.2894
      -713.9374
   2091521.34847   1608700.36342  24178886.6564   24178885.6334
     -4037.9874
   1603449.05549   1228328.24645  21683289.9304   21683285.4924
     -3142.0654
   -359379.50449   -280336.23446  21576686.3204   21576683.9964
       615.8724
 04  9  8 21  6 30.0000000  0  7G19G 3G 8G13G16G23G27
   -192115.37546   -148749.35942  24270500.6334   24270499.8404
      1960.0444
   -302671.63347   -237060.32043  23220016.0084   23220015.4104
       404.8084
  -1048776.89848   -809905.89844  22993877.2814   22993877.1524
      1869.3904
    316772.29349    240005.73047  20331068.8984   20331065.9494
      -721.6454
   2152143.89847   1655938.67242  24190422.2974   24190421.3014
     -4041.5034
   1650671.66849   1265125.06645  21692275.9844   21692271.5864
     -3148.1744
   -368566.88349   -287495.21546  21574937.5944   21574935.5084
       612.4924
 04  9  8 21  6 45.0000000  0  7G19G 3G 8G13G16G23G27
   -221468.85946   -171622.18442  24264915.0314   24264914.0474
      1956.8994
   -308612.60247   -241689.61743  23218884.6644   23218885.1294
       396.0654
  -1076770.43448   -831719.02744  22988550.4224   22988549.5164
      1866.2364
    327715.06349    248532.55546  20333151.2424   20333148.3054
      -729.5184
   2212821.15646   1703219.60942  24201969.4304   24201968.9024
     -4045.1514
   1697988.14549   1301995.03145  21701279.5474   21701275.4494
     -3154.4324
   -377701.37549   -294613.00446  21573199.3594   21573197.2154
       608.9664
 04  9  8 21  7  0.0000000  0  7G19G 3G 8G13G16G23G27
   -250775.49247   -194458.46142  24259337.7274   24259337.7344
      1953.7764
   -314422.88747   -246217.12143  23217779.5164   23217779.5984
       387.3524
  -1104717.14847   -853495.68044  22983232.6644   22983231.8164
      1863.1144
    338775.15649    257150.80547  20335255.8984   20335253.5274
      -737.3404
   2273551.98847   1750542.30142  24213526.0084   24213525.6564
     -4048.7224
   1745397.56649   1338937.39845  21710301.8914   21710297.5944
     -3160.6284
   -386783.70749   -301690.14546  21571471.1334   21571469.0044
       605.4894
 04  9  8 21  7 15.0000000  0  7G19G 3G 8G13G16G23G27
   -280033.92647   -217257.18442  24253770.6334   24253769.7034
      1950.5624
   -320101.26647   -250641.80543  23216698.7664   23216698.7894
       378.5594
  -1132616.31648   -875235.26244  22977923.9304   22977922.5204
      1859.9454
    349953.75849    265861.39847  20337382.8134   20337380.5124
      -745.2404
   2334337.02046   1797907.20742  24225094.0944   24225092.9654
     -4052.3354
   1792900.84849   1375952.92645  21719341.1644   21719337.2114
     -3166.8854
   -395813.06649   -308726.00446  21569752.9534   21569751.2114
       601.9574
 04  9  8 21  7 30.0000000  0  7G19G 3G 8G13G16G23G27
   -309245.23047   -240019.18442  24248212.0704   24248210.6954
      1947.4204
   -325649.04348   -254964.73443  23215642.7114   23215642.5984
       369.8524
  -1160469.28547   -896938.85944  22972623.6334   22972621.9414
      1856.8654
    361249.63749    274663.37946  20339532.6884   20339530.1724
      -753.0594
   2395174.62147   1845313.09442  24236670.8134   24236669.3094
     -4055.8404
   1840496.39849   1413040.33645  21728398.6414   21728394.6254
     -3173.0374
   -404790.89549   -315721.71146  21568044.5004   21568042.6564
       598.5224
 04  9  8 21  7 45.0000000  0  7G19G 3G 8G13G16G23G27
   -338408.59047   -262743.81643  24242662.6414   24242661.8954
      1944.2244
   -331065.53947   -259185.35242  23214612.0234   23214611.4064
       361.1004
  -1188275.41048   -918605.94944  22967331.7034   22967330.6724
      1853.7424
    372663.21149    283557.07047  20341704.3984   20341701.7774
      -760.9054
   2456064.89847   1892760.03142  24248257.5394   24248256.7274
     -4059.3524
   1888184.62549   1450199.96545  21737473.2194   21737469.1374
     -3179.2154
   -413716.63749   -322676.82846  21566345.8594   21566344.3054
       595.0494
 04  9  8 21  8  0.0000000  0  7G19G 3G 8G13G16G23G27
   -367523.60947   -285430.78543  24237121.8444   24237121.1374
      1941.0014
   -336350.45347   -263303.44142  23213606.5004   23213605.8134
       352.3284
  -1216034.77347   -940236.60543  22962049.5784   22962047.9264
      1850.6244
    384194.70349    292542.64847  20343898.9064   20343896.3444
      -768.7664
   2517007.64547   1940247.84042  24259854.9384   24259853.4574
     -4062.8504
   1935965.40249   1487431.71145  21746565.2814   21746561.1374
     -3185.3854
   -422590.18449   -329591.28546  21564657.2194   21564655.2854
       591.5704
 04  9  8 21  8 15.0000000  0  7G19G 3G 8G13G16G23G27
   -396589.38747   -308079.41043  24231591.1884   24231590.4304
      1937.7184
   -341502.95348   -267318.35943  23212626.8364   23212624.9454
       343.5004
  -1243746.86748   -961830.42643  22956775.8204   22956775.0704
      1847.4734
    395844.72749    301620.58647  20346115.8054   20346113.0554
      -776.6684
   2578002.92247   1987776.59442  24271461.5784   24271459.9574
     -4066.3524
   1983839.20749   1524735.96145  21755675.5864   21755671.1604
     -3191.5874
   -431411.12949   -336464.74246  21562979.0004   21562976.5864
       588.0634
 04  9  8 21  8 30.0000000  0  7G19G 3G 8G13G16G23G27
   -425606.29348   -330689.92643  24226069.4694   24226068.3054
      1934.4604
   -346523.49247   -271230.46942  23211670.4534   23211669.7384
       334.7034
  -1271412.39148   -983387.96543  22951511.4384   22951510.3324
      1844.3684
    407612.71149    310790.44547  20348354.8594   20348352.3364
      -784.5324
   2639049.84446   2035345.57442  24283077.8054   24283077.3834
     -4069.7954
   2031805.15649   1562112.00445  21764803.0004   21764798.8984
     -3197.7304
   -440180.14149   -343297.73446  21561310.2584   21561308.3404
       584.6014
 04  9  8 21  8 45.0000000  0  7G19G 3G 8G13G16G23G27
   -454574.41047   -353262.47742  24220556.8984   24220555.4494
      1931.2084
   -351412.41847   -275040.01242  23210740.6174   23210739.6644
       325.9284
  -1299031.69948  -1004909.48843  22946255.3674   22946254.2664
      1841.2874
    419498.16049    320051.82047  20350616.7274   20350613.9304
      -792.3634
   2700147.43446   2082954.04742  24294705.5704   24294703.8484
     -4073.1734
   2079862.62149   1599559.34445  21773948.0164   21773944.1054
     -3203.8314
   -448897.89849   -350090.78946  21559651.2344   21559648.9264
       581.1844
 04  9  8 21  9  0.0010000  0  7G19G 3G 8G13G16G23G27
   -483495.93747   -375798.66842  24215053.4274   24215051.3064
      1928.1024
   -356170.42247   -278747.54743  23209834.8564   23209834.5014
       317.2004
  -1326607.02048  -1026396.73444  22941007.5054   22941007.1494
      1838.3554
    431501.39149    329404.98047  20352901.1854   20352898.4504
      -800.2154
   2761298.83647   2130604.45342  24306341.5364   24306340.3134
     -4076.7604
   2128014.00448   1637079.88745  21783111.6694   21783107.1694
     -3210.0924
   -457565.43749   -356844.71146  21558002.0364   21557999.7634
       577.8364
 04  9  8 21  9 15.0010000  0  7G19G 3G 8G13G16G23G27
   -512365.94947   -398294.73042  24209559.4504   24209557.7944
      1924.6674
   -360795.93047   -282351.81642  23208954.9744   23208954.2044
       308.3674
  -1354134.20348  -1047846.46543  22935769.8024   22935768.7864
      1835.1464
    443621.62949    338849.32047  20355207.6384   20355204.6814
      -808.0164
   2822496.41447   2178290.85242  24317987.3254   24317986.1384
     -4079.8394
   2176253.61749   1674669.16845  21792290.8564   21792286.8964
     -3215.9744
   -466181.00849   -363558.13746  21556362.1694   21556360.2904
       574.3714
 04  9  8 21  9 30.0010000  0  7G19G 3G 8G13G16G23G27
   -541185.68046   -420751.61342  24204075.0284   24204073.0714
      1921.3154
   -365288.74647   -285852.71142  23208099.8724   23208099.3214
       299.5214
  -1381614.69948  -1069259.82443  22930540.3174   22930539.3334
      1832.0334
    455860.21549    348385.87547  20357536.3334   20357533.5134
      -815.9064
   2883744.13747   2226016.30942  24329643.2634   24329641.3534
     -4083.1824
   2224584.85949   1712329.85945  21801487.6534   21801483.6064
     -3222.0834
   -474744.87949   -370231.28546  21554732.6854   21554730.6694
       570.9254
 04  9  8 21  9 45.0010000  0  7G19G 3G 8G13G16G23G27
   -569955.44146   -443169.57842  24198600.2394   24198598.1614
      1917.9844
   -369649.43447   -289250.63342  23207270.2394   23207269.5134
       290.7134
  -1409049.00448  -1090637.18443  22925319.7004   22925318.4274
      1828.9544
    468216.44149    358014.10247  20359887.7714   20359884.8644
      -823.7484
   2945041.05946   2273780.10242  24341306.6304   24341305.4504
     -4086.4614
   2273006.84448   1750061.25445  21810702.0214   21810698.2944
     -3228.1324
   -483257.69549   -376864.63746  21553112.3564   21553110.6924
       567.5214
 04  9  8 21 10  0.0010000  0  7G19G 3G 8G13G16G23G27
   -598676.77747   -465549.77742  24193134.8964   24193132.2354
      1914.7564
   -373879.54748   -292546.82443  23206464.5604   23206465.1304
       282.0084
  -1436439.07048  -1111980.06643  22920107.1384   22920106.2824
      1826.0044
    480688.40649    367732.51246  20362260.9424   20362257.9934
      -831.4644
   3006384.92646   2321580.47742  24352980.3024   24352979.4934
     -4089.5914
   2321517.54749   1787861.77045  21819933.9664   21819930.1964
     -3234.0474
   -491721.41449   -383459.74646  21551502.2864   21551500.0524
       564.2484
 04  9  8 21 10 15.0010000  0  7G19G 3G 8G13G16G23G27
   -627348.41447   -487891.30142  24187678.3494   24187675.7904
      1911.4424
   -377977.94147   -295740.35542  23205684.6534   23205685.0794
       273.2264
  -1463783.95348  -1133287.75443  22914903.8644   22914902.7744
      1822.9924
    493277.21549    377541.96547  20364656.8254   20364653.8414
      -839.2544
   3067776.36746   2369417.91442  24364662.4114   24364661.4584
     -4092.7634
   2370117.74649   1825732.03145  21829181.9664   21829178.4234
     -3240.0134
   -500135.20349   -390015.93746  21549900.8024   21549898.9034
       560.9194
 04  9  8 21 10 30.0010000  0  7G19G 3G 8G13G16G23G27
   -655970.11347   -510193.85242  24182232.2864   24182229.8294
      1908.1134
   -381944.59847   -298831.23842  23204930.1064   23204929.9584
       264.4444
  -1491083.54748  -1154560.14844  22909709.3644   22909707.7944
      1819.9734
    505982.82849    387442.44546  20367074.3254   20367071.3024
      -847.0414
   3129214.98046   2417292.12542  24376354.4584   24376352.4194
     -4095.9084
   2418807.28548   1863671.91045  21838447.4194   21838443.5214
     -3245.9694
   -508499.17649   -396533.32046  21548309.2634   21548307.4034
       557.5984
 04  9  8 21 10 45.0010000  0  7G19G 3G 8G13G16G23G27
   -684542.05147   -532457.66442  24176795.6144   24176792.8454
      1904.7964
   -385779.87948   -301819.76243  23204200.1464   23204199.9154
       255.6854
  -1518338.65248  -1175797.85943  22904522.7244   22904521.7044
      1817.0074
    518804.76249    397433.55946  20369514.3104   20369511.6104
      -854.7964
   3190699.80546   2465202.33642  24388054.5444   24388053.1884
     -4098.9884
   2467585.36348   1901680.78945  21847729.2004   21847725.4544
     -3251.8724
   -516813.74249   -403012.20346  21546727.2554   21546725.2204
       554.3044
 04  9  8 21 11  0.0010000  0  7G19G 3G 8G13G16G23G27
   -713063.14547   -554681.87542  24171367.1774   24171365.1264
      1901.4064
   -389482.89548   -304705.21543  23203495.6224   23203494.9814
       246.8684
  -1545548.43748  -1197000.28143  22899344.8724   22899343.6264
      1813.9864
    531743.79349    407515.91047  20371976.5524   20371973.7824
      -862.6024
   3252231.14546   2513148.80942  24399763.3334   24399762.5604
     -4102.0894
   2516452.57449   1939759.11745  21857028.6064   21857024.7284
     -3257.8144
   -525078.55149   -409452.30146  21545154.1774   21545152.4274
       550.9874
 04  9  8 21 11 15.0010000  0  7G19G 3G 8G13G16G23G27
   -741534.15247   -576867.03942  24165949.7554   24165946.8964
      1898.0674
   -393054.42247   -307488.21942  23202816.4354   23202815.6104
       238.1024
  -1572714.04748  -1218168.27043  22894175.4034   22894173.9894
      1811.0414
    544798.96549    417688.77047  20374461.2554   20374458.1694
      -870.3454
   3313807.68846   2561130.47342  24411480.8964   24411479.4314
     -4105.1034
   2565407.77049   1977906.00445  21866344.9274   21866340.5954
     -3263.6804
   -533294.40649   -415854.26646  21543591.1144   21543588.8604
       547.7244
 04  9  8 21 11 30.0010000  0  7G19G 3G 8G13G16G23G27
   -769953.04747   -599011.61743  24160542.2084   24160539.9384
      1894.5934
   -396492.77747   -310167.43742  23202161.7314   23202160.8494
       229.2244
  -1599833.75448  -1239300.48443  22889014.7244   22889013.0754
      1807.9804
    557972.05949    427953.51647  20376967.9354   20376964.9274
      -878.2064
   3375430.76246   2609148.41842  24423207.3174   24423206.1184
     -4108.2054
   2614452.48448   2016122.64845  21875677.2634   21875673.5444
     -3269.6484
   -541459.88749   -422216.97346  21542037.2314   21542035.3134
       544.3654
 04  9  8 21 11 45.0010000  0  7G19G 3G 8G13G16G23G27
   -798318.75847   -621114.70743  24155144.1534   24155142.4784
      1891.0474
   -399796.96548   -312742.12142  23201532.8564   23201532.3994
       220.2794
  -1626906.70348  -1260396.26643  22883862.5754   22883861.4354
      1804.8634
    571263.77049    438310.69147  20379497.1224   20379494.4034
      -886.1144
   3437100.77346   2657202.93442  24434943.1144   24434941.1424
     -4111.3344
   2663587.21549   2054409.43045  21885027.3334   21885023.4234
     -3275.6494
   -549574.14549   -428539.77346  21540493.0364   21540491.1884
       540.9514
 04  9  8 21 12  0.0010000  0  7G19G 3G 8G13G16G23G27
   -826633.72347   -643178.25043  24149756.0284   24149754.2824
      1887.6644
   -402969.61348   -315214.27743  23200929.0364   23200928.6304
       211.5104
  -1653935.82448  -1281457.89544  22878719.4894   22878717.7944
      1801.9414
    584671.51249    448758.27747  20382048.3884   20382046.3844
      -893.8494
   3498814.57446   2705291.54742  24446686.3564   24446684.9934
     -4114.2534
   2712809.11349   2092764.13745  21894393.9504   21894390.2204
     -3281.4604
   -557640.08249   -434824.91046  21538958.1924   21538956.3174
       537.7294
 04  9  8 21 12 15.0010000  0  7G19G 3G 8G13G16G23G27
   -854895.87948   -665200.66843  24144377.8104   24144375.7634
      1884.1444
   -406008.74648   -317582.43042  23200351.0214   23200350.6924
       202.6094
  -1680919.35548  -1302483.99244  22873584.2474   22873583.6264
      1798.9024
    598197.07049    459297.66847  20384622.0834   20384619.5364
      -901.7044
   3560573.55946   2753415.41842  24458438.7164   24458436.8884
     -4117.2664
   2762119.62549   2131187.89145  21903777.3254   21903773.1814
     -3287.3674
   -565656.00849   -441071.08646  21537432.8724   21537430.6264
       534.3954
 04  9  8 21 12 30.0010000  0  6G19G 3G 8G13G23G27
   -883103.09847   -687180.28543  24139010.3334   24139008.0094
      1880.4814
   -408912.50848   -319845.09843  23199798.6384   23199798.1534
       193.5844
  -1707855.70748  -1323473.33643  22868458.8804   22868457.2824
      1795.7574
    611842.22349    469930.25447  20387218.7474   20387216.0604
      -909.6774
   2811520.45349   2169682.01645  21913178.5604   21913174.1964
     -3293.3894
   -573620.20349   -447276.94546  21535917.3414   21535915.2434
       530.9464
 04  9  8 21 12 45.0010000  0  6G19G 3G 8G13G23G27
   -911257.70347   -709118.90243  24133652.2474   24133650.3724
      1876.9744
   -411683.34048   -322004.18043  23199270.8024   23199270.5834
       184.7224
  -1734747.17648  -1344427.70743  22863341.2634   22863339.9314
      1792.7654
    625604.35249    480653.98047  20389837.4584   20389834.9584
      -917.4754
   2861008.71549   2208244.28545  21922595.5284   21922591.2244
     -3299.2174
   -581535.26249   -453444.52746  21534411.3494   21534408.5524
       527.6714
 04  9  8 21 13  0.0010000  0  6G19G 3G 8G13G23G27
   -939359.79747   -731016.59443  24128304.5524   24128302.9464
      1873.4734
   -414321.56248   -324059.90243  23198769.6614   23198768.2314
       175.8824
  -1761594.23048  -1365347.45344  22858232.0834   22858230.8534
      1789.8044
    639483.06349    491468.56347  20392478.6854   20392476.0634
      -925.2474
   2910583.86349   2246874.24245  21932029.2864   21932025.0874
     -3305.0104
   -589401.87949   -459574.34846  21532913.9194   21532911.7594
       524.4414
 04  9  8 21 13 15.0010000  0  6G19G 3G 8G13G23G27
   -967405.07047   -752870.00442  24122967.8174   24122966.0214
      1869.6854
   -416823.01248   -326009.08243  23198292.6534   23198292.1424
       166.7634
  -1788393.02348  -1386229.61344  22853133.1144   22853131.2944
      1786.5864
    653482.28549    502377.03947  20395142.6694   20395139.8724
      -933.2824
   2960249.74249   2285574.89545  21941480.7554   21941476.3374
     -3311.0594
   -597216.03949   -465663.30546  21531426.9504   21531424.8534
       520.9444
 04  9  8 21 13 30.0010000  0  6G19G 3G 8G13G23G27
   -995392.91447   -774678.65643  24117641.5674   24117639.4894
      1865.8564
   -419187.21147   -327851.29742  23197842.6534   23197841.8964
       157.6134
  -1815143.28148  -1407073.93744  22848042.2004   22848041.3764
      1783.3514
    667602.68049    513379.93447  20397830.0284   20397827.2244
      -941.3604
   3010006.46549   2324346.34845  21950949.0284   21950944.1774
     -3317.1154
   -604977.43749   -471711.14546  21529950.1384   21529948.5834
       517.4274
 04  9  8 21 13 45.0010000  0  6G19G 3G 8G13G23G27
  -1023325.79346   -796444.50042  24112326.1464   24112324.5874
      1862.1924
   -421416.66848   -329588.53943  23197418.8564   23197418.0754
       148.6304
  -1841847.59848  -1427882.46943  22842960.6464   22842959.3884
      1780.2884
    681841.28949    524474.94947  20400539.1924   20400536.6304
      -949.2414
   3059851.05149   2363186.27045  21960434.0914   21960429.2044
     -3322.9724
   -612688.97749   -477720.12546  21528482.6224   21528480.9424
       514.1034
 04  9  8 21 14  0.0010000  0  6G19G 3G 8G13G23G27
  -1051202.35946   -818166.44942  24107021.4424   24107019.1814
      1858.4384
   -423510.31248   -331219.94542  23197020.4504   23197020.2904
       139.5764
  -1868505.03948  -1448654.47743  22837887.9114   22837886.5994
      1777.1634
    696199.23049    535662.95347  20403271.3564   20403268.5634
      -957.1964
   3109784.43049   2402095.36745  21969936.2474   21969931.8214
     -3328.8924
   -620349.67649   -483689.49646  21527024.4974   21527022.9894
       510.7134
 04  9  8 21 14 15.0010000  0  6G19G 3G 8G13G23G27
  -1079023.17647   -839844.96142  24101727.5994   24101725.0604
      1854.7214
   -425468.86348   -332746.07843  23196647.5364   23196647.3024
       130.5704
  -1895116.53148  -1469390.67643  22832823.8884   22832822.7864
      1774.0994
    710675.54749    546943.19547  20406026.3174   20406023.4234
      -965.0884
   3159805.58248   2441072.86345  21979454.7314   21979450.2204
     -3334.7434
   -627960.39549   -489619.92646  21525576.3804   21525574.5214
       507.3814
 04  9  8 21 14 30.0010000  0  6G19G 3G 8G13G23G27
  -1106787.28147   -861479.30142  24096443.8494   24096442.6464
      1850.9404
   -427291.56647   -334166.34842  23196300.4194   23196300.5284
       121.5144
  -1921681.40248  -1490090.55543  22827768.4974   22827767.3764
      1770.9914
    725271.03949    558316.30547  20408803.9424   20408800.8104
      -973.0334
   3209914.80549   2480118.98445  21988990.6144   21988986.0324
     -3340.6154
   -635520.67249   -495511.05546  21524137.5284   21524136.0754
       504.0184
 04  9  8 21 14 45.0010000  0  6G19G 3G 8G13G23G27
  -1134494.53947   -883069.32042  24091171.2784   24091169.1464
      1847.1514
   -428978.47747   -335480.80942  23195979.4814   23195979.4934
       112.4614
  -1948199.89148  -1510754.28543  22822722.6694   22822720.8454
      1767.8994
    739985.54349    569782.14847  20411603.7784   20411600.5834
      -980.9674
   3260111.60549   2519233.35245  21998542.7634   21998538.3684
     -3346.4534
   -643030.69149   -501363.00446  21522708.8884   21522706.8374
       500.6684
 04  9  8 21 15  0.0010000  0  6G19G 3G 8G13G23G27
  -1162145.71547   -904615.65242  24085909.8804   24085907.2784
      1843.4124
   -430530.43747   -336690.10943  23195684.0214   23195684.4234
       103.4644
  -1974673.09048  -1531382.73444  22817684.6304   22817683.3454
      1764.8804
    754818.04349    581339.93447  20414426.2944   20414423.2354
      -988.8334
   3310394.96949   2558415.17245  22008111.1614   22008106.9234
     -3352.2244
   -650491.71149   -507176.78546  21521289.2004   21521287.1224
       497.4014
 04  9  8 21 15 15.0010000  0  6G19G 3G 8G13G23G27
  -1189740.62147   -926118.12542  24080658.6694   24080657.2084
      1839.6604
   -431947.53948   -337794.34443  23195414.9114   23195414.3024
        94.4734
  -2001101.17248  -1551976.02044  22812655.3644   22812653.9974
      1761.8724
    769768.44949    592989.59847  20417271.1304   20417268.4854
      -996.6944
   3360764.54349   2597664.16445  22017696.3564   22017692.3604
     -3357.9724
   -657903.68749   -512952.34846  21519878.3024   21519876.4464
       494.1324
 04  9  8 21 15 30.0010000  0  6G19G 3G 8G13G23G27
  -1217282.02347   -947578.91442  24075417.3254   24075416.3534
      1836.0934
   -433232.89548   -338795.89542  23195170.7164   23195169.4154
        85.6904
  -2027487.15248  -1572536.50043  22807634.1304   22807633.0364
      1759.0654
    784833.58249    604728.65647  20420138.3494   20420135.6224
     -1004.3424
   3411216.96949   2636977.72345  22027297.3254   22027293.0094
     -3363.4954
   -665269.98049   -518692.30946  21518476.7004   21518474.7314
       491.0864
 04  9  8 21 15 45.0010000  0  6G19G 3G 8G13G23G27
  -1244767.93747   -968996.49242  24070187.1774   24070184.5014
      1832.3944
   -434384.53147   -339693.28543  23194951.3414   23194949.5524
        76.7764
  -2053829.48048  -1593062.96944  22802621.6694   22802620.8494
      1756.1554
    800015.16449    616558.46147  20423026.9814   20423024.3334
     -1012.1054
   3461753.84849   2676357.08645  22036913.7394   22036909.6534
     -3369.1254
   -672588.94949   -524395.40246  21517083.5134   21517082.3764
       487.9314
 04  9  8 21 16  0.0010000  0  6G19G 3G 8G13G23G27
  -1272196.85547   -990369.66042  24064968.5134   24064965.1144
      1828.5954
   -435401.12548   -340485.41842  23194757.4894   23194756.2394
        67.7734
  -2080127.01648  -1613554.52744  22797617.2714   22797616.7244
      1753.1694
    815314.40649    628479.93847  20425938.6224   20425935.9314
     -1019.9494
   3512376.05549   2715802.93445  22046547.0444   22046542.5954
     -3374.8144
   -679859.49649   -530060.75446  21515700.4664   21515698.6964
       484.7034
 04  9  8 21 16 15.0010000  0  6G19G 3G 8G13G23G27
  -1299569.78547  -1011699.16442  24059758.9274   24059756.5834
      1824.8624
   -436283.80548   -341173.19542  23194589.5994   23194589.0524
        58.8454
  -2106381.03948  -1634012.19544  22792621.2634   22792620.3564
      1750.2684
    830730.06349    640492.13347  20428871.8334   20428869.0834
     -1027.7104
   3563082.09849   2755314.10945  22056196.4664   22056191.2434
     -3380.4034
   -687082.91049   -535689.39146  21514325.4664   21514323.7204
       481.5614
 04  9  8 21 16 30.0010000  0  6G19G 3G 8G13G23G27
  -1326885.67247  -1032984.25442  24054560.8104   24054558.3494
      1821.0594
   -437031.69548   -341755.94143  23194447.4744   23194446.5444
        49.8594
  -2132590.76248  -1654435.32844  22787634.0364   22787633.1104
      1747.3154
    846263.02749    652595.73847  20431827.8334   20431825.0364
     -1035.5314
   3613872.66449   2794891.15645  22065861.1854   22065857.1964
     -3386.0384
   -694258.54749   -541280.79346  21512960.4504   21512958.6304
       478.3764
 04  9  8 21 16 45.0010000  0  6G19G 3G 8G13G23G27
  -1354143.87947  -1054224.38742  24049373.3724   24049370.5954
      1817.2144
   -437644.37948   -342233.34443  23194330.8334   23194330.1344
        40.8464
  -2158755.85248  -1674823.68743  22782654.8024   22782653.5054
      1744.3394
    861913.65249    664791.02347  20434806.1534   20434803.3134
     -1043.3754
   3664747.86349   2834534.15245  22075542.4354   22075538.2904
     -3391.6804
   -701386.05949   -546834.69146  21511604.0054   21511601.9584
       475.1674
 04  9  8 21 17  0.0010000  0  6G19G 3G 8G13G23G27
  -1381343.98047  -1075419.23042  24044196.4894   24044195.5524
      1813.3404
   -438121.75848   -342605.33243  23194239.8494   23194238.6964
        31.8254
  -2184876.41848  -1695177.34044  22777684.1534   22777682.6854
      1741.3714
    877681.92249    677077.98047  20437806.7554   20437803.8254
     -1051.2184
   3715707.39549   2874242.84845  22085239.4034   22085235.7314
     -3397.3024
   -708465.64849   -552351.25846  21510257.0054   21510254.9854
       471.9734
 04  9  8 21 17 15.0010000  0  6G19G 3G 8G13G23G27
  -1408485.54347  -1096568.45742  24039031.6144   24039031.0524
      1809.4384
   -438463.52048   -342871.61343  23194175.2004   23194173.4234
        22.7844
  -2210952.06648  -1715496.00844  22772722.0994   22772720.7634
      1738.3774
    893567.95749    689456.70747  20440829.7244   20440826.7904
     -1059.0694
   3766751.48448   2914017.44545  22094952.9194   22094948.8844
     -3402.9394
   -715497.09049   -557830.30546  21508918.8644   21508916.5834
       468.7634
 04  9  8 21 17 30.0010000  0  6G19G 3G 8G13G23G27
  -1435567.37547  -1117671.12942  24033878.9584   24033877.7714
      1805.4554
   -438668.68448   -343031.47743  23194135.8644   23194134.9544
        13.6784
  -2236982.26648  -1735779.25044  22767768.6304   22767767.4894
      1735.3474
    909572.69949    701927.93047  20443875.2314   20443872.4544
     -1066.9834
   3817880.65649   2953858.32045  22104682.5674   22104678.8684
     -3408.6114
   -722479.53149   -563271.16446  21507589.9584   21507588.3414
       465.4964
 04  9  8 21 17 45.0010000  0  6G19G 3G 8G13G23G27
  -1462589.44947  -1138727.23043  24028736.2474   24028735.1034
      1801.4724
   -438737.24248   -343084.89543  23194122.5444   23194121.7674
         4.5714
  -2262967.16848  -1756027.19944  22762824.0524   22762822.5484
      1732.3274
    925696.24249    714491.72347  20446943.7864   20446940.7164
     -1074.9034
   3869094.56648   2993765.24645  22114428.7944   22114424.2434
     -3414.2614
   -729413.41849   -568674.19546  21506270.5214   21506268.6574
       462.2594
 04  9  8 21 18  0.0010000  0  6G19G 3G 8G13G23G27
  -1489551.26647  -1159736.39142  24023604.9504   24023604.4974
      1797.4544
   -438668.99248   -343031.70743  23194135.9584   23194135.1424
        -4.5504
  -2288906.42648  -1776239.58244  22757887.4664   22757887.0674
      1729.2844
    941938.25049    727147.83247  20450033.8494   20450030.8994
     -1082.8014
   3920393.02049   3033738.04745  22124190.4274   22124185.9854
     -3419.8974
   -736298.52349   -574039.20746  21504960.4814   21504958.3804
       459.0074
 04  9  8 21 18 15.0010000  0  6G19G 3G 8G13G23G27
  -1516453.52747  -1180699.13742  24018487.3964   24018485.3604
      1793.4844
   -438464.79747   -342872.59043  23194174.2864   23194173.8684
       -13.6134
  -2314801.38748  -1796417.44944  22752960.0214   22752958.9074
      1726.3314
    958297.84449    739895.55947  20453147.3174   20453144.7354
     -1090.6404
   3971774.79749   3073775.77045  22133968.2784   22133964.2984
     -3425.4524
   -743136.10249   -579367.18746  21503659.3174   21503657.3294
       455.8394
 04  9  8 21 18 30.0010000  0  6G19G 3G 8G13G23G27
  -1543294.69947  -1201614.29342  24013378.6464   24013377.0604
      1789.4114
   -438123.32047   -342606.47743  23194239.2634   23194239.0604
       -22.7654
  -2340650.65248  -1816559.71144  22748041.0444   22748040.4074
      1723.2844
    974776.47349    752736.04747  20456282.9194   20456280.0564
     -1098.5754
   4023241.07849   3113879.35245  22143761.3254   22143758.0284
     -3431.0854
   -749924.83649   -584657.09846  21502367.4504   21502365.6184
       452.5824
 04  9  8 21 18 45.0010000  0  6G19G 3G 8G13G23G27
  -1570075.86747  -1222482.67642  24008282.8104   24008280.9114
      1785.4114
   -437645.86348   -342234.41443  23194330.3174   23194329.6264
       -31.8304
  -2366455.45748  -1836667.33244  22743130.4814   22743129.6534
      1720.3204
    991372.73849    765668.19547  20459441.4584   20459438.4314
     -1106.4184
   4074790.25849   3154047.50845  22153571.1854   22153566.8804
     -3436.6124
   -756666.18449   -589910.09446  21501084.4114   21501082.8214
       449.4234
 04  9  8 21 19  0.0010000  0  6G19G 3G 8G13G23G27
  -1596797.77047  -1243304.90243  24003197.2004   24003195.2634
      1781.4604
   -437033.31648   -341757.08243  23194447.1694   23194446.6224
       -40.8364
  -2392216.97348  -1856741.22744  22738228.3334   22738227.1884
      1717.4344
   1008085.59449    778691.20347  20462621.6224   20462618.7204
     -1114.1904
   4126421.11749   3194279.32845  22163396.0054   22163392.0634
     -3442.0574
   -763361.29349   -595127.05546  21499810.4894   21499808.4034
       446.3414
 04  9  8 21 19 15.0010000  0  6G19G 3G 8G13G23G27
  -1623460.71146  -1264081.16043  23998124.0754   23998121.0794
      1777.5294
   -436286.23448   -341174.93043  23194589.2084   23194588.0054
       -49.8054
  -2417935.91848  -1876781.93744  22733334.1064   22733332.7744
      1714.5964
   1024914.25049    791804.43447  20465824.0674   20465821.3024
     -1121.9104
   4178132.73049   3234574.06645  22173236.4354   22173232.3764
     -3447.4414
   -770010.83249   -600308.51646  21498545.0914   21498543.0284
       443.3034
 04  9  8 21 19 30.0010000  0  6G19G 3G 8G13G23G27
  -1650063.02347  -1284810.19942  23993061.6224   23993058.4744
      1773.4884
   -435403.15648   -340486.82443  23194757.0994   23194755.9814
       -58.8724
  -2443611.00448  -1896788.48844  22728448.8494   22728447.0834
      1711.6724
   1041860.03949    805008.93847  20469048.7784   20469046.0324
     -1129.7194
   4229926.17649   3274932.57445  22183092.4814   22183088.8134
     -3452.8964
   -776613.71949   -605453.62146  21497288.6924   21497286.6264
       440.1924
 04  9  8 21 19 45.0010000  0  6G19G 3G 8G13G23G27
  -1676604.59446  -1305491.91842  23988010.1464   23988007.8494
      1769.4384
   -434384.12547   -339692.77743  23194950.6694   23194949.9234
       -67.9354
  -2469242.36748  -1916760.94944  22723570.9664   22723569.4034
      1708.7584
   1058922.99649    818304.74247  20472295.5834   20472293.2244
     -1137.5304
   4281801.25049   3315354.68045  22192964.1224   22192960.6854
     -3458.3384
   -783169.98049   -610562.39146  21496041.1384   21496039.3924
       437.0844
 04  9  8 21 20  0.0010000  0  6G19G 3G 8G13G23G27
  -1703085.69147  -1326126.52742  23982971.7634   23982967.4894
      1765.4074
   -433229.71147   -338793.19943  23195170.5674   23195169.8064
       -76.9614
  -2494830.63748  -1936699.84444  22718701.5754   22718700.2634
      1705.8854
   1076102.61349    831691.45747  20475564.7084   20475562.0754
     -1145.3084
   4333757.15249   3355839.78945  22202851.0284   22202847.4974
     -3463.7274
   -789680.20749   -615635.29346  21494802.4194   21494800.3134
       434.0154
 04  9  8 21 20 15.0010000  0  6G19G 3G 8G13G23G27
  -1729507.24247  -1346714.71942  23977943.7944   23977940.2284
      1761.4374
   -431940.97747   -337788.98443  23195415.7164   23195415.7554
       -85.9164
  -2520377.11748  -1956606.18444  22713840.3174   22713838.9784
      1703.0994
   1093397.57849    845168.05547  20478856.0444   20478853.3994
     -1152.9984
   4385792.41449   3396386.72745  22212752.9114   22212749.4074
     -3469.0174
   -796145.82449   -620673.43446  21493571.9814   21493570.0564
       431.0414
 04  9  8 21 20 30.0010000  0  6G19G 3G 8G13G23G27
  -1755868.75447  -1367256.11742  23972927.2004   23972924.9194
      1757.4344
   -430517.65648   -336679.90243  23195686.8254   23195686.4624
       -94.8884
  -2545881.58248  -1976479.77344  22708987.0214   22708985.6964
      1700.2984
   1110808.05949    858734.65647  20482168.9504   20482166.2044
     -1160.6994
   4437906.98849   3436995.46544  22222669.6464   22222666.3994
     -3474.3054
   -802566.68449   -625676.69546  21492349.8334   21492348.0444
       428.0574
 04  9  8 21 20 45.0010000  0  6G19G 3G 8G13G23G27
  -1782168.60246  -1387749.45342  23967922.2084   23967920.4664
      1753.3234
   -428958.36347   -335464.86343  23195983.4354   23195983.4704
      -103.9534
  -2571342.75448  -1996319.63344  22704142.1694   22704140.5524
      1697.4114
   1128335.36349    872392.29346  20485504.5674   20485501.3964
     -1168.4874
   4490102.11349   3477666.96145  22232602.2314   22232598.9114
     -3479.6754
   -808941.59849   -630644.14846  21491137.0444   21491135.0244
       424.9944
 04  9  8 21 21  0.0010000  0  6G19G 3G 8G13G23G27
  -1808406.98846  -1408194.90242  23962929.1384   23962926.7554
      1749.2264
   -427263.21547   -334143.98043  23196305.9424   23196305.1884
      -113.0104
  -2596760.94948  -2016126.00844  22699304.9034   22699303.3804
      1694.5464
   1145979.16849    886140.70347  20488861.8644   20488858.9704
     -1176.2544
   4542377.09848   3518400.68445  22242550.0444   22242546.9544
     -3484.9994
   -815270.92649   -635576.09846  21489932.4664   21489930.3134
       421.9554
 04  9  8 21 21 15.0010000  0  6G19G 3G 8G13G23G27
  -1834584.07846  -1428592.59442  23957947.8884   23957945.7554
      1745.1394
   -425432.93047   -332717.78143  23196653.7634   23196653.6924
      -122.0194
  -2622136.90648  -2035899.46544  22694475.7944   22694474.2434
      1691.7304
   1163738.87149    899979.43047  20492241.5994   20492238.6534
     -1183.9804
   4594731.02048   3559195.92645  22252512.5834   22252509.2904
     -3490.2614
   -821555.34049   -640473.03946  21488736.5364   21488734.1384
       418.9614
 04  9  8 21 21 30.0010000  0  6G19G 3G 8G13G23G27
  -1860699.54347  -1448942.26642  23952977.9034   23952976.4934
      1741.0314
   -423467.29747   -331186.10543  23197028.3104   23197027.7244
      -131.0424
  -2647470.71148  -2055640.07444  22689654.9354   22689653.4854
      1688.9204
   1181614.37149    913908.38347  20495643.1534   20495640.2244
     -1191.7004
   4647163.74648   3600052.56645  22262490.1774   22262486.3104
     -3495.5154
   -827795.04749   -645335.14546  21487549.3644   21487546.8844
       415.9804
 04  9  8 21 21 45.0010000  0  6G19G 3G 8G13G23G27
  -1886753.97346  -1469244.38743  23948019.5284   23948018.3764
      1736.9624
   -421367.08248   -329549.56243  23197427.8104   23197427.6424
      -140.0144
  -2672762.97748  -2075348.30944  22684842.0444   22684840.4274
      1686.1514
   1199604.92649    927926.99647  20499066.7554   20499064.2314
     -1199.3704
   4699674.28548   3640969.85244  22272482.4114   22272479.0564
     -3500.7034
   -833990.82449   -650163.02046  21486370.1614   21486368.0324
       413.0524
 04  9  8 21 22  0.0010000  0  6G19G 3G 8G13G23G27
  -1912746.30545  -1489498.09842  23943074.2244   23943072.1304
      1732.8224
   -419131.55948   -327807.60243  23197853.9034   23197853.2984
      -149.0354
  -2698013.30548  -2095023.86744  22680037.2714   22680035.9934
      1683.3554
   1217711.25449    942035.81647  20502511.9814   20502509.3564
     -1207.0894
   4752263.14848   3681948.16045  22282490.0214   22282486.0214
     -3505.9244
   -840142.11349   -654956.22746  21485199.7634   21485197.8104
       410.0864
 04  9  8 21 22 15.0010000  0  6G19G 3G 8G13G23G27
  -1938677.13346  -1509703.93443  23938139.0914   23938137.8604
      1728.7224
   -416761.41847   -325960.71943  23198304.6064   23198303.6464
      -158.0094
  -2723222.36348  -2114667.27344  22675239.8024   22675238.4034
      1680.6044
   1235932.48849    956234.17647  20505979.3104   20505976.6344
     -1214.7494
   4804929.27348   3722986.67244  22292511.4664   22292508.3254
     -3511.0754
   -846249.75049   -659715.42246  21484037.2944   21484035.2944
       407.1764
 04  9  8 21 22 30.0010000  0  6G19G 3G 8G13G23G27
  -1964546.78947  -1529862.04343  23933217.3174   23933215.0174
      1724.6444
   -414257.09447   -324009.30143  23198780.8804   23198780.2594
      -166.9554
  -2748390.82448  -2134279.05544  22670450.6854   22670449.0054
      1677.8974
   1254268.01249    970521.59847  20509468.2244   20509465.7284
     -1222.3684
   4857671.80948   3764084.73444  22302548.4814   22302545.1494
     -3516.1694
   -852314.38349   -664441.10546  21482883.0364   21482881.4894
       404.3094
 04  9  8 21 22 45.0010000  0  6G19G 3G 8G13G23G27
  -1990354.14547  -1549971.62943  23928306.0284   23928303.9154
      1720.4904
   -411617.81647   -321952.73043  23199282.8884   23199282.1654
      -175.9524
  -2773517.76648  -2153858.45744  22665669.2554   22665667.8214
      1675.1294
   1272718.63749    984898.69947  20512979.6064   20512976.8724
     -1230.0424
   4910491.29348   3805242.75444  22312599.6534   22312596.2944
     -3521.2994
   -858335.40649   -669132.80946  21481737.3564   21481735.3884
       401.4024
 04  9  8 21 23  0.0010000  0  6G19G 3G 8G13G23G27
  -2016097.82446  -1570031.59043  23923406.9274   23923405.5244
      1716.2454
   -408842.46547   -319790.10543  23199811.4584   23199810.2004
      -185.0234
  -2798602.26648  -2173404.81244  22660895.5364   22660893.9504
      1672.3004
   1291285.48849    999366.36747  20516512.6064   20516509.7744
     -1237.7904
   4963388.73848   3846461.51244  22322665.7164   22322662.4274
     -3526.4964
   -864311.64149   -673789.60946  21480600.0834   21480598.2674
       398.4164
 04  9  8 21 23 15.0010000  0  6G19G 3G 8G13G23G27
  -2041775.07447  -1590039.80143  23918520.5834   23918518.8564
      1711.8174
   -405928.44948   -317519.44543  23200366.4194   23200364.4464
      -194.2684
  -2823642.14548  -2192916.38744  22656130.5444   22656129.4784
      1669.3254
   1309970.91449   1013926.43847  20520068.6304   20520065.5404
     -1245.6954
   5016366.32048   3887742.71944  22332747.0444   22332743.4584
     -3531.8394
   -870240.86749   -678409.78546  21479471.8964   21479470.0364
       395.2824
 04  9  8 21 23 30.0010000  0  6G19G 3G 8G13G23G27
  -2067387.73047  -1609997.68443  23913646.9354   23913645.2824
      1707.5104
   -402877.90648   -315142.38343  23200946.7474   23200945.3254
      -203.3704
  -2848639.35948  -2212394.71544  22651374.1694   22651372.8104
      1666.4814
   1328772.78949   1028577.24647  20523646.3024   20523643.6064
     -1253.4584
   5069421.59848   3929084.46144  22342843.6924   22342839.8134
     -3537.0184
   -876125.33649   -682995.07846  21478351.8494   21478350.2394
       392.2984
 04  9  8 21 23 45.0010000  0  6G19G 3G 8G13G23G27
  -2092933.20347  -1629903.21143  23908785.5674   23908783.2124
      1703.0324
   -399688.35947   -312657.02043  23201553.3564   23201552.1424
      -212.6364
  -2873591.69948  -2231838.07044  22646625.3724   22646624.2124
      1663.4894
   1347693.50049   1043320.64847  20527246.4664   20527244.0954
     -1261.3814
   5122556.69148   3970488.40644  22352954.6774   22352950.8684
     -3542.3404
   -881962.65249   -687543.63346  21477241.3644   21477239.6034
       389.1544
 04  9  8 21 24  0.0010000  0  6G19G 3G 8G13G23G27
  -2118413.61347  -1649758.05143  23903937.2634   23903935.0994
      1698.6944
   -396362.08647   -310065.10943  23202186.2004   23202185.7554
      -221.7524
  -2898501.55948  -2251248.35244  22641885.6224   22641883.7124
      1660.6574
   1366730.54749   1058154.70747  20530869.3174   20530866.9314
     -1269.1364
   5175769.00048   4011952.51644  22363080.5914   22363076.9624
     -3547.4874
   -887755.34049   -692057.41446  21476139.2314   21476137.3724
       386.1794
 04  9  8 21 24 15.0010000  0  6G19G 3G 8G13G23G27
  -2143826.31247  -1669560.11743  23899101.0604   23899098.3964
      1694.1804
   -392896.75447   -307364.82843  23202845.3254   23202845.0954
      -231.0224
  -2923366.59048  -2270623.67244  22637153.4194   22637152.1424
      1657.6694
   1385886.10249   1073081.09847  20534514.7474   20534511.8534
     -1277.0374
   5229060.53148   4053478.35944  22373221.4424   22373218.3844
     -3552.7694
   -893501.28149   -696534.76246  21475045.5134   21475043.9784
       383.0634
 04  9  8 21 24 30.0010000  0  6G19G 3G 8G13G23G27
  -2169171.43446  -1689309.53543  23894278.0754   23894275.0754
      1689.6754
   -389292.68747   -304556.47343  23203531.6144   23203530.9704
      -240.2714
  -2948187.11748  -2289964.32844  22632430.7164   22632428.7354
      1654.7024
   1405160.13749   1088099.82047  20538182.5054   20538179.5094
     -1284.9364
   5282430.89148   4095065.61344  22383378.0604   22383374.1964
     -3558.0244
   -899200.87549   -700976.00846  21473960.6924   21473959.2284
       379.9734
 04  9  8 21 24 45.0010000  0  6G19G 3G 8G13G23G27
  -2194449.23046  -1709006.49242  23889467.7474   23889465.0404
      1685.1864
   -385550.44147   -301640.43743  23204243.8644   23204242.8884
      -249.4834
  -2972963.82448  -2309270.84444  22627715.8024   22627714.0214
      1651.7804
   1424551.97748   1103210.34047  20541872.7474   20541869.9784
     -1292.7894
   5335879.09848   4136713.54744  22393548.9424   22393544.7594
     -3563.2144
   -904854.74249   -705381.62146  21472885.0674   21472883.0954
       376.9244
 04  9  8 21 25  0.0010000  0  6G19G 3G 8G13G23G27
  -2219658.27346  -1728649.87142  23884670.5674   23884667.8644
      1680.6034
   -381668.66447   -298615.66843  23204982.0524   23204981.7284
      -258.7854
  -2997695.66448  -2328542.38744  22623009.4974   22623008.4464
      1648.7894
   1444062.44549   1118413.30147  20545585.3494   20545582.7594
     -1300.6984
   5389406.28548   4178423.02344  22403734.5834   22403730.7944
     -3568.4794
   -910461.65649   -709750.63746  21471818.1924   21471816.3454
       373.7944
 04  9  8 21 25 15.0010000  0  6G19G 3G 8G13G23G27
  -2244796.17246  -1748237.79742  23879887.3644   23879884.1614
      1675.8604
   -377645.19546   -295480.48843  23205748.0214   23205747.5014
      -268.2314
  -3022380.56248  -2347777.35544  22618312.2004   22618310.4784
      1645.6604
   1463693.82449   1133710.46947  20549321.3104   20549318.3764
     -1308.7594
   5443014.15648   4220195.35944  22413935.6384   22413932.2944
     -3573.8584
   -916019.68749   -714081.56646  21470760.2244   21470758.4744
       370.5354
 04  9  8 21 25 30.0010000  0  6G19G 3G 8G13G23G27
  -2269864.64546  -1767771.66043  23875115.7554   23875113.9424
      1671.2324
   -373482.16046   -292236.55943  23206539.6924   23206539.0634
      -277.5364
  -3047020.62948  -2366977.39544  22613622.8884   22613621.7434
      1642.6714
   1483443.96548   1149100.18447  20553079.5994   20553076.5094
     -1316.6764
   5496700.45748   4262028.80945  22424151.8964   22424148.9744
     -3579.0874
   -921531.08249   -718376.15246  21469712.0444   21469710.0404
       367.4264
 04  9  8 21 25 45.0010000  0  6G19G 3G 8G13G23G27
  -2294862.60246  -1787250.56642  23870359.3884   23870357.3924
      1666.5304
   -369178.60947   -288883.13743  23207359.0284   23207358.4784
      -286.9034
  -3071614.91448  -2386141.75844  22608942.8024   22608941.2204
      1639.6194
   1503313.82849   1164583.18447  20556860.5214   20556857.4154
     -1324.6584
   5550465.79348   4303923.84844  22434383.3964   22434379.6184
     -3584.3564
   -926994.93449   -722633.69546  21468671.7474   21468670.2824
       364.2574
 04  9  8 21 26  0.0010000  0  6G19G 3G 8G13G23G27
  -2319790.64146  -1806674.94942  23865614.7004   23865613.7944
      1661.8694
   -364735.35947   -285420.85243  23208204.8494   23208204.3064
      -296.2174
  -3096164.34848  -2405271.17644  22604271.6614   22604269.9154
      1636.6294
   1523302.31349   1180158.62547  20560664.1774   20560661.7084
     -1332.5664
   5604309.09848   4345879.64144  22444629.2554   22444625.7714
     -3589.5544
   -932412.27349   -726855.00446  21467641.0834   21467639.1384
       361.1564
 04  9  8 21 26 15.0010000  0  6G19G 3G 8G13G23G27
  -2344646.91046  -1826043.45342  23860885.6614   23860883.2824
      1657.0854
   -360150.82047   -281848.49643  23209077.1774   23209076.5634
      -305.6364
  -3120667.48048  -2424364.50844  22599608.6144   22599606.8454
      1633.5424
   1543411.16849   1195827.85947  20564490.5524   20564487.9544
     -1340.5904
   5658231.73048   4387897.25044  22454890.3494   22454887.0244
     -3594.8424
   -937781.57449   -731038.87146  21466619.6694   21466617.3684
       357.9534
 04  9  8 21 26 30.0010000  0  6G19G 3G 8G13G23G27
  -2369432.64146  -1845356.94942  23856168.4974   23856166.5914
      1652.3824
   -355426.38747   -278167.10943  23209976.0054   23209975.0324
      -314.9624
  -3145125.91848  -2443423.01644  22594954.3964   22594952.5564
      1630.5634
   1563638.78549   1211589.63747  20568339.7244   20568337.0404
     -1348.5084
   5712231.97348   4429975.33244  22465166.1384   22465162.3104
     -3600.0164
   -943104.34849   -735186.48046  21465606.5674   21465604.7554
       354.8524
 04  9  8 21 26 45.0010000  0  6G19G 3G 8G13G23G27
  -2394148.38346  -1864615.94542  23851465.7314   23851463.5674
      1647.7164
   -350562.91847   -274377.36342  23210901.4194   23210900.8804
      -324.2314
  -3169540.36748  -2462447.23844  22590308.3334   22590306.5564
      1627.6304
   1583984.26649   1227443.25447  20572211.7474   20572208.6494
     -1356.3654
   5766308.54748   4472112.89144  22475456.8724   22475452.8064
     -3605.1054
   -948381.76649   -739298.75046  21464602.4194   21464600.3764
       351.8284
 04  9  8 21 27  0.0010000  0  6G19G 3G 8G13G23G27
  -2418791.03946  -1883817.98042  23846776.3414   23846773.9664
      1642.8444
   -345557.51247   -270477.04343  23211853.9504   23211853.7084
      -333.6944
  -3193908.14148  -2481435.09844  22585671.4974   22585669.7674
      1624.5184
   1604450.42249   1243390.90246  20576106.1774   20576103.0914
     -1364.4104
   5820464.15648   4514312.04344  22485762.2864   22485758.9194
     -3610.3744
   -953610.89149   -743373.39546  21463607.1144   21463605.3494
       348.6084
 04  9  8 21 27 15.0010000  0  6G19G 3G 8G13G23G27
  -2443363.70346  -1902965.48843  23842100.4664   23842097.5874
      1638.1784
   -340413.43447   -266468.66043  23212833.0674   23212832.5284
      -342.9394
  -3218232.58648  -2500389.19544  22581042.4194   22581040.7474
      1621.6304
   1625033.80949   1259429.90647  20580022.8024   20580019.9504
     -1372.2264
   5874695.19148   4556569.97344  22496082.0834   22496078.1184
     -3615.4024
   -958795.13349   -747413.05946  21462620.8104   21462618.7354
       345.6164
 04  9  8 21 27 30.0010000  0  6G19G 3G 8G13G23G27
  -2467864.14846  -1922056.71543  23837438.3494   23837435.2044
      1633.3634
   -335128.76646   -262350.72743  23213839.3644   23213837.8844
      -352.3114
  -3242511.78548  -2519308.04344  22576421.8564   22576421.1924
      1618.6134
   1645736.43448   1275561.80947  20583962.5134   20583959.9034
     -1380.1754
   5929003.40248   4598888.02744  22506416.6064   22506412.5564
     -3620.5474
   -963932.77349   -751416.41846  21461642.8024   21461640.8064
       342.5094
 04  9  8 21 27 45.0010000  0  6G19G 3G 8G13G23G27
  -2492293.03546  -1941092.18043  23832790.0994   23832787.3134
      1628.5924
   -329704.41447   -258123.96943  23214870.8254   23214870.4784
      -361.6234
  -3266746.91048  -2538192.53544  22571810.4354   22571809.3604
      1615.6754
   1666557.16049   1291785.74646  20587924.7474   20587921.7984
     -1388.0484
   5983387.54348   4641265.24644  22516765.4424   22516761.3254
     -3625.6094
   -969024.82049   -755384.24246  21460673.9894   21460672.2314
       339.4704
 04  9  8 21 28  0.0010000  0  6G19G 3G 8G13G23G27
  -2516649.85546  -1960071.49643  23828154.4584   23828152.5714
      1623.7884
   -324140.10946   -253788.14143  23215929.8104   23215928.9854
      -370.9544
  -3290937.52348  -2557042.34444  22567207.0914   22567205.8724
      1612.7084
   1687496.26248   1308101.93047  20591909.1144   20591906.4624
     -1395.9404
   6037847.64547   4683701.66444  22527129.2164   22527124.7984
     -3630.6734
   -974071.12149   -759316.42246  21459713.5674   21459711.7004
       336.4204
 04  9  8 21 28 15.0010000  0  6G19G 3G 8G13G23G27
  -2540933.85946  -1978994.06243  23823533.9354   23823531.1064
      1618.9344
   -318435.36347   -249342.86343  23217015.0214   23217014.0874
      -380.3164
  -3315083.23848  -2575857.17244  22562612.4584   22562610.8724
      1609.7144
   1708554.22349   1324510.72747  20595916.6064   20595913.4934
     -1403.8644
   6092383.98048   4726197.48444  22537507.2084   22537502.7904
     -3635.7564
   -979071.15649   -763212.55946  21458762.0444   21458760.1264
       333.3364
 04  9  8 21 28 30.0010000  0  6G19G 3G 8G13G23G27
  -2565148.03146  -1997862.21943  23818925.5134   23818923.2394
      1614.2784
   -312593.37146   -244790.64843  23218127.1854   23218126.2634
      -389.4664
  -3339187.46548  -2594639.67244  22558025.2634   22558023.7354
      1606.9484
   1729727.72349   1341009.54347  20599945.8174   20599943.0214
     -1411.5674
   6146992.98448   4768749.93844  22547898.3964   22547894.9034
     -3640.6004
   -984028.34449   -767075.30146  21457818.6854   21457817.1104
       330.4794
 04  9  8 21 28 45.0010000  0  6G19G 3G 8G13G23G27
  -2589288.62546  -2016673.05143  23814331.6924   23814329.0954
      1609.3734
   -306610.73448   -240128.84043  23219265.8644   23219264.7824
      -398.8424
  -3363246.93447  -2613387.29344  22553447.1384   22553445.4934
      1603.9654
   1751020.10948   1357601.00447  20603997.6464   20603994.5564
     -1419.4924
   6201677.90248   4811361.52744  22558305.3644   22558301.1104
     -3645.6614
   -988939.40249   -770902.10246  21456884.2084   21456882.5914
       327.4044
 04  9  8 21 29  0.0010000  0  6G19G 3G 8G13G23G27
  -2613355.23046  -2035426.21543  23809751.5674   23809749.4114
      1604.4404
   -300487.08247   -235357.16043  23220430.3724   23220430.1304
      -408.2434
  -3387261.34448  -2632099.79344  22548877.4504   22548875.3844
      1600.9614
   1772431.62149   1374285.29347  20608072.1224   20608069.2824
     -1427.4344
   6256438.66448   4854032.22344  22568725.5054   22568721.9854
     -3650.7174
   -993804.10549   -774692.77346  21455958.4664   21455956.5994
       324.3144
 04  9  8 21 29 15.0010000  0  6G19G 3G 8G13G23G27
  -2637346.16846  -2054120.42242  23805186.7714   23805183.7474
      1599.3964
   -294221.06647   -230474.54343  23221622.9744   23221621.7394
      -417.7344
  -3411229.12948  -2650775.97744  22544315.9504   22544315.2904
      1597.8524
   1793963.48449   1391063.36747  20612169.6224   20612166.5404
     -1435.4584
   6311276.41848   4896762.89844  22579161.0524   22579157.0564
     -3655.8504
   -998621.16849   -778446.32846  21455041.8644   21455039.9624
       321.1384
 04  9  8 21 29 30.0010000  0  6G19G 3G 8G13G23G27
  -2661263.91446  -2072757.59042  23800634.4354   23800632.9194
      1594.5164
   -287815.43447   -225483.13743  23222842.1144   23222840.9384
      -427.0424
  -3435153.23848  -2669418.12144  22539763.3254   22539762.5324
      1594.9414
   1815613.09048   1407933.18047  20616289.2314   20616286.3764
     -1443.3074
   6366188.13348   4939551.20744  22589610.2634   22589606.3214
     -3660.7814
  -1003393.43749   -782164.96946  21454133.5054   21454131.8134
       318.1514
 04  9  8 21 29 45.0010000  0  6G19G 3G 8G13G23G27
  -2685106.57846  -2091336.25442  23796097.7394   23796095.2164
      1589.5114
   -281268.60946   -220381.70343  23224088.2164   23224086.9314
      -436.4554
  -3459032.13348  -2688025.03544  22535219.4974   22535218.4704
      1591.9264
   1837381.91848   1424895.90247  20620431.4504   20620428.9464
     -1451.2554
   6421175.25048   4982398.28544  22600074.0604   22600070.0054
     -3665.8084
  -1008119.37949   -785847.52046  21453234.2784   21453232.1654
       315.0634
 04  9  8 21 30  0.0010000  0  6G19G 3G 8G13G23G27
  -2708874.08247  -2109856.35543  23791575.5754   23791572.8964
      1584.5004
   -274580.82447   -215170.43443  23225360.6064   23225360.1304
      -445.8524
  -3482866.23848  -2706597.04344  22530684.4504   22530682.7474
      1588.9404
   1859269.62149   1441951.24247  20624596.7864   20624593.6384
     -1459.1804
   6476237.26248   5025303.72744  22610552.4034   22610548.1534
     -3670.8014
  -1012799.43049   -789494.30946  21452343.8174   21452341.7204
       312.0034
 04  9  8 21 30 15.0010000  0  6G19G 3G 8G13G23G27
  -2732566.43046  -2128317.91842  23787066.4424   23787064.1224
      1579.4904
   -267752.10547   -209849.34843  23226660.1144   23226658.9194
      -455.2484
  -3506655.48047  -2725134.10244  22526156.9584   22526155.9974
      1585.9494
   1881276.04749   1459099.10247  20628784.2784   20628781.4464
     -1467.0954
   6531373.71148   5068267.15644  22621044.2714   22621040.2124
     -3675.7634
  -1017433.72749   -793105.44946  21451461.7474   21451459.8454
       308.9534
 04  9  8 21 30 30.0010000  0  6G19G 3G 8G13G23G27
  -2756182.73846  -2146720.19943  23782572.7394   23782570.0634
      1574.4214
   -260781.90647   -204418.00843  23227986.4034   23227985.6304
      -464.6804
  -3530399.50447  -2743635.91844  22521638.4744   22521637.6964
      1582.9354
   1903401.77349   1476339.91847  20632995.0134   20632991.9384
     -1475.0484
   6586584.91848   5111288.84044  22631550.3254   22631546.8454
     -3680.7474
  -1022021.81249   -796680.57846  21450589.0214   21450586.9384
       305.8724
 04  9  8 21 30 45.0010000  0  6G19G 3G 8G13G23G27
  -2779724.50446  -2165064.42242  23778092.8644   23778090.5364
      1569.4514
   -253671.94146   -198877.76643  23229339.3724   23229338.7594
      -473.9984
  -3554100.25847  -2762104.02744  22517128.7314   22517127.5754
      1580.0504
   1925644.86749   1493672.18847  20637227.5524   20637224.7124
     -1482.8734
   6641868.84448   5154367.18044  22642070.8964   22642066.5214
     -3685.5954
  -1026565.42249   -800221.05546  21449724.0134   21449722.4194
       302.9074
 04  9  8 21 31  0.0010000  0  7G19G 3G 8G13G10G23G27
  -2803191.14846  -2183350.09843  23773627.6384   23773624.9814
      1564.4434
   -246421.94146   -193228.41443  23230718.4114   23230717.9074
      -483.3334
  -3577757.45748  -2780538.18044  22512626.6924   22512625.5874
      1577.1474
   1948005.50449   1511096.05547  20641482.4424   20641479.9704
     -1490.7094
    -57708.82456    -40177.98452  24470435.1464   24470433.8104

   6697225.44948   5197502.17244  22652605.1614   22652601.2244
     -3690.4404
  -1031064.71149   -803726.98846  21448868.1064   21448866.0404
       299.9534
 04  9  8 21 31 15.0010000  0  7G19G 3G 8G13G10G23G27
  -2826580.21146  -2201575.30543  23769176.3254   23769173.5674
      1559.2714
   -239029.61347   -187468.15243  23232125.4744   23232125.0174
      -492.8224
  -3601368.60248  -2798936.46544  22508133.5914   22508132.3294
      1574.0764
   1970485.95349   1528613.28146  20645760.3804   20645757.8844
     -1498.6974
    -80865.96145    -58222.48842  24466027.8724   24466027.0754
      1543.8094
   6752656.84448   5240695.44144  22663153.0284   22663149.4854
     -3695.4264
  -1035517.16449   -807196.42246  21448020.5914   21448019.1144
       296.8304
 04  9  8 21 31 30.0010000  0  7G19G 3G 8G13G10G23G27
  -2849895.85246  -2219743.32043  23764739.3104   23764737.0914
      1554.3764
   -231499.48447   -181600.51643  23233558.9424   23233558.1344
      -502.0094
  -3624938.52048  -2817302.60944  22503648.2164   22503647.2514
      1571.3284
   1993081.59049   1546220.27346  20650060.2244   20650057.6854
     -1506.3764
   -103915.16845    -76182.89142  24461641.7714   24461641.2554
      1536.6144
   6808158.27348   5283943.28144  22673714.3964   22673711.1574
     -3700.0954
  -1039927.46149   -810633.02746  21447181.5604   21447179.8964
       294.0204
 04  9  8 21 31 45.0010000  0  7G19G 3G 8G13G10G23G27
  -2873138.26647  -2237854.25843  23760316.9584   23760314.8334
      1549.4944
   -223832.00046   -175625.84443  23235017.7244   23235017.1814
      -511.1664
  -3648467.59048  -2835636.93444  22499171.2394   22499169.9584
      1568.6054
   2015791.94149   1563916.64147  20654381.6694   20654379.3844
     -1514.0234
   -126856.75445    -94059.41442  24457276.0674   24457275.4384
      1529.4394
   6863729.08648   5327245.17244  22684289.5364   22684286.2044
     -3704.7214
  -1044296.12149   -814037.16446  21446350.1304   21446348.5484
       291.2444
 04  9  8 21 32  0.0010000  0  7G19G 3G 8G13G10G23G27
  -2896306.30547  -2255907.21543  23755907.9114   23755905.7634
      1544.5364
   -216026.27347   -169543.44943  23236502.6464   23236502.2674
      -520.3824
  -3671955.12548  -2853938.90244  22494701.6694   22494700.3454
      1565.8364
   2038618.00849   1581703.18047  20658725.3964   20658722.8684
     -1521.7384
   -149689.54745   -111851.17242  24452930.9504   24452930.3534
      1522.1864
   6919369.82848   5370601.56344  22694877.5994   22694874.2354
     -3709.3834
  -1048622.30149   -817408.21146  21445526.8414   21445525.0174
       288.4124
 04  9  8 21 32 15.0010000  0  7G19G 3G 8G13G10G23G27
  -2919397.64147  -2273900.45343  23751514.0134   23751511.7394
      1539.4224
   -208080.28947   -163351.76643  23238015.8024   23238014.9234
      -529.7324
  -3695398.80548  -2872206.67644  22490240.4584   22490239.2004
      1562.9124
   2061561.64849   1599581.33646  20663091.3104   20663089.0174
     -1529.5764
   -172411.45745   -129556.55542  24448606.8644   24448606.1814
      1514.7944
   6975082.37948   5414013.91044  22705478.8334   22705476.4544
     -3714.1704
  -1052904.08249   -820744.66846  21444712.2714   21444710.5604
       285.4524
 04  9  8 21 32 30.0010000  0  7G19G 3G 8G13G10G23G27
  -2942411.34047  -2291833.17643  23747135.1064   23747131.7824
      1534.2474
   -199993.33247   -157050.23043  23239554.1224   23239553.5954
      -539.1304
  -3718798.11748  -2890439.89144  22485787.7474   22485786.5994
      1559.9544
   2084623.52349   1617551.62147  20667479.9974   20667477.6964
     -1537.4584
   -195021.39145   -147174.63342  24444305.0994   24444303.6224
      1507.3294
   7030867.14848   5457482.52744  22716094.6614   22716091.4194
     -3718.9854
  -1057140.89549   -824046.06646  21443906.0604   21443904.1964
       282.4544
 04  9  8 21 32 45.0010000  0  7G19G 3G 8G13G10G23G27
  -2965348.35247  -2309706.13743  23742770.1854   23742767.8644
      1529.1344
   -191766.58246   -150639.78543  23241118.9194   23241118.7084
      -548.4504
  -3742154.38748  -2908639.56644  22481343.2944   22481341.6774
      1557.0854
   2107802.46149   1635613.12547  20671890.8804   20671888.2714
     -1545.2624
   -217520.57045   -164706.44942  24440024.5134   24440022.6064
      1499.9454
   7086722.67648   5501006.26644  22726724.2314   22726720.2314
     -3723.7024
  -1061334.03149   -827313.44146  21443108.5054   21443106.2044
       279.5424
 04  9  8 21 33  0.0010000  0  7G19G 3G 8G13G10G23G27
  -2988206.42247  -2327517.58243  23738419.7554   23738417.2284
      1523.8714
   -183398.03947   -144118.84043  23242711.7784   23242711.8644
      -557.9034
  -3765465.62948  -2926804.15644  22476907.1854   22476905.6064
      1554.0834
   2131100.23049   1653767.22347  20676324.6384   20676321.7904
     -1553.1854
   -239906.76245   -182150.20742  24435763.5754   24435762.6574
      1492.4134
   7142650.64848   5544586.48844  22737367.2944   22737362.9464
     -3728.5324
  -1065481.58649   -830545.30546  21442318.8564   21442317.0244
       276.5044
 04  9  8 21 33 15.0010000  0  7G19G 3G 8G13G10G23G27
  -3010984.44947  -2345266.66443  23734085.6534   23734083.0284
      1518.5354
   -174886.84047   -137486.73443  23244331.3104   23244331.7394
      -567.4134
  -3788731.02748  -2944933.02044  22472479.7714   22472478.4274
      1551.0274
   2154517.52049   1672014.45347  20680781.0364   20680777.7674
     -1561.1534
   -262178.88346   -199505.10242  24431525.4354   24431525.0484
      1484.8084
   7198651.74248   5588223.67244  22748023.4664   22748019.5794
     -3733.4064
  -1069582.66449   -833740.95346  21441538.5754   21441536.1694
       273.4054
 04  9  8 21 33 30.0010000  0  7G19G 3G 8G13G10G23G27
  -3033682.56647  -2362953.47343  23729766.0754   23729763.7784
      1513.2084
   -166233.34047   -130743.73043  23245978.5284   23245978.1814
      -576.9004
  -3811951.03948  -2963026.52045  22468061.3334   22468060.0674
      1548.0014
   2178054.23049   1690354.73446  20685259.3024   20685256.7634
     -1569.1144
   -284337.25446   -216771.36742  24427308.2944   24427308.0444
      1477.2254
   7254725.20348   5631917.24644  22758693.6304   22758690.4234
     -3738.2314
  -1073637.88749   -836900.86746  21440766.7714   21440764.8644
       270.3484
 04  9  8 21 33 45.0010000  0  7G19G 3G 8G13G10G23G27
  -3056300.71947  -2380577.94543  23725461.6064   23725460.1574
      1507.8774
   -157437.68047   -123889.96543  23247651.8494   23247650.9744
      -586.3774
  -3835125.83648  -2981084.78544  22463651.3174   22463649.7634
      1544.9864
   2201709.96949   1708787.77047  20689761.1694   20689758.2634
     -1577.0494
   -306381.90646   -233948.98842  24423113.6064   24423113.2394
      1469.6434
   7310870.67648   5675666.93044  22769377.5444   22769374.0244
     -3743.0324
  -1077647.41849   -840025.18046  21440003.7784   21440001.5954
       267.3024
 04  9  8 21 34  0.0010000  0  7G19G 3G 8G13G10G23G27
  -3078838.28547  -2398139.64843  23721172.9974   23721170.9934
      1502.5044
   -148499.64847   -116925.25843  23249352.7474   23249351.5834
      -595.8694
  -3858254.98448  -2999107.48445  22459249.9664   22459249.1534
      1541.9434
   2225484.87949   1727313.66847  20694285.1694   20694282.3964
     -1584.9944
   -328312.31246   -251037.59842  24418940.6224   24418940.2674
      1462.0274
   7367088.14848   5719472.73844  22780075.3964   22780072.3924
     -3747.8324
  -1081611.14549   -843113.79346  21439249.6064   21439247.5834
       264.2484
 04  9  8 21 34 15.0010000  0  7G19G 3G 8G13G10G23G27
  -3101294.30148  -2415637.80543  23716899.4584   23716897.1424
      1497.0684
   -139418.56247   -109849.09043  23251080.6064   23251079.8644
      -605.4064
  -3881338.21548  -3017094.40644  22454857.1694   22454856.1574
      1538.8824
   2249379.65249   1745932.96547  20698832.3884   20698829.7284
     -1592.9854
   -350127.53146   -268036.46142  24414789.8964   24414788.0634
      1454.3484
   7423377.97748   5763334.90244  22790787.2784   22790784.2474
     -3752.6554
  -1085528.42249   -846166.21946  21438504.1304   21438501.8764
       261.1524
 04  9  8 21 34 30.0010000  0  7G19G 3G 8G13G10G23G27
  -3123669.30148  -2433072.84043  23712642.0524   23712638.8564
      1491.6674
   -130195.28146   -102662.11343  23252835.9114   23252835.1034
      -614.8854
  -3904376.03949  -3035045.95344  22450473.4354   22450471.7824
      1535.8554
   2273393.37149   1764644.94547  20703401.7314   20703399.0054
     -1600.9154
   -371828.24646   -284946.10242  24410660.4504   24410658.3064
      1446.7144
   7479739.28148   5807252.77744  22801512.1854   22801509.2084
     -3757.4204
  -1089400.03149   -849183.05146  21437767.1774   21437765.1064
       258.1074
 04  9  8 21 34 45.0010000  0  7G19G 3G 8G13G10G23G27
  -3145962.30948  -2450443.98843  23708400.3414   23708397.0054
      1486.2014
   -120829.00047    -95363.69543  23254618.7084   23254617.6884
      -624.4194
  -3927368.09849  -3052961.83644  22446098.4664   22446096.7084
      1532.8044
   2297526.68849   1783450.12947  20707994.1384   20707991.4544
     -1608.8884
   -393413.52046   -301765.77042  24406552.0054   24406551.2044
      1439.0184
   7536172.46548   5851226.65244  22812251.1384   22812248.3604
     -3762.2124
  -1093225.40649   -852163.85946  21437039.3254   21437037.6344
       255.0254
 04  9  8 21 35  0.0010000  0  7G19G 3G 8G13G10G23G27
  -3168173.41448  -2467751.31243  23704172.9974   23704169.5134
      1480.7404
   -111320.05547    -87954.12943  23256428.1854   23256427.3494
      -633.9304
  -3950314.73049  -3070842.31644  22441731.8494   22441730.3644
      1529.7764
   2321779.25049   1802348.21946  20712609.3334   20712606.6924
     -1616.8374
   -414883.52745   -318495.64542  24402466.6224   24402465.1384
      1431.3344
   7592676.98448   5895256.11744  22823003.6924   22823000.6344
     -3766.9684
  -1097004.93749   -855108.95346  21436320.0284   21436318.1924
       251.9694
 04  9  8 21 35 15.0010000  0  7G19G 3G 8G13G10G23G27
  -3190301.00448  -2484993.55943  23699962.6144   23699959.8494
      1475.1734
   -101667.18447    -80432.38743  23258265.1144   23258263.7204
      -643.5254
  -3973214.55149  -3088686.32045  22437373.8564   22437372.4744
      1526.6554
   2346152.35949   1821340.24646  20717247.3414   20717244.7744
     -1624.8744
   -436236.84046   -335134.57042  24398403.7394   24398402.1264
      1423.5544
   7649253.85948   5939341.97344  22833769.9974   22833767.3454
     -3771.7924
  -1100737.35249   -858017.32846  21435610.0834   21435607.9234
       248.8284
 04  9  8 21 35 30.0010000  0  7G19G 3G 8G13G10G23G27
  -3212346.12147  -2502171.54343  23695767.3254   23695764.1424
      1469.6744
    -91871.64547    -72799.50843  23260128.6854   23260128.3564
      -653.0364
  -3996068.78549  -3106494.80145  22433024.7864   22433023.7984
      1523.6164
   2370644.66049   1840425.15246  20721907.9424   20721905.0134
     -1632.8204
   -457474.47346   -351683.35242  24394361.8964   24394360.8644
      1415.8424
   7705901.56648   5983483.00444  22844549.8564   22844546.6654
     -3776.5144
  -1104424.10249   -860890.12146  21434908.5284   21434906.0674
       245.7834
 04  9  8 21 35 45.0010000  0  7G19G 3G 8G13G10G23G27
  -3234307.50447  -2519284.27043  23691588.3884   23691585.2044
      1464.0924
    -81932.46547    -65054.67643  23262019.6384   23262019.3684
      -662.6124
  -4018876.44148  -3124266.98445  22428684.6614   22428683.3254
      1520.5104
   2395257.07049   1859603.63746  20726591.8024   20726589.0174
     -1640.8274
   -478595.24646   -368141.07842  24390342.9814   24390341.8494
      1408.0524
   7762620.69948   6027679.69944  22855343.0054   22855340.0484
     -3781.2764
  -1108064.27349   -863726.60946  21434215.5524   21434213.4074
       242.6784
 04  9  8 21 36  0.0010000  0  7G19G 3G 8G13G10G23G27
  -3256183.91846  -2536330.81643  23687425.0674   23687422.3534
      1458.4284
    -71848.81647    -57197.29743  23263939.0364   23263938.0174
      -672.2434
  -4041636.65248  -3142002.21145  22424353.5834   22424352.4384
      1517.3474
   2419990.42249   1878876.36746  20731298.2634   20731295.4274
     -1648.8904
   -499598.17246   -384506.97342  24386345.6774   24386344.9974
      1400.1954
   7819411.97748   6071932.60944  22866150.2944   22866147.0524
     -3786.0854
  -1111656.95749   -866526.10246  21433531.6614   21433529.8334
       239.5124
 04  9  8 21 36 15.0010000  0  7G19G 3G 8G13G10G23G27
  -3277977.27747  -2553312.60243  23683278.2474   23683275.0134
      1452.8914
    -61622.66847    -49228.86743  23265884.4744   23265883.7434
      -681.7434
  -4064351.74648  -3159702.27045  22420031.0444   22420029.9894
      1514.3404
   2444842.55149   1898241.64546  20736027.8724   20736024.7354
     -1656.8094
   -520484.96546   -400782.37142  24382371.4894   24382370.4854
      1392.4534
   7876273.18448   6116240.00844  22876970.4194   22876966.8804
     -3790.7474
  -1115204.16849   -869290.16046  21432856.9354   21432855.2044
       236.4814
 04  9  8 21 36 30.0010000  0  7G19G 3G 8G13G10G23G27
  -3299684.74647  -2570227.47743  23679146.9814   23679144.4384
      1447.1654
    -51251.66847    -41147.54343  23267858.2554   23267857.4464
      -691.4004
  -4087019.23049  -3177365.23845  22415717.6064   22415716.1694
      1511.1664
   2469815.76649   1917701.29346  20740779.5994   20740776.9384
     -1664.8814
   -541253.14846   -416965.37142  24378418.7634   24378418.3214
      1384.5464
   7933206.47348   6160603.58644  22887804.2314   22887801.0134
     -3795.5534
  -1118703.75849   -872017.11346  21432190.9664   21432188.9034
       233.3064
 04  9  8 21 36 45.0010000  0  7G19G 3G 8G13G10G23G27
  -3321306.09046  -2587075.25843  23675032.5054   23675030.0284
      1441.4234
    -40735.68746    -32953.27343  23269859.5914   23269858.4934
      -701.0654
  -4109639.02349  -3194991.04344  22411413.1304   22411411.3804
      1507.9864
   2494910.14149   1937255.34446  20745555.7474   20745552.2354
     -1672.9584
   -561902.54746   -433055.75842  24374489.3024   24374489.2084
      1376.6274
   7990211.67247   6205023.19144  22898652.4974   22898649.1384
     -3800.3474
  -1122155.58249   -874706.85246  21431534.0284   21431531.9544
       230.1224
 04  9  8 21 37  0.0010000  0  7G19G 3G 8G13G10G23G27
  -3342841.05547  -2603855.70743  23670934.4034   23670932.6884
      1435.6644
    -30074.69946    -24645.99243  23271888.0364   23271887.3454
      -710.7334
  -4132211.09848  -3212579.66045  22407117.7084   22407116.3294
      1504.8054
   2520125.75449   1956903.86347  20750353.6224   20750350.9854
     -1681.0414
   -582432.97346   -449053.49242  24370583.2394   24370581.8684
      1368.6954
   8047288.46147   6249498.57444  22909513.7554   22909510.2864
     -3805.1194
  -1125559.83649   -877359.51646  21430886.2784   21430884.4704
       226.9504
 04  9  8 21 37 15.0010000  0  7G19G 3G 8G13G10G23G27
  -3364290.61747  -2620569.62543  23666852.4894   23666850.9704
      1429.9714
    -19270.10946    -16226.81643  23273944.2714   23273943.0174
      -720.3064
  -4154736.82448  -3230132.16045  22402831.0524   22402829.8564
      1501.7154
   2545461.13749   1976645.71947  20755174.7474   20755171.9194
     -1689.0264
   -602845.46146   -464959.32442  24366699.1304   24366697.3414
      1360.8334
   8104435.27048   6294028.52044  22920388.3174   22920385.5244
     -3809.7874
  -1128917.89149   -879976.17646  21430247.1534   21430245.1494
       223.8704
 04  9  8 21 37 30.0010000  0  7G19G 3G 8G13G10G23G27
  -3385654.86347  -2637217.03143  23662787.1854   23662785.6264
      1424.2834
     -8322.24647     -7696.02043  23276027.6694   23276026.6424
      -729.8584
  -4177216.43749  -3247648.73044  22398553.9194   22398552.4584
      1498.6414
   2570915.94949   1996480.62146  20760018.7164   20760016.1064
     -1696.9874
   -623140.09446   -480773.29342  24362836.3414   24362835.2124
      1352.9764
   8161651.64847   6338612.68044  22931276.7244   22931273.3534
     -3814.4254
  -1132229.98849   -882557.03146  21429617.0054   21429615.1034
       220.8074
 04  9  8 21 37 45.0010000  0  7G19G 3G 8G13G10G23G27
  -3406932.52047  -2653796.99243  23658738.3174   23658735.6034
      1418.5104
      2769.90247       947.21143  23278138.6534   23278137.0604
      -739.4774
  -4199649.34849  -3265128.91045  22394284.6384   22394283.6494
      1495.5274
   2596491.04349   2016409.25447  20764885.4814   20764882.7824
     -1705.0064
   -643315.77046   -496494.57442  24358997.0214   24358995.8104
      1345.0454
   8218938.30948   6383251.58644  22942177.4424   22942174.5874
     -3819.1114
  -1135495.25849   -885101.39546  21428995.7784   21428993.2474
       217.6854
 04  9  8 21 38  0.0010000  0  7G19G 3G 8G13G10G23G27
  -3428122.55947  -2670308.70343  23654706.1064   23654703.2434
      1412.6694
     14007.07046      9703.44143  23280276.3724   23280275.8604
      -749.1454
  -4222034.32449  -3282571.73844  22390024.6064   22390023.5794
      1492.3324
   2622187.12149   2036432.16447  20769775.4814   20769772.6574
     -1713.0724
   -663371.52346   -512122.44542  24355181.0604   24355179.5364
      1337.0504
   8276295.72747   6427945.66044  22953092.0994   22953089.0484
     -3823.8284
  -1138712.94549   -887608.68446  21428383.1464   21428381.1854
       214.5124
 04  9  8 21 38 15.0010000  0  7G19G 3G 8G13G10G23G27
  -3449224.83647  -2686751.98843  23650689.9114   23650688.3294
      1406.8184
     25389.09047     18572.55943  23282442.8334   23282441.8924
      -758.8014
  -4244371.98448  -3299977.69545  22385773.9974   22385772.9784
      1489.1774
   2648004.02048   2056549.21947  20774687.8414   20774685.5174
     -1721.1274
   -683307.39146   -527656.87142  24351386.9114   24351386.1854
      1329.0584
   8333723.56647   6472694.59844  22964020.2474   22964016.7634
     -3828.5234
  -1141883.30148   -890079.09046  21427779.8024   21427778.2554
       211.3574
 04  9  8 21 38 30.0010000  0  7G19G 3G 8G13G10G23G27
  -3470241.09447  -2703128.26643  23646690.5604   23646688.9464
      1401.0844
     36913.95347     27552.98843  23284635.7084   23284635.4194
      -768.3244
  -4266664.12148  -3317348.19144  22381532.0674   22381530.8294
      1486.1424
   2673939.54349   2076758.70747  20779623.1924   20779620.9784
     -1729.0354
   -703125.28147   -543099.35942  24347615.5524   24347614.8804
      1321.1934
   8391219.54748   6517496.62944  22974961.3174   22974958.8724
     -3833.0654
  -1145008.44149   -892514.26246  21427185.1614   21427183.4234
       208.3434
 04  9  8 21 38 45.0010000  0  7G19G 3G 8G13G10G23G27
  -3491171.61748  -2719437.71543  23642707.9974   23642705.7904
      1395.3684
     48581.21547     36644.36743  23286856.4354   23286854.9784
      -777.8174
  -4288911.34449  -3334683.67245  22377298.8174   22377297.4974
      1483.1484
   2699993.31649   2097060.32846  20784581.2784   20784578.6774
     -1736.9184
   -722825.27746   -558449.98442  24343866.9194   24343866.3294
      1313.3334
   8448782.96147   6562351.19144  22985916.0444   22985913.5524
     -3837.5614
  -1148088.82449   -894914.56646  21426599.2084   21426596.9664
       205.3594
 04  9  8 21 39  0.0010000  0  7G19G 3G 8G13G10G23G27
  -3512013.14848  -2735677.84443  23638741.8414   23638740.0564
      1389.4354
     60393.68047     45848.88343  23289103.6614   23289102.5364
      -787.4984
  -4311110.84049  -3351981.96545  22373074.0834   22373072.9704
      1479.9664
   2726168.09449   2117456.25447  20789562.2944   20789559.8374
     -1744.9854
   -742404.46547   -573706.49242  24340141.2554   24340140.3414
      1305.2794
   8506416.39547   6607260.32844  22996882.7944   22996880.8064
     -3842.2294
  -1151121.67648   -897277.82046  21426021.9664   21426020.3454
       202.1904
 04  9  8 21 39 15.0010000  0  7G19G 3G 8G13G10G23G27
  -3532765.53948  -2751848.52343  23634793.0994   23634790.6344
      1383.4934
     72351.24647     55166.46143  23291379.0914   23291378.9664
      -797.1714
  -4333262.37149  -3369242.89145  22368858.4584   22368857.6304
      1476.7694
   2752463.83648   2137946.42647  20794566.1384   20794563.5564
     -1753.0494
   -761862.63746   -588868.68742  24336438.8964   24336437.3494
      1297.2114
   8564119.56347   6652223.80544  23007863.2944   23007860.8454
     -3846.8784
  -1154107.14848   -899604.15646  21425453.8564   21425452.1184
       199.0324
 04  9  8 21 39 30.0010000  0  7G19G 3G 8G13G10G23G27
  -3553428.81648  -2767949.75043  23630860.8334   23630858.5094
      1377.5524
     84453.48046     64596.79343  23293681.9894   23293681.9974
      -806.8164
  -4355366.54349  -3386466.92645  22364652.4034   22364651.1424
      1473.6114
   2778879.96148   2158530.41046  20799592.9894   20799590.6924
     -1761.0754
   -781200.08246   -603936.80942  24332758.7084   24332757.6064
      1289.1634
   8621891.70347   6697241.03144  23018857.1854   23018854.5634
     -3851.4764
  -1157045.65648   -901893.91046  21424894.8564   21424892.7084
       195.9014
 04  9  8 21 39 45.0010000  0  7G19G 3G 8G13G10G23G27
  -3574003.52048  -2783981.96543  23626945.8804   23626942.7244
      1371.6474
     96699.76646     74139.36343  23296012.9354   23296012.6144
      -816.4194
  -4377424.15649  -3403654.66845  22360455.4354   22360453.7634
      1470.5084
   2805415.69548   2179207.60247  20804642.6694   20804640.2824
     -1769.0494
   -800417.30946   -618911.27342  24329102.2714   24329100.0564
      1281.1484
   8679732.01247   6742311.36343  23029864.0604   23029860.9034
     -3856.0214
  -1159938.00449   -904147.68446  21424344.6534   21424342.2714
       192.8234
 04  9  8 21 40  0.0010000  0  7G19G 3G 8G13G10G23G27
  -3594487.19948  -2799943.24643  23623047.6694   23623045.1344
      1365.5794
    109092.18847     83795.80543  23298370.7944   23298370.4974
      -826.1614
  -4399433.02349  -3420804.42245  22356267.3414   22356265.3644
      1467.2584
   2832073.11348   2199979.61347  20809715.4034   20809713.0484
     -1777.1614
   -819512.01246   -633790.25042  24325467.6854   24325466.8374
      1272.9804
   8737642.25847   6787436.19144  23040883.9034   23040880.7594
     -3860.6834
  -1162782.01248   -906363.78946  21423803.1924   21423800.8804
       189.6014
 04  9  8 21 40 15.0010000  0  7G19G 3G 8G13G10G23G27
  -3614881.46547  -2815834.84843  23619166.3964   23619164.3254
      1359.6184
    121628.72747     93564.53543  23300756.4744   23300755.7514
      -835.7694
  -4421395.11749  -3437917.72744  22352087.5284   22352086.2864
      1464.1404
   2858850.23848   2220844.89547  20814810.5674   20814808.5134
     -1785.1424
   -838485.95346   -648575.11742  24321857.1304   24321856.3844
      1264.9294
   8795620.30547   6832613.85544  23051916.5604   23051913.3104
     -3865.2034
  -1165579.79748   -908543.87946  21423270.6064   21423268.5604
       186.5194
 04  9  8 21 40 30.0010000  0  7G19G 3G 8G13G10G23G27
  -3635186.28948  -2831656.77043  23615302.9424   23615299.7864
      1353.6554
    134309.07447    103445.33643  23303168.7554   23303168.0284
      -845.3574
  -4443310.79748  -3454994.86745  22347917.2164   22347915.6924
      1461.0454
   2885746.70748   2241803.17247  20819928.8644   20819926.6224
     -1793.0984
   -857339.13346   -663265.91442  24318270.3334   24318268.7514
      1256.8794
   8853665.71148   6877844.00444  23062962.9894   23062959.6384
     -3869.6944
  -1168331.51248   -910688.06646  21422747.0364   21422744.8414
       183.4484
 04  9  8 21 40 45.0010000  0  7G19G 3G 8G13G10G23G27
  -3655399.14848  -2847407.02743  23611456.2944   23611454.0954
      1347.5244
    147135.62547    113440.04743  23305610.0754   23305609.0754
      -855.1034
  -4465177.46549  -3472033.81644  22343756.2164   22343754.9784
      1457.7784
   2912764.92648   2262856.32847  20825070.3104   20825067.7284
     -1801.2154
   -876069.11746   -677860.67642  24314706.0284   24314704.4274
      1248.6664
   8911780.62947   6923128.32444  23074021.9354   23074018.0834
     -3874.3284
  -1171034.98848   -912794.67246  21422232.7784   21422230.2984
       180.2324
 04  9  8 21 41  0.0010000  0  7G19G 3G 8G13G10G23G27
  -3675523.43448  -2863088.27043  23607626.6534   23607624.8214
      1341.6194
    160104.69947    123545.82043  23308078.2084   23308077.4154
      -864.6054
  -4486999.03549  -3489037.63345  22339603.8884   22339602.4624
      1454.7714
   2939901.12549   2284001.41447  20830234.2164   20830231.8174
     -1809.0804
   -894679.35246   -692362.14142  24311164.1774   24311162.6224
      1240.6824
   8969961.03547   6968463.66844  23085093.0604   23085089.7744
     -3878.6944
  -1173693.87149   -914866.53147  21421726.8964   21421724.6614
       177.2594
 04  9  8 21 41 15.0010000  0  7G19G 3G 8G13G10G23G27
  -3695558.55147  -2878699.99643  23603813.9424   23603812.0174
      1335.6744
    173216.60246    133762.87943  23310572.9504   23310572.6384
      -874.1274
  -4508775.21549  -3506006.07845  22335460.1384   22335458.3994
      1451.7454
   2967155.59049   2305238.64146  20835420.7084   20835418.0914
     -1816.9644
   -913169.27346   -706769.87142  24307645.6144   24307644.6104
      1232.6614
   9028207.05547   7013850.13744  23096176.8644   23096173.3334
     -3883.0684
  -1176307.83249   -916903.38346  21421229.5994   21421227.2824
       174.2644
 04  9  8 21 41 30.0010000  0  7G19G 3G 8G13G10G23G27
  -3715504.77747  -2894242.49243  23600018.5364   23600015.9314
      1329.7484
    186470.59047    144090.66043  23313095.3724   23313094.9194
      -883.5994
  -4530506.69948  -3522939.68445  22331324.5994   22331323.2784
      1448.7664
   2994527.60549   2326567.48047  20840629.2004   20840626.6694
     -1824.8014
   -931539.34046   -721084.19542  24304150.2004   24304148.4314
      1224.6714
   9086517.80547   7059287.05544  23107273.0214   23107269.5714
     -3887.3834
  -1178877.68749   -918905.86346  21420740.4034   21420738.3174
       171.3244
 04  9  8 21 41 45.0010000  0  7G19G 3G 8G13G10G23G27
  -3735359.05947  -2909713.34443  23596240.4584   23596237.9784
      1323.6194
    199869.52747    154531.39843  23315645.0754   23315644.3104
      -893.2624
  -4552190.38349  -3539836.05145  22327198.3804   22327196.9974
      1445.5794
   3022019.94949   2347990.07846  20845860.7944   20845858.4234
     -1832.8234
   -949786.52346   -735302.76642  24300678.0214   24300676.1034
      1216.4794
   9144895.94547   7104776.49244  23118381.8564   23118378.4354
     -3891.8764
  -1181400.50049   -920871.69546  21420260.1924   21420258.2164
       168.1884
 04  9  8 21 42  0.0010000  0  7G19G 3G 8G13G10G23G27
  -3755121.53947  -2925112.66443  23592479.5134   23592476.8994
      1317.4994
    213413.02047    165084.78943  23318222.3884   23318221.3494
      -902.8994
  -4573826.80549  -3556695.59045  22323080.7004   22323079.4274
      1442.4284
   3049632.09849   2369506.02346  20851115.3414   20851113.0174
     -1840.8104
   -967911.26246   -749425.90642  24297228.4894   24297226.7314
      1208.3164
   9203340.69947   7150317.82044  23129503.7714   23129499.9034
     -3896.3174
  -1183876.94149   -922801.38346  21419788.6694   21419786.8724
       165.0964
 04  9  8 21 42 15.0010000  0  7G19G 3G 8G13G10G23G27
  -3774794.07847  -2940441.88743  23588735.9274   23588733.5174
      1311.5034
    227098.80147    175749.02343  23320826.6774   23320825.0634
      -912.3854
  -4595418.35249  -3573520.16045  22318972.0524   22318970.6064
      1439.4364
   3077361.75849   2391113.54346  20856392.0834   20856389.8064
     -1848.6444
   -985915.40245   -763455.10942  24293802.2474   24293800.9814
      1200.2764
   9261849.62547   7195909.15644  23140637.4664   23140634.4354
     -3900.5954
  -1186308.97749   -924696.47346  21419326.3174   21419324.0794
       162.1364
 04  9  8 21 42 30.0010000  0  7G19G 3G 8G13G10G23G27
  -3794375.94948  -2955700.46543  23585009.9894   23585007.0564
      1305.4584
    240927.43047    186524.59043  23323458.7314   23323456.8374
      -921.9094
  -4616964.38349  -3590309.25845  22314872.0604   22314870.6224
      1436.4024
   3105209.39549   2412813.00047  20861691.2944   20861688.9974
     -1856.5094
  -1003798.31646   -777389.82442  24290399.2164   24290397.9234
      1192.1944
   9320423.08647   7241550.75844  23151783.9114   23151780.7004
     -3904.8974
  -1188696.35949   -926556.76646  21418871.7164   21418869.7284
       159.1594
 04  9  8 21 42 45.0010000  0  7G19G 3G 8G13G10G23G27
  -3813862.85948  -2970885.03143  23581301.7084   23581299.1654
      1299.1274
    254902.87547    197414.53142  23326117.1534   23326116.3764
      -931.6964
  -4638460.95749  -3607059.82845  22310781.3174   22310780.1384
      1433.1054
   3133179.00848   2434607.49247  20867013.6224   20867011.3064
     -1864.6414
  -1021555.79746   -791226.80142  24287020.5524   24287019.0444
      1183.8324
   9379064.84047   7287245.58644  23162943.3494   23162940.3374
     -3909.4504
  -1191035.01649   -928379.09446  21418426.7314   21418424.8604
       155.9104
 04  9  8 21 43  0.0010000  0  7G19G 3G 8G13G10G23G27
  -3833257.86748  -2985998.00443  23577611.0284   23577608.2984
      1293.0014
    269021.70347    208416.23043  23328804.4664   23328804.2784
      -941.2554
  -4659911.22749  -3623774.31245  22306699.5214   22306698.1064
      1430.0184
   3161267.16848   2456494.36346  20872358.8254   20872356.4114
     -1872.5444
  -1039191.08646   -804968.55142  24283664.1924   24283663.3214
      1175.6864
   9437771.25447   7332990.80944  23174114.7084   23174111.2164
     -3913.7614
  -1193328.21148   -930166.00046  21417990.5284   21417988.0244
       152.8804
 04  9  8 21 43 15.0010000  0  7G19G 3G 8G13G10G23G27
  -3852559.47347  -3001038.19543  23573938.1304   23573934.7044
      1286.7744
    283285.17247    219530.62543  23331518.2634   23331518.1464
      -950.8984
  -4681313.99249  -3640451.77745  22302626.7084   22302625.6924
      1426.8514
   3189475.12548   2478474.57846  20877726.4504   20877723.9934
     -1880.5304
  -1056702.69545   -818613.96142  24280331.8104   24280331.3064
      1167.4414
   9496543.30147   7378787.16044  23185298.5914   23185295.2944
     -3918.1364
  -1195574.89148   -931916.65646  21417562.7244   21417561.0284
       149.7794
 04  9  8 21 43 30.0020000  0  7G19G 3G 8G13G10G23G27
  -3871769.13748  -3016006.74243  23570282.4324   23570279.8264
      1280.6444
    297693.66447    230758.02743  23334260.0254   23334259.7134
      -960.5664
  -4702671.22749  -3657093.76245  22298562.6664   22298561.5924
      1423.8164
   3217804.09048   2500549.08647  20883117.3774   20883114.9634
     -1888.5984
  -1074092.00446   -832164.06242  24277023.6434   24277021.8344
      1159.2874
   9555384.28947   7424637.25044  23196496.0334   23196492.0334
     -3922.7334
  -1197775.75048   -933631.60946  21417144.2754   21417142.2364
       146.7244
 04  9  8 21 43 45.0020000  0  7G19G 3G 8G13G10G23G27
  -3890882.42647  -3030900.19143  23566644.8144   23566641.9124
      1274.2194
    312246.87947    242098.19143  23337030.1824   23337028.4944
      -970.2144
  -4723978.73849  -3673697.01245  22294507.8614   22294506.2294
      1420.5014
   3246251.87548   2522716.18047  20888530.8384   20888528.2714
     -1896.5194
  -1091355.06246   -845615.77742  24273738.5024   24273736.6114
      1150.8714
   9614287.61347   7470535.91043  23207704.9164   23207700.7254
     -3926.8884
  -1199928.92248   -935309.40646  21416734.4084   21416732.5374
       143.5454
 04  9  8 21 44  0.0020000  0  7G19G 3G 8G13G10G23G27
  -3909901.47747  -3045720.21143  23563026.0024   23563022.5534
      1267.9374
    326944.71147    253551.04743  23339826.3614   23339825.5844
      -979.8554
  -4745238.69549  -3690263.19945  22290462.2364   22290460.8654
      1417.3304
   3274819.17248   2544976.39846  20893966.8074   20893964.5064
     -1904.4864
  -1108493.93445   -858970.71942  24270475.7214   24270474.9474
      1142.5914
   9673255.96147   7516485.23844  23218926.5254   23218922.6004
     -3931.2234
  -1202035.68448   -936951.03946  21416333.7524   21416331.2444
       140.4514
 04  9  8 21 44 15.0020000  0  7G19G 3G 8G13G10G23G27
  -3928825.19148  -3060465.93443  23559425.0804   23559422.4674
      1261.5814
    341787.98048    265117.23043  23342651.7054   23342650.3574
      -989.5514
  -4766450.47749  -3706791.84445  22286425.7214   22286424.2324
      1414.1194
   3303506.80549   2567330.38346  20899426.2054   20899423.9364
     -1912.5094
  -1125507.50846   -872228.03942  24267239.0184   24267237.4474
      1134.2384
   9732289.90247   7562485.65643  23230160.1504   23230156.2684
     -3935.5964
  -1204095.15649   -938555.82046  21415941.3854   21415939.4714
       137.2984
 04  9  8 21 44 30.0020000  0  7G19G 3G 8G13G10G23G27
  -3947653.30548  -3075137.18443  23555842.6894   23555838.8424
      1255.2084
    356776.39847    276796.52743  23345503.3614   23345502.8774
      -999.2284
  -4787614.05149  -3723282.93045  22282398.6744   22282397.0724
      1410.9054
   3332314.60949   2589778.01647  20904908.1974   20904905.5924
     -1920.5204
  -1142395.74646   -885387.71142  24264025.9794   24264024.2134
      1125.8834
   9791389.04747   7608536.90644  23241405.6044   23241402.8304
     -3939.9434
  -1206107.47749   -940123.86347  21415558.8544   21415556.7094
       134.1554
 04  9  8 21 44 45.0020000  0  7G19G 3G 8G13G10G23G27
  -3966383.91448  -3089732.43744  23552277.7994   23552275.2644
      1248.7074
    371911.79747    288590.33643  23348383.7604   23348383.4794
     -1009.0274
  -4808727.82049  -3739735.20745  22278380.5494   22278378.8734
      1407.5854
   3361244.23448   2612320.57447  20910413.3464   20910410.7364
     -1928.6424
  -1159156.80146   -898448.23842  24260835.9004   24260834.3544
      1117.4044
   9850554.96147   7654640.16043  23252665.1894   23252661.4824
     -3944.3944
  -1208071.00849   -941653.88346  21415185.1824   21415182.9514
       130.9024
 04  9  8 21 45  0.0020000  0  7G19G 3G 8G13G10G23G27
  -3985015.45348  -3104250.47744  23548732.1504   23548730.1274
      1242.1034
    387195.30147    300499.57443  23351291.5024   23351291.7094
     -1018.9004
  -4829790.54749  -3756147.70345  22274372.2524   22274371.0104
      1404.1824
   3390296.89849   2634959.00846  20915941.8144   20915939.2174
     -1936.8444
  -1175789.29745   -911408.60542  24257670.0254   24257669.6584
      1108.8334
   9909788.63347   7700796.24643  23263936.8614   23263932.4554
     -3948.9114
  -1209984.54749   -943144.95746  21414820.8464   21414818.8544
       127.5694
 04  9  8 21 45 15.0020000  0  7G19G 3G 8G13G10G23G27
  -4003551.01247  -3118693.74243  23545204.8774   23545202.2094
      1235.7044
    402623.53148    312521.56643  23354227.4944   23354227.4634
     -1028.5494
  -4850805.47749  -3772522.96145  22270373.7524   22270372.3224
      1400.9954
   3419469.14149   2657690.60947  20921493.1194   20921490.3144
     -1944.8164
  -1192296.27346   -924271.17242  24254528.7134   24254528.8614
      1100.4654
   9969086.35547   7747002.23443  23275220.6354   23275215.9794
     -3953.1824
  -1211851.40649   -944599.64546  21414465.4324   21414463.2834
       124.4574
 04  9  8 21 45 30.0020000  0  7G19G 3G 8G13G10G23G27
  -4021988.07847  -3133060.27043  23541696.1044   23541693.8034
      1229.1384
    418198.62147    324657.98443  23357191.6044   23357190.8424
     -1038.3394
  -4871770.26249  -3788859.15245  22266384.1504   22266382.6824
      1397.6524
   3448762.98849   2680516.97746  20927067.5574   20927065.0334
     -1952.9234
  -1208675.31645   -937034.04742  24251412.6114   24251411.3574
      1091.9364
  10028450.14148   7793259.68843  23286517.6114   23286513.3114
     -3957.5864
  -1213669.49649   -946016.33646  21414119.5884   21414117.4634
       121.2064
 04  9  8 21 45 45.0020000  0  7G19G 3G 8G13G10G23G27
  -4040327.17648  -3147350.45343  23538206.7054   23538204.0334
      1222.6074
    433919.69947    336908.18043  23360182.8694   23360182.2134
     -1048.0724
  -4892686.03949  -3805157.14845  22262403.9714   22262402.8344
      1394.3854
   3478177.70749   2703437.52046  20932665.1194   20932662.5184
     -1960.9814
  -1224927.14545   -949697.79342  24248319.8304   24248318.2684
      1083.4554
  10087879.02047   7839567.87544  23297826.8074   23297822.6864
     -3961.9254
  -1215439.58249   -947395.61746  21413782.6894   21413780.4394
       118.0064
 04  9  8 21 46  0.0020000  0  7G19G 3G 8G13G10G23G27
  -4058567.15248  -3161563.40243  23534735.3774   23534732.3964
      1215.9984
    449787.63347    349272.81643  23363203.3224   23363202.1314
     -1057.8624
  -4913551.65249  -3821416.05145  22258433.0884   22258431.9084
      1391.0414
   3507714.00849   2726452.81647  20938285.2994   20938283.0614
     -1969.0874
  -1241050.74646   -962261.63342  24245251.9004   24245250.2714
      1074.9074
  10147373.50047   7885927.17644  23309148.1114   23309144.1784
     -3966.2994
  -1217160.83649   -948736.85246  21413455.1194   21413453.0964
       114.7504
 04  9  8 21 46 15.0020000  0  7G19G 3G 8G13G10G23G27
  -4076709.05148  -3175699.93743  23531283.6664   23531279.9984
      1209.4604
    465801.13748    361750.87143  23366250.1894   23366249.4754
     -1067.5674
  -4934368.40249  -3837636.89145  22254471.8614   22254470.1504
      1387.7834
   3537370.51249   2749561.76647  20943929.0644   20943926.8854
     -1977.1004
  -1257047.26246   -974726.43742  24242207.9164   24242206.5534
      1066.4344
  10206932.17247   7932336.50844  23320481.2684   23320478.6544
     -3970.5784
  -1218834.62149   -950041.10546  21413136.5024   21413134.6434
       111.5864
 04  9  8 21 46 30.0020000  0  7G19G 3G 8G13G10G23G27
  -4094750.53148  -3189758.20343  23527850.3694   23527847.3694
      1202.7654
    481962.23048    374343.93043  23369325.8464   23369324.6114
     -1077.4064
  -4955134.48849  -3853818.24645  22250520.2604   22250518.6394
      1384.4064
   3567149.25449   2772765.97346  20949595.5574   20949593.2054
     -1985.2494
  -1272914.52046   -987090.52042  24239188.4794   24239186.9474
      1057.8174
  10266556.84048   7978797.22744  23331827.8774   23331824.3574
     -3974.9784
  -1220458.89149   -951306.76646  21412827.7754   21412825.7134
       108.2854
 04  9  8 21 46 45.0020000  0  7G19G 3G 8G13G10G23G27
  -4112693.73448  -3203739.88743  23524435.9164   23524433.8144
      1196.2144
    498268.38348    387050.01643  23372428.7684   23372427.6394
     -1087.0774
  -4975852.34849  -3869962.00845  22246577.9634   22246576.3224
      1381.1914
   3597047.71549   2796063.46946  20955285.0884   20955282.5334
     -1993.2314
  -1288654.76646   -999355.61742  24236192.6974   24236191.2834
      1049.3504
  10326244.71948   8025307.21944  23343186.1824   23343182.9944
     -3979.1924
  -1222036.10949   -952535.77046  21412527.6744   21412525.2714
       105.1484
 04  9  8 21 47  0.0020000  0  8G19G 3G 8G13G10G28G23G27
  -4130536.65248  -3217643.42244  23521040.3224   23521037.9554
      1189.5284
    514721.48448    399870.62543  23375558.9864   23375558.6894
     -1096.8734
  -4996520.05949  -3886066.71945  22242645.1354   22242643.1824
      1377.8474
   3627067.68849   2819455.64846  20960997.5414   20960995.4754
     -2001.3324
  -1304265.99646  -1011520.17642  24233221.8614   24233220.4904
      1040.7494
    -98885.82457    -74369.13352  24728812.1974   24728812.6934

  10385997.60547   8071867.87543  23354556.7524   23354553.3034
     -3983.5264
  -1223564.53549   -953726.75446  21412236.8614   21412234.4324
       101.8954
 04  9  8 21 47 15.0020000  0  8G19G 3G 8G13G10G28G23G27
  -4148280.69147  -3231469.91443  23517663.4394   23517661.4044
      1182.9364
    531319.80548    412804.38343  23378717.9394   23378716.9364
     -1106.5554
  -5017139.12949  -3902133.51645  22238721.2914   22238719.5294
      1374.6054
   3657207.53149   2842941.22746  20966733.5184   20966730.9594
     -2009.3234
  -1319749.62546  -1023585.35242  24230275.8224   24230274.8144
      1032.2424
   -138273.66447   -105060.88342  24721317.1194   24721317.4164
      2625.8564
  10445813.48047   8118477.62543  23365939.3694   23365935.0534
     -3987.7254
  -1225045.72349   -954880.91846  21411954.6974   21411952.3734
        98.7464
 04  9  8 21 47 30.0020000  0  8G19G 3G 8G13G10G28G23G27
  -4165926.23048  -3245219.64844  23514305.7994   23514303.5924
      1176.3694
    548062.49647    425850.64843  23381903.6434   23381903.2174
     -1116.1794
  -5037710.34049  -3918163.02345  22234806.7754   22234804.9164
      1371.4144
   3687466.36349   2866519.52746  20972491.5574   20972489.0574
     -2017.2554
  -1335106.23047  -1035551.51642  24227353.8934   24227352.2324
      1023.7744
   -177626.59047   -135725.46142  24713828.5414   24713828.7484
      2623.5284
  10505691.41047   8165135.69943  23377333.4164   23377329.9634
     -3991.8624
  -1226480.51249   -955998.93746  21411681.5494   21411679.3034
        95.6534
 04  9  8 21 47 45.0020000  0  8G19G 3G 8G13G10G28G23G27
  -4183476.01648  -3258894.77744  23510966.3384   23510964.0374
      1169.9864
    564946.50048    439007.01243  23385116.8544   23385115.9754
     -1125.6004
  -5058236.64549  -3934157.53545  22230900.4634   22230899.1624
      1368.4204
   3717841.14849   2890188.17246  20978271.5724   20978268.7834
     -2024.9864
  -1350338.57046  -1047420.86742  24224454.8694   24224454.3814
      1015.4894
   -216947.43447   -166365.02042  24706345.8694   24706345.7834
      2621.3904
  10565628.06647   8211839.55943  23388738.9394   23388735.2914
     -3995.7774
  -1227871.87549   -957083.10946  21411416.8854   21411414.6584
        92.7584
 04  9  8 21 48  0.0020000  0  8G19G 3G 8G13G10G28G23G27
  -4200926.75847  -3272492.74243  23507644.9474   23507643.0064
      1163.3834
    581974.84448    452275.87143  23388357.2604   23388356.2174
     -1135.2234
  -5078715.16049  -3950114.81245  22227003.4474   22227002.1434
      1365.2344
   3748334.78949   2913949.44146  20984073.9474   20984071.5644
     -2032.9094
  -1365443.56646  -1059190.97742  24221580.7684   24221579.1704
      1007.0004
   -256233.14147   -196977.21942  24698870.1044   24698869.9514
      2619.0474
  10625626.43447   8258591.49243  23400156.5884   23400152.5844
     -3999.8914
  -1229216.84449   -958131.14846  21411160.9554   21411158.9084
        89.6654
 04  9  8 21 48 15.0020000  0  8G19G 3G 8G13G10G28G23G27
  -4218279.18447  -3286014.09443  23504342.9394   23504341.3144
      1156.8284
    599146.39548    465656.29343  23391624.8384   23391624.1314
     -1144.7704
  -5099146.92249  -3966035.64845  22223115.5024   22223114.1434
      1362.1174
   3778946.16049   2937802.44546  20989899.3934   20989896.5684
     -2040.7584
  -1380422.07847  -1070862.52042  24218730.2914   24218729.2094
       998.5674
   -295484.66447   -227562.76642  24691400.9394   24691400.9514
      2616.7684
  10685684.92247   8305390.26643  23411584.4474   23411581.9634
     -4003.8994
  -1230516.52349   -959143.87546  21410913.7444   21410911.3504
        86.6454
 04  9  8 21 48 30.0020000  0  8G19G 3G 8G13G10G28G23G27
  -4235532.16047  -3299457.94144  23501060.3074   23501058.5294
      1150.1984
    616462.02748    479148.99643  23394920.3224   23394919.4674
     -1154.3764
  -5119530.79749  -3981919.18445  22219236.4794   22219235.1544
      1358.9254
   3809676.04749   2961747.79746  20995746.8304   20995744.4674
     -2048.6594
  -1395273.07047  -1082434.70742  24215904.4004   24215902.7994
       990.0664
   -334700.84047   -258120.80142  24683938.4944   24683938.4864
      2614.4124
  10745804.38347   8352236.55143  23423025.8074   23423021.7684
     -4007.9644
  -1231770.03549   -960120.63346  21410675.1044   21410673.2134
        83.5674
 04  9  8 21 48 45.0020000  0  8G19G 3G 8G13G10G28G23G27
  -4252685.97747  -3312824.54743  23497795.8144   23497793.5884
      1143.5884
    633921.19948    492753.55543  23398242.3144   23398242.2054
     -1163.9454
  -5139867.78549  -3997766.18045  22215366.8384   22215364.9554
      1355.7994
   3840523.75449   2985784.96546  21001617.3304   21001614.5214
     -2056.5144
  -1409996.89147  -1093907.80942  24213101.9394   24213100.7954
       981.5884
   -373882.12147   -288651.59442  24676482.2994   24676482.5454
      2612.0854
  10805984.00847   8399129.73043  23434477.6434   23434474.7174
     -4011.9754
  -1232977.87949   -961061.81246  21410445.4164   21410443.2444
        80.5234
 04  9  8 21 49  0.0020000  0  8G19G 3G 8G13G10G28G23G27
  -4269740.28147  -3326113.57443  23494550.2834   23494548.0924
      1136.9544
    651523.92248    506469.94943  23401592.0644   23401591.4284
     -1173.5154
  -5160157.28949  -4013576.18045  22211505.7364   22211504.0214
      1352.6344
   3871489.27749   3009913.92646  21007509.7524   21007507.1274
     -2064.3684
  -1424593.31247  -1105281.61742  24210324.5884   24210322.9364
       973.0954
   -413028.28947   -319155.02742  24669032.5724   24669032.7174
      2609.7454
  10866223.63347   8446069.66043  23445941.2994   23445936.4714
     -4015.9754
  -1234140.02349   -961967.38346  21410224.0574   21410222.2014
        77.4764
 04  9  8 21 49 15.0020000  0  8G19G 3G 8G13G10G28G23G27
  -4286691.43047  -3339322.23043  23491324.6504   23491322.1974
      1130.0774
    669273.38748    520300.71543  23404969.3544   23404969.1824
     -1183.2984
  -5180396.16049  -4029346.71145  22207654.7604   22207653.1004
      1349.2584
   3902575.94949   3034137.30546  21013425.2684   21013422.5644
     -2072.4454
  -1439058.88346  -1116553.50042  24207571.7754   24207570.6934
       964.3714
   -452135.77046   -349628.32042  24661590.1504   24661590.6504
      2607.1654
  10926526.24247   8493058.67643  23457416.7134   23457412.5214
     -4020.1744
  -1235253.19149   -962834.78546  21410012.4944   21410010.1194
        74.2114
 04  9  8 21 49 30.0020000  0  8G19G 3G 8G13G10G28G23G27
  -4303540.66047  -3352451.48043  23488118.6354   23488115.5884
      1123.2824
    687167.98448    534244.56343  23408374.9554   23408374.4634
     -1192.9734
  -5200585.82849  -4045078.91845  22203812.5184   22203810.5764
      1345.9784
   3933782.26249   3058453.89846  21019363.6194   21019361.3854
     -2080.4214
  -1453394.83646  -1127724.35942  24204843.6354   24204843.2324
       955.7304
   -491205.92247   -380072.52742  24654155.5724   24654155.8074
      2604.6774
  10986890.12948   8540095.44543  23468902.9244   23468899.5884
     -4024.2594
  -1236318.90649   -963665.20746  21409809.8384   21409807.2254
        71.0484
 04  9  8 21 49 45.0020000  0  8G19G 3G 8G13G10G28G23G27
  -4320288.21947  -3365501.50443  23484930.9714   23484928.6894
      1116.5044
    705207.19548    548301.08643  23411807.3464   23411807.3384
     -1202.6144
  -5220727.04749  -4060773.36745  22199979.3544   22199978.1824
      1342.7484
   3965107.63749   3082863.26646  21025324.9944   21025322.3694
     -2088.3584
  -1467601.57045  -1138794.52042  24202140.4324   24202139.3344
       947.1164
   -530239.08247   -410487.93042  24646727.9324   24646728.2364
      2602.2114
  11047314.67648   8587179.47743  23480401.6434   23480397.5884
     -4028.3034
  -1237337.71949   -964459.09846  21409615.6824   21409613.7404
        67.9214
 04  9  8 21 50  0.0020000  0  8G19G 3G 8G13G10G28G23G27
  -4336932.30947  -3378470.90243  23481763.5884   23481761.3934
      1109.6064
    723392.59048    562471.52343  23415268.4084   23415268.3224
     -1212.3604
  -5240817.99649  -4076428.63745  22196156.3774   22196155.1434
      1339.3974
   3996553.64849   3107366.64146  21031308.7134   21031306.2644
     -2096.4014
  -1481677.39546  -1149762.66442  24199461.4164   24199460.5574
       938.3884
   -569233.64147   -440873.22342  24639307.1744   24639307.8894
      2599.6374
  11107801.21148   8634311.78143  23491911.9794   23491908.3544
     -4032.4364
  -1238307.88749   -965215.06246  21409431.0104   21409429.0454
        64.6784
 04  9  8 21 50 15.0020000  0  8G19G 3G 8G13G10G28G23G27
  -4353474.11747  -3391360.58243  23478615.8304   23478613.8344
      1102.7874
    741722.71948    576754.74243  23418756.3774   23418756.2054
     -1222.0094
  -5260860.10249  -4092045.84445  22192342.0574   22192341.4944
      1336.1404
   4028118.75049   3131962.81646  21037315.4864   21037312.9284
     -2104.3404
  -1495623.44545  -1160629.72742  24196807.8144   24196806.9904
       929.7374
   -608190.77346   -471229.36742  24631894.2214   24631893.9904
      2597.1424
  11168348.02747   8681491.07443  23503433.9714   23503430.8184
     -4036.4544
  -1239231.02049   -965934.38746  21409255.1584   21409253.2604
        61.5424
 04  9  8 21 50 30.0020000  0  8G19G 3G 8G13G10G28G23G27
  -4369913.09848  -3404170.16443  23475488.1434   23475485.4904
      1095.9324
    760197.66448    591150.80143  23422272.2684   23422271.5684
     -1231.6634
  -5280853.28549  -4107624.94945  22188537.8304   22188536.4474
      1332.8794
   4059802.96549   3156651.80546  21043344.6744   21043342.0254
     -2112.2814
  -1509439.48046  -1171395.45342  24194178.5574   24194177.4324
       921.0694
   -647110.21547   -501556.12542  24624487.7834   24624487.4864
      2594.6294
  11228954.94948   8728717.21143  23514966.2914   23514963.5334
     -4040.4614
  -1240106.97749   -966616.94546  21409088.3224   21409086.5924
        58.3974
 04  9  8 21 50 45.0020000  0  8G19G 3G 8G13G10G28G23G27
  -4386248.62947  -3416899.11743  23472379.7054   23472376.2324
      1089.0354
    778817.80148    605660.01243  23425815.5724   23425814.4554
     -1241.3424
  -5300797.07449  -4123165.55145  22184742.9794   22184741.4794
      1329.5864
   4091606.52049   3181433.78946  21049396.9324   21049394.1894
     -2120.2374
  -1523125.03946  -1182059.51242  24191574.6434   24191573.1584
       912.3714
   -685991.22747   -531852.97342  24617089.3144   24617088.9864
      2592.0674
  11289622.30147   8775990.42243  23526511.1584   23526509.2484
     -4044.4904
  -1240935.30949   -967262.40246  21408930.8384   21408929.2214
        55.2224
 04  9  8 21 51  0.0020000  0  8G19G 3G 8G13G10G28G23G27
  -4402481.48048  -3429548.07044  23469290.9944   23469287.8224
      1082.1904
    797581.82848    620281.34443  23429386.5574   23429385.1434
     -1250.9354
  -5320692.57049  -4138668.53145  22180956.7834   22180955.1394
      1326.3664
   4123528.29749   3206307.89146  21055471.3384   21055468.4044
     -2128.1184
  -1536680.98846  -1192622.57842  24188995.1114   24188993.8694
       903.7304
   -724834.82447   -562120.65242  24609697.4794   24609696.8344
      2589.5734
  11350348.77747   8823309.69943  23538066.1434   23538064.3964
     -4048.4324
  -1241717.21549   -967871.67646  21408781.9794   21408780.0254
        52.1274
 04  9  8 21 51 15.0020000  0  8G19G 3G 8G13G10G28G23G27
  -4418611.05548  -3442116.53543  23466221.3694   23466218.3184
      1075.3054
    816490.38348    635015.29743  23432984.4244   23432982.4864
     -1260.5704
  -5340539.14149  -4154133.39145  22177179.9084   22177178.4084
      1323.1054
   4155568.77049   3231274.48046  21061568.6744   21061565.9044
     -2136.0324
  -1550106.55946  -1203084.03142  24186439.6504   24186439.1974
       895.0384
   -763640.36747   -592358.69542  24602312.8934   24602312.1784
      2587.0364
  11411134.57447   8870675.18843  23549633.5964   23549631.5104
     -4052.3864
  -1242452.02049   -968444.25446  21408642.0574   21408640.3854
        48.9874
 04  9  8 21 51 30.0020000  0  8G19G 3G 8G13G10G28G23G27
  -4434635.44147  -3454603.06644  23463171.8224   23463168.9394
      1068.2924
    835544.82848    649862.91843  23436609.8614   23436609.4394
     -1270.2964
  -5360335.19949  -4169558.87945  22173413.1044   22173411.4674
      1319.7374
   4187729.40249   3256334.69946  21067688.4794   21067685.4904
     -2144.0424
  -1563400.16446  -1213442.68442  24183910.5024   24183909.4904
       886.2404
   -802406.26246   -622565.80942  24594935.7754   24594934.4864
      2584.3934
  11471981.00048   8918087.96543  23561212.2684   23561208.7644
     -4056.4284
  -1243138.29749   -968979.01246  21408511.6584   21408509.8694
        45.7524
 04  9  8 21 51 45.0020000  0  8G19G 3G 8G13G10G28G23G27
  -4450555.25847  -3467008.10244  23460142.0884   23460139.6434
      1061.3214
    854744.14848    664823.43443  23440262.9394   23440262.5964
     -1279.9554
  -5380081.88349  -4184945.89845  22169655.3144   22169653.8384
      1316.4464
   4220009.24649   3281487.80946  21073831.1354   21073828.2524
     -2151.9904
  -1576562.52346  -1223699.05142  24181405.9554   24181404.7174
       877.4914
   -841133.17247   -652742.54742  24587566.7754   24587565.6824
      2581.7944
  11532886.87548   8965547.03943  23572803.0804   23572800.0374
     -4060.3924
  -1243776.95349   -969476.66046  21408390.0104   21408388.1044
        42.5774
 04  9  8 21 52  0.0020000  0  8G19G 3G 8G13G10G28G23G27
  -4466368.25848  -3479329.89544  23457133.6504   23457130.6114
      1054.2004
    874090.25048    679898.33243  23443945.0574   23443944.7364
     -1289.7404
  -5399777.05149  -4200292.78145  22165907.4554   22165906.0804
      1313.0114
   4252410.07049   3306735.18846  21079997.0494   21079994.0724
     -2160.0554
  -1589591.47346  -1233851.47742  24178926.1504   24178924.7644
       868.5974
   -879818.93446   -682887.23842  24580205.2294   24580203.8654
      2579.0514
  11593853.93448   9013053.80143  23584405.2214   23584401.8074
     -4064.4714
  -1244366.07449   -969935.72346  21408277.9794   21408276.5024
        39.2754
 04  9  8 21 52 15.0020000  0  8G19G 3G 8G13G10G28G23G27
  -4482075.87547  -3491569.56244  23454143.8304   23454141.4714
      1047.1744
    893581.50848    695086.32443  23447654.1354   23447653.4514
     -1299.4174
  -5419422.48849  -4215600.91045  22162169.1664   22162167.5764
      1309.6964
   4284930.08249   3332075.44146  21086185.1744   21086182.5804
     -2168.0014
  -1602488.66445  -1243901.21542  24176472.2054   24176470.6934
       859.8134
   -918465.21547   -713001.16442  24572850.5964   24572849.6974
      2576.4194
  11654880.16448   9060606.67243  23596017.4244   23596014.9394
     -4068.4154
  -1244907.33649   -970357.47746  21408175.0884   21408172.9434
        36.0844
 04  9  8 21 52 30.0020000  0  8G19G 3G 8G13G10G28G23G27
  -4497676.00848  -3503725.49244  23451175.5804   23451173.0884
      1040.0094
    913219.47348    710388.64543  23451390.6974   23451390.0964
     -1309.1984
  -5439016.60249  -4230869.03545  22158440.5024   22158438.8734
      1306.2744
   4317570.98049   3357509.89546  21092396.7214   21092393.7294
     -2176.0604
  -1615252.14846  -1253846.78542  24174043.2604   24174041.0964
       850.8994
   -957070.00047   -743082.77342  24565503.9944   24565504.0614
      2573.6524
  11715967.06348   9108206.82443  23607641.6274   23607639.2014
     -4072.4604
  -1245399.10249   -970740.67246  21408081.0494   21408079.4394
        32.7844
 04  9  8 21 52 45.0020000  0  8G19G 3G 8G13G10G28G23G27
  -4513167.84847  -3515797.02344  23448227.1824   23448224.3264
      1032.7894
    933004.65647    725805.68443  23455156.1274   23455155.4164
     -1319.0124
  -5458558.60249  -4246096.57045  22154721.5574   22154720.1194
      1302.8004
   4350333.18849   3383038.88346  21098631.0024   21098628.4794
     -2184.1474
  -1627881.34846  -1263687.69542  24171640.2684   24171639.1274
       841.9474
   -995632.56247   -773131.44942  24558166.0494   24558165.9364
      2570.8384
  11777115.12547   9155854.60243  23619277.8074   23619275.0494
     -4076.5374
  -1245840.75049   -971084.81246  21407997.1824   21407995.2914
        29.4434
 04  9  8 21 53  0.0020000  0  8G19G 3G 8G13G10G28G23G27
  -4528553.51248  -3527785.84044  23445299.5724   23445297.0644
      1025.7114
    952934.88747    741335.73843  23458948.7994   23458947.6434
     -1328.6824
  -5478050.57849  -4261285.10945  22151012.5884   22151010.8774
      1299.4654
   4383214.45749   3408660.63746  21104888.0494   21104885.5144
     -2192.0854
  -1640378.16045  -1273425.45342  24169262.2604   24169260.3734
       833.1214
  -1034155.02347   -803148.89542  24550835.6664   24550834.7214
      2568.1644
  11838321.64148   9203547.93843  23630925.1744   23630922.3614
     -4080.4344
  -1246234.52049   -971391.64546  21407922.5804   21407920.6194
        26.2514
 04  9  8 21 53 15.0020000  0  8G19G 3G 8G13G10G28G23G27
  -4543830.91448  -3539690.28144  23442392.5804   23442390.2134
      1018.4934
    973011.77048    756980.07043  23462768.7914   23462768.3034
     -1338.4594
  -5497490.85549  -4276433.37545  22147313.2134   22147311.5644
      1296.0184
   4416216.63749   3434376.60946  21111167.9944   21111165.3894
     -2200.1454
  -1652740.72346  -1283058.60242  24166909.3384   24166907.5294
       824.1714
  -1072635.35247   -833133.51642  24543513.3384   24543512.4794
      2565.3554
  11899588.29348   9251288.16043  23642583.4944   23642580.7564
     -4084.4434
  -1246578.72749   -971659.85946  21407857.0964   21407855.0724
        22.9474
 04  9  8 21 53 30.0020000  0  8G19G 3G 8G13G10G28G23G27
  -4559002.71947  -3551512.44543  23439505.3074   23439502.7404
      1011.4544
    993232.12547    772736.18843  23466616.9864   23466616.3814
     -1348.0244
  -5516882.37949  -4291543.64545  22143623.2684   22143621.5574
      1292.7684
   4449336.53949   3460184.31346  21117470.7994   21117468.1504
     -2207.9934
  -1664971.80146  -1292589.32442  24164581.7524   24164580.0454
       815.4054
  -1111076.54347   -863087.62542  24536197.4394   24536196.9634
      2562.7464
  11960911.91848   9299072.73443  23654253.5024   23654250.4984
     -4088.2424
  -1246876.14549   -971891.60946  21407800.3144   21407798.1394
        19.8284
 04  9  8 21 53 45.0020000  0  8G19G 3G 8G13G10G28G23G27
  -4574069.35247  -3563252.65243  23436638.3774   23436635.0724
      1004.4424
   1013595.44947    788603.72343  23470491.7444   23470491.4244
     -1357.5554
  -5536225.57449  -4306616.25045  22139942.1504   22139940.5494
      1289.5464
   4482573.41049   3486083.16046  21123795.4794   21123792.7174
     -2215.7914
  -1677071.82446  -1302017.88742  24162279.6584   24162277.6864
       806.6684
  -1149478.86347   -893011.46942  24528890.4714   24528889.7994
      2560.1554
  12022291.69948   9346901.10943  23665933.6114   23665930.6894
     -4091.9854
  -1247127.50449   -972087.47346  21407752.3224   21407750.4554
        16.7574
 04  9  8 21 54  0.0020000  0  8G19G 3G 8G13G10G28G23G27
  -4589027.33248  -3574908.19944  23433792.2054   23433788.2914
       997.1994
   1034104.73448    804584.99643  23474395.1584   23474393.7524
     -1367.2864
  -5555517.44949  -4321648.87145  22136270.7214   22136269.4754
      1286.1254
   4515930.41849   3512075.62546  21130143.1504   21130140.4794
     -2223.8014
  -1689037.57845  -1311341.86342  24160002.1894   24160000.8854
       797.7174
  -1187839.10546   -922902.50042  24521589.4394   24521590.6234
      2557.3494
  12083730.51648   9394775.48043  23677625.1434   23677622.3964
     -4095.9214
  -1247329.60549   -972244.95746  21407714.0024   21407712.0964
        13.4734
 04  9  8 21 54 15.0020000  0  8G19G 3G 8G13G10G28G23G27
  -4603877.05148  -3586479.39144  23430966.0574   23430963.1704
       989.9814
   1054759.21548    820679.39843  23478324.5644   23478324.8144
     -1376.9654
  -5574758.71549  -4336642.05945  22132609.6504   22132608.0534
      1282.7514
   4549406.65249   3538160.98047  21136513.2294   21136510.9204
     -2231.7494
  -1700869.47746  -1320561.50842  24157750.6894   24157749.2054
       788.7934
  -1226157.85947   -952761.23042  24514298.5414   24514298.0804
      2554.5844
  12145227.37547   9442695.05543  23689327.4864   23689325.1044
     -4099.7914
  -1247483.19949   -972364.63746  21407684.8304   21407682.8384
        10.2404
 04  9  8 21 54 30.0020000  0  8G19G 3G 8G13G10G28G23G27
  -4618617.53948  -3597965.46144  23428161.3144   23428157.9394
       982.6994
   1075559.48447    836887.40643  23482282.9714   23482282.8464
     -1386.6854
  -5593948.43749  -4351595.07845  22128957.7914   22128955.9944
      1279.3154
   4583002.78549   3564339.77746  21142906.9084   21142904.1314
     -2239.7424
  -1712566.73446  -1329676.25042  24155524.6974   24155523.8264
       779.8174
  -1264434.05947   -982586.80942  24507013.9794   24507014.2754
      2551.7474
  12206782.80948   9490660.26243  23701041.4164   23701039.1004
     -4103.6964
  -1247587.55149   -972445.94546  21407665.1194   21407662.7484
         6.9574
 04  9  8 21 54 45.0020000  0  8G19G 3G 8G13G10G28G23G27
  -4633250.08647  -3609367.41444  23425376.4004   23425373.9324
       975.5034
   1096504.13347    853207.91443  23486268.5724   23486268.6234
     -1396.3104
  -5613088.29749  -4366509.24645  22125315.8074   22125313.8934
      1275.9914
   4616717.30549   3590610.80946  21149322.3074   21149319.9474
     -2247.6354
  -1724130.60546  -1338687.05942  24153323.5024   24153323.5494
       770.9254
  -1302669.17247  -1012380.34842  24499738.2604   24499738.8264
      2549.0084
  12268395.16048   9538669.84443  23712765.0414   23712763.4324
     -4107.4904
  -1247644.27749   -972490.14847  21407654.0024   21407652.1154
         3.7824
 04  9  8 21 55  0.0020000  0  8G19G 3G 8G13G10G28G23G27
  -4647776.26247  -3620686.48444  23422612.3774   23422609.7524
       968.4124
   1117591.09047    869639.31643  23490281.5964   23490280.8964
     -1405.7974
  -5632180.11349  -4381385.97345  22121682.5574   22121680.5414
      1272.7884
   4650548.30949   3616972.61346  21155759.8544   21155757.6664
     -2255.4004
  -1735562.91046  -1347595.34442  24151148.9164   24151147.2524
       762.1544
  -1340864.75047  -1042143.08642  24492470.1274   24492470.3034
      2546.3724
  12330062.25448   9586722.06643  23724501.0964   23724498.6394
     -4111.1404
  -1247655.05549   -972498.54746  21407651.4394   21407650.0614
         0.7184
 04  9  8 21 55 15.0020000  0  8G19G 3G 8G13G10G28G23G27
  -4662194.95748  -3631921.82844  23419868.8774   23419865.5024
       961.2464
   1138821.19547    886182.25043  23494321.5414   23494320.6354
     -1415.3404
  -5651222.78949  -4396224.41045  22118058.9714   22118057.3574
      1269.5124
   4684496.49249   3643425.73046  21162220.2914   21162217.7174
     -2263.2124
  -1746862.66046  -1356400.35242  24148998.5964   24148996.9514
       753.3174
  -1379019.84847  -1071874.32042  24485209.6274   24485208.9554
      2543.6734
  12391784.72748   9634817.43843  23736246.4944   23736243.7794
     -4114.8324
  -1247619.05149   -972470.49646  21407659.3694   21407657.1624
        -2.4004
 04  9  8 21 55 30.0020000  0  8G19G 3G 8G13G10G28G23G27
  -4676505.08248  -3643072.55944  23417145.2914   23417141.9474
       954.0084
   1160195.31647    902837.41443  23498388.9714   23498388.0884
     -1424.9414
  -5670215.48849  -4411023.90245  22114444.8144   22114442.8854
      1266.1804
   4718562.69149   3669970.81347  21168702.6744   21168700.3304
     -2271.0804
  -1758028.82846  -1365101.23442  24146872.9474   24146872.0644
       744.4114
  -1417133.43747  -1101573.13342  24477956.4554   24477957.8694
      2540.9064
  12453563.14148   9682956.43843  23748002.2364   23747998.9364
     -4118.5614
  -1247535.41049   -972405.32046  21407674.6044   21407672.8224
        -5.5764
 04  9  8 21 55 45.0020000  0  8G19G 3G 8G13G10G28G23G27
  -4690705.14148  -3654137.50844  23414443.4714   23414439.4204
       946.6714
   1181714.40248    919605.53143  23502484.0804   23502483.1704
     -1434.6064
  -5689157.09049  -4425783.58645  22110840.0644   22110838.4434
      1262.7734
   4752747.78549   3696608.53946  21175207.9164   21175205.3814
     -2279.0064
  -1769060.15645  -1373697.06242  24144773.9324   24144773.2604
       735.4224
  -1455204.24647  -1131238.68042  24470712.1044   24470711.0294
      2538.0544
  12515398.46548   9731139.77043  23759769.2294   23759765.5374
     -4122.3554
  -1247403.08649   -972302.20746  21407699.7834   21407697.9714
        -8.8224
 04  9  8 21 56  0.0020000  0  8G19G 3G 8G13G10G28G23G27
  -4704794.86747  -3665116.50044  23411762.1194   23411758.8424
       939.3154
   1203378.46147    936486.60943  23506605.8074   23506605.9984
     -1444.2714
  -5708047.67249  -4440503.49645  22107245.5644   22107243.4824
      1259.3724
   4787051.89149   3723338.99646  21181735.8544   21181733.2014
     -2286.9404
  -1779956.32446  -1382187.58642  24142700.7684   24142699.5644
       726.4114
  -1493232.10247  -1160870.72342  24463475.7054   24463475.4474
      2535.1904
  12577290.52048   9779367.32443  23771546.4244   23771543.4044
     -4126.1374
  -1247221.98449   -972161.08646  21407734.5184   21407732.3734
       -12.0734
 04  9  8 21 56 15.0020000  0  8G19G 3G 8G13G10G28G23G27
  -4718774.48447  -3676009.68744  23409101.5804   23409098.6864
       931.9744
   1225186.89847    953480.18843  23510755.8934   23510756.3464
     -1453.8964
  -5726887.66849  -4455184.00845  22103660.0574   22103658.2254
      1256.0004
   4821474.37549   3750161.69146  21188286.2364   21188283.8774
     -2294.8324
  -1790717.82846  -1390573.13742  24140652.8694   24140651.2134
       717.4344
  -1531217.29347  -1190469.51642  24456247.5184   24456247.6114
      2532.3464
  12639238.47747   9827638.40643  23783334.7524   23783332.3184
     -4129.8644
  -1246992.59449   -971982.34046  21407778.0574   21407776.1154
       -15.2934
 04  9  8 21 56 30.0020000  0  8G19G 3G 8G13G10G28G23G27
  -4732644.93448  -3686817.81244  23406462.3304   23406458.9674
       924.6974
   1247138.43447    970585.28943  23514933.3934   23514932.9204
     -1463.4364
  -5745678.08649  -4469825.87145  22100084.4244   22100082.8304
      1252.6954
   4856013.93849   3777075.62146  21194858.7834   21194856.1894
     -2302.6374
  -1801345.68745  -1398854.58242  24138630.3074   24138629.2524
       708.5244
  -1569160.96547  -1220035.98442  24449027.0184   24449026.2994
      2529.5784
  12701241.02747   9875952.04343  23795133.9084   23795131.1044
     -4133.5034
  -1246716.09449   -971766.88346  21407830.6664   21407828.7564
       -18.4334
 04  9  8 21 56 45.0020000  0  8G19G 3G 8G13G10G28G23G27
  -4746406.81247  -3697541.33244  23403843.8614   23403840.2954
       917.4594
   1269232.17647    987801.17243  23519137.7134   23519137.5294
     -1472.9164
  -5764419.69149  -4484429.71145  22096517.8304   22096516.6114
      1249.4404
   4890669.68449   3804080.08646  21201453.8854   21201451.1504
     -2310.3834
  -1811840.53146  -1407032.37542  24136633.2364   24136632.3694
       699.6564
  -1607063.56247  -1249570.44542  24441814.1194   24441813.3854
      2526.8404
  12763297.14847   9924307.42243  23806942.7754   23806940.4124
     -4137.0754
  -1246393.25849   -971515.31646  21407892.2214   21407890.0764
       -21.5224
 04  9  8 21 57  0.0020000  0  8G19G 3G 8G13G10G28G23G27
  -4760057.94548  -3708178.56644  23401245.8854   23401242.8654
       910.0764
   1291470.00047   1005129.35943  23523369.3614   23523369.8384
     -1482.5224
  -5783110.61749  -4498994.05545  22092961.0724   22092959.9004
      1246.0624
   4925443.45749   3831176.51646  21208070.9244   21208068.7214
     -2318.2524
  -1822200.32446  -1415104.93442  24134661.6894   24134660.9324
       690.6534
  -1644923.14147  -1279071.35242  24434609.6824   24434609.3464
      2523.9724
  12825408.45747   9972705.75443  23818762.5884   23818760.0804
     -4140.7544
  -1246022.18049   -971226.16846  21407962.9324   21407960.9514
       -24.7394
 04  9  8 21 57 15.0020000  0  8G19G 3G 8G13G10G28G23G27
  -4773598.67248  -3718729.75443  23398669.0254   23398666.2874
       902.7154
   1313851.06648   1022569.14143  23527628.5104   23527628.3964
     -1492.0714
  -5801751.64849  -4513519.52045  22089414.0024   22089412.2604
      1242.7354
   4960334.44949   3858364.28546  21214710.2994   21214708.1824
     -2326.0664
  -1832425.74246  -1423072.78542  24132715.9084   24132715.1504
       681.6954
  -1682740.21947  -1308539.15642  24427413.2914   24427412.5254
      2521.1394
  12887573.97347  10021146.37543  23830591.9474   23830589.4944
     -4144.3684
  -1245603.68049   -970900.06646  21408042.6664   21408040.6704
       -27.9004
 04  9  8 21 57 30.0020000  0  8G19G 3G 8G13G10G28G23G27
  -4787029.61747  -3729195.40643  23396112.9084   23396109.7134
       895.3964
   1336374.44147   1040119.82443  23531914.6274   23531913.5644
     -1501.5584
  -5820343.50849  -4528006.67245  22085875.9394   22085874.2134
      1239.4574
   4995341.71549   3885642.66446  21221372.0254   21221369.5924
     -2333.8184
  -1842517.30946  -1430936.34042  24130795.8934   24130794.6864
       672.7714
  -1720515.46946  -1337974.37142  24420224.5414   24420224.3574
      2518.3504
  12949792.62148  10069628.39143  23842432.0724   23842429.2214
     -4147.9104
  -1245138.44949   -970537.55146  21408131.0334   21408129.1154
       -31.0154
 04  9  8 21 57 45.0020000  0  8G19G 3G 8G13G10G28G23G27
  -4800349.64847  -3739574.63344  23393578.3614   23393574.9984
       888.0024
   1359040.91448   1057782.01243  23536228.2834   23536226.5724
     -1511.0984
  -5838885.25049  -4542454.77345  22082347.6354   22082346.2954
      1236.1164
   5030466.17649   3913012.35946  21228055.9004   21228053.5884
     -2341.6314
  -1852474.03946  -1438694.83242  24128901.2134   24128899.5414
       663.7824
  -1758247.86346  -1367376.17642  24413043.8384   24413043.9474
      2515.4934
  13012065.14147  10118152.39143  23854281.8544   23854279.2524
     -4151.5014
  -1244625.60949   -970137.93446  21408228.7754   21408226.4864
       -34.1894
 04  9  8 21 58  0.0020000  0  8G19G 3G 8G13G10G28G23G27
  -4813558.89547  -3749867.53544  23391064.6354   23391061.4394
       880.6164
   1381849.93847   1075555.28543  23540568.2524   23540567.2094
     -1520.6024
  -5857377.30949  -4556864.16445  22078828.9634   22078827.1824
      1232.8044
   5065707.35949   3940473.00846  21234762.2444   21234759.9474
     -2349.4124
  -1862296.16846  -1446348.43442  24127032.5184   24127031.1784
       654.8094
  -1795937.64547  -1396744.80942  24405872.3304   24405871.2994
      2512.6524
  13074390.81647  10166717.81342  23866142.2684   23866139.5924
     -4155.0454
  -1244065.61349   -969701.56646  21408335.2364   21408333.2254
       -37.3334
 04  9  8 21 58 15.0020000  0  8G19G 3G 8G13G10G28G23G27
  -4826657.05547  -3760073.87144  23388572.2364   23388568.6354
       873.2114
   1404801.45348   1093439.58243  23544935.8074   23544934.6744
     -1530.1014
  -5875819.54749  -4571234.72345  22075319.4634   22075317.8424
      1229.4834
   5101064.98049   3968024.39146  21241490.7834   21241488.2714
     -2357.1754
  -1871983.55446  -1453897.08242  24125188.5884   24125187.2874
       645.8264
  -1833584.53947  -1426079.98842  24398708.1974   24398706.8934
      2509.7934
  13136769.51647  10215324.53943  23878012.6974   23878010.0644
     -4158.5804
  -1243458.42649   -969228.43447  21408450.8774   21408448.5334
       -40.4794
 04  9  8 21 58 30.0020000  0  8G19G 3G 8G13G10G28G23G27
  -4839643.10248  -3770192.84844  23386100.8774   23386097.5254
       865.7364
   1427896.37548   1111435.62943  23549330.7294   23549329.0374
     -1539.6614
  -5894210.81249  -4585565.55945  22071819.5494   22071818.0414
      1226.0844
   5136539.98849   3995667.23846  21248241.0644   21248238.5684
     -2365.0014
  -1881535.23445  -1461339.89842  24123371.1354   24123370.1464
       636.7794
  -1871187.38347  -1455380.86742  24391552.4634   24391551.8264
      2506.8564
  13199201.94147  10263973.12543  23889892.6974   23889891.3654
     -4162.1624
  -1242803.11749   -968717.80146  21408575.4864   21408573.2754
       -43.6874
 04  9  8 21 58 45.0020000  0  8G19G 3G 8G13G10G28G23G27
  -4852517.27348  -3780224.65644  23383651.5024   23383648.3774
       858.2784
   1451133.89148   1129542.78143  23553752.8544   23553751.2294
     -1549.1684
  -5912552.17649  -4599857.52345  22068329.3934   22068327.8734
      1222.7584
   5172131.46549   4023400.84846  21255014.3224   21255011.8264
     -2372.7654
  -1890951.71146  -1468677.41042  24121579.4164   24121578.1274
       627.7654
  -1908746.89847  -1484647.95742  24384405.4004   24384404.6584
      2503.9684
  13261687.19547  10312662.86343  23901784.0254   23901781.6784
     -4165.6844
  -1242100.19949   -968170.07446  21408709.1974   21408707.2054
       -46.8614
 04  9  8 21 59  0.0020000  0  8G19G 3G 8G13G10G28G23G27
  -4865278.51648  -3790168.45744  23381222.7214   23381219.6044
       850.7494
   1474514.81348   1147761.66843  23558201.9084   23558200.9204
     -1558.7284
  -5930842.49249  -4614109.70745  22064848.9394   22064847.0614
      1219.3544
   5207840.23449   4051225.84846  21261809.3304   21261806.8424
     -2380.5854
  -1900232.05546  -1475908.83242  24119812.8544   24119812.1974
       618.6904
  -1946261.93447  -1513880.41042  24377266.4324   24377265.5024
      2501.0024
  13324225.66848  10361394.09443  23913684.5574   23913682.5924
     -4169.2324
  -1241349.07449   -967584.77346  21408852.4944   21408850.2914
       -50.0754
 04  9  8 21 59 15.0020000  0  8G19G 3G 8G13G10G28G23G27
  -4877927.63748  -3800024.89144  23378815.9794   23378812.5454
       843.2754
   1498037.99648   1166091.42643  23562678.6824   23562677.6074
     -1568.2124
  -5949082.89549  -4628323.00045  22061378.0574   22061376.0454
      1216.0274
   5243665.14549   4079141.34046  21268626.7604   21268624.0104
     -2388.3274
  -1909377.12946  -1483034.85242  24118073.2364   24118071.6824
       609.6724
  -1983733.48047  -1543078.97742  24370135.9864   24370134.9714
      2498.1034
  13386816.29347  10410165.95343  23925594.8384   23925592.2874
     -4172.7084
  -1240550.57849   -966962.56646  21409003.9634   21409002.3304
       -53.2334
 04  9  8 21 59 30.0020000  0  8G19G 3G 8G13G10G28G23G27
  -4890462.97748  -3809792.65644  23376430.1504   23376426.9824
       835.6894
   1521704.80948   1184533.09443  23567182.2914   23567181.6044
     -1577.7874
  -5967271.75449  -4642496.12145  22057916.6354   22057915.1464
      1212.5914
   5279607.80949   4107148.60246  21275466.1354   21275463.6274
     -2396.1784
  -1918385.18046  -1490054.11342  24116358.8614   24116357.7254
       600.5374
  -2021159.74247  -1572242.23842  24363013.5414   24363012.3384
      2495.0844
  13449460.28147  10458979.38743  23937515.7294   23937513.7324
     -4176.2664
  -1239703.32049   -966302.36746  21409164.9794   21409163.3574
       -56.4844
 04  9  8 21 59 45.0020000  0  8G19G 3G 8G13G10G28G23G27
  -4902884.91848  -3819472.07444  23374066.4084   23374063.4674
       828.1294
   1545514.35548   1203085.98843  23571712.8464   23571711.6824
     -1587.3034
  -5985409.84849  -4656629.68445  22054465.1974   22054463.7524
      1209.2064
   5315667.09449   4135246.72346  21282328.3544   21282325.6824
     -2403.9524
  -1927256.96946  -1496967.18742  24114669.9554   24114669.5024
       591.4534
  -2058541.40647  -1601370.77042  24355900.4944   24355899.3034
      2492.1114
  13512156.60547  10507833.62542  23949445.0644   23949443.2134
     -4179.7554
  -1238807.96549   -965604.68746  21409335.5884   21409333.5534
       -59.6904
 04  9  8 22  0  0.0020000  0  8G19G 3G 8G13G10G28G23G27
  -4915194.36348  -3829063.83244  23371724.1504   23371721.0494
       820.6304
   1569465.44548   1221749.17243  23576270.8224   23576269.3504
     -1596.7394
  -6003498.10949  -4670724.43045  22051022.9004   22051021.0684
      1205.8844
   5351841.93849   4163434.90646  21289211.9794   21289209.4434
     -2411.6564
  -1935993.32446  -1503774.72342  24113007.5104   24113007.0184
       582.4244
  -2095879.32447  -1630465.21142  24348795.0494   24348795.1464
      2489.1954
  13574904.07047  10556727.71142  23961386.2214   23961384.1194
     -4183.1644
  -1237865.57849   -964870.35946  21409515.1584   21409512.9044
       -62.8264
 04  9  8 22  0 15.0020000  0  8G19G 3G 8G13G10G28G23G27
  -4927390.14548  -3838567.02744  23369403.6354   23369400.4044
       813.0524
   1593558.87548   1240523.24643  23580855.7134   23580854.4244
     -1606.2294
  -6021535.71149  -4684779.68745  22047590.4634   22047588.8854
      1202.5074
   5388133.27349   4191713.85546  21296117.7134   21296115.5254
     -2419.4224
  -1944593.30146  -1510475.99242  24111371.1114   24111370.4824
       573.3324
  -2133172.55547  -1659524.80142  24341697.9634   24341698.0454
      2486.2154
  13637703.21147  10605662.08242  23973336.8464   23973333.9324
     -4186.6094
  -1236875.36349   -964098.76246  21409703.5334   21409701.2484
       -66.0144
 04  9  8 22  0 30.0020000  0  8G19G 3G 8G13G10G28G23G27
  -4939472.09448  -3847981.51244  23367103.4864   23367101.2444
       805.4634
   1617794.43447   1259408.10243  23585467.0574   23585466.4364
     -1615.7044
  -6039522.81649  -4698795.60245  22044167.4794   22044166.0574
      1199.1404
   5424540.78149   4220083.31646  21303046.3464   21303043.5294
     -2427.1674
  -1953056.90646  -1517071.00842  24109760.4944   24109760.2524
       564.2404
  -2170420.98847  -1688549.52743  24334610.3224   24334609.8504
      2483.2294
  13700553.64147  10654636.37942  23985297.6274   23985293.9324
     -4190.0294
  -1235837.37149   -963289.93746  21409900.8614   21409898.8894
       -69.1994
 04  9  8 22  0 45.0020000  0  8G19G 3G 8G13G10G28G23G27
  -4951441.74648  -3857308.48444  23364826.3464   23364823.4944
       797.9774
   1642170.23847   1278402.23043  23590105.7684   23590105.2094
     -1625.0544
  -6057460.96949  -4712773.36745  22040754.0254   22040752.3894
      1195.8774
   5461062.33249   4248541.66046  21309996.1894   21309993.5724
     -2434.7704
  -1961385.72346  -1523560.99242  24108176.1194   24108174.6824
       555.2544
  -2207626.30147  -1717540.64842  24327530.5254   24327528.8544
      2480.3544
  13763453.44947  10703649.18843  23997266.3614   23997264.3964
     -4193.3214
  -1234753.30149   -962445.20346  21410107.3614   21410105.1934
       -72.2714
 04  9  8 22  1  0.0020000  0  8G19G 3G 8G13G10G28G23G27
  -4963295.19948  -3866544.93444  23362570.9394   23362567.9864
       790.2304
   1666689.93848   1297508.47743  23594771.7914   23594771.5964
     -1634.6474
  -6075346.71149  -4726710.30145  22037350.5494   22037348.6074
      1192.3834
   5497701.68849   4277091.79346  21316968.2834   21316965.6584
     -2442.6244
  -1969576.05545  -1529943.06242  24106617.0184   24106615.7134
       546.0224
  -2244784.58247  -1746495.11742  24320459.7444   24320458.2644
      2477.2194
  13826405.96147  10752703.04343  24009245.9004   24009244.1354
     -4196.8344
  -1233619.52349   -961561.74647  21410323.2604   21410321.2404
       -75.5854
 04  9  8 22  1 15.0020000  0  8G19G 3G 8G13G10G28G23G27
  -4975036.40648  -3875693.89844  23360336.5724   23360333.6974
       782.7474
   1691349.29347   1316723.55143  23599463.5724   23599463.8384
     -1643.9574
  -6093184.04749  -4740609.51645  22033956.2294   22033954.1464
      1189.1564
   5534454.71149   4305730.49646  21323961.9084   21323959.7214
     -2450.2024
  -1977631.91846  -1536220.34042  24105084.1274   24105082.6074
       537.0584
  -2281899.76647  -1775415.99242  24313397.0964   24313395.6154
      2474.3464
  13889406.88747  10801794.63343  24021234.8694   24021232.5614
     -4200.0624
  -1232440.16849   -960642.76247  21410547.5254   21410545.5924
       -78.6244
 04  9  8 22  1 30.0020000  0  8G19G 3G 8G13G10G28G23G27
  -4986662.47748  -3884753.15644  23358123.8464   23358121.1044
       775.0714
   1716150.58647   1336049.21142  23604183.7914   23604183.0104
     -1653.4204
  -6110970.37549  -4754468.97345  22030571.5494   22030569.3504
      1185.7554
   5571323.80149   4334459.64546  21330978.0574   21330975.6824
     -2457.9394
  -1985550.55947  -1542390.68742  24103577.7604   24103575.7054
       527.9094
  -2318969.25447  -1804301.29342  24306342.6274   24306341.0764
      2471.2994
  13952458.56647  10850925.74643  24033233.3384   24033231.5334
     -4203.4454
  -1231212.66049   -959686.25846  21410781.0184   21410779.2794
       -81.8344
 04  9  8 22  1 45.0020000  0  8G19G 3G 8G13G10G28G23G27
  -4998174.53148  -3893723.57444  23355933.0724   23355930.2874
       767.4704
   1741092.34847   1355484.36343  23608930.0184   23608928.7644
     -1662.7844
  -6128706.97349  -4768289.70345  22027196.7524   22027194.4794
      1182.4404
   5608307.44949   4363278.05146  21338015.9554   21338013.2484
     -2465.5774
  -1993333.22346  -1548455.12942  24102097.1504   24102094.8144
       518.8444
  -2355994.27747  -1833151.90642  24299297.1584   24299295.3694
      2468.3354
  14015559.26247  10900095.06343  24045241.0184   24045239.4004
     -4206.7134
  -1229938.37949   -958693.31246  21411023.7294   21411021.5644
       -84.9524
 04  9  8 22  2  0.0020000  0  8G19G 3G 8G13G10G28G23G27
  -5009569.46547  -3902602.71944  23353764.9164   23353761.8614
       759.6624
   1766177.40647   1375031.14843  23613703.3304   23613702.5024
     -1672.3374
  -6146391.05149  -4782069.48445  22023831.2054   22023829.3074
      1178.9394
   5645408.36349   4392187.83646  21345076.0024   21345073.5964
     -2473.3944
  -2000976.98846  -1554411.31642  24100642.1044   24100640.6974
       509.5844
  -2392971.71947  -1861965.45342  24292259.8614   24292258.7754
      2465.1634
  14078711.69947  10949304.68843  24057258.3544   24057256.2834
     -4210.1624
  -1228614.41849   -957661.65246  21411275.1114   21411273.5064
       -88.2644
 04  9  8 22  2 15.0020000  0  8G19G 3G 8G13G10G28G23G27
  -5020849.52748  -3911392.35244  23351618.0804   23351615.2214
       752.0044
   1791403.21948   1394687.61743  23618504.0184   23618502.7324
     -1681.7214
  -6164024.85249  -4795810.10545  22020475.6434   22020473.7444
      1175.5874
   5682624.01249   4421187.02346  21352157.6354   21352155.3694
     -2481.0434
  -2008484.24646  -1560261.10242  24099212.9944   24099212.3424
       500.4844
  -2429903.88347  -1890743.74242  24285232.3224   24285231.5724
      2462.1444
  14141913.16448  10998552.54343  24069285.5644   24069282.7754
     -4213.4314
  -1227243.18749   -956593.16046  21411536.3384   21411534.3114
       -91.4154
 04  9  8 22  2 30.0020000  0  8G19G 3G 8G13G10G28G23G27
  -5032012.58248  -3920090.82044  23349494.4324   23349491.1894
       744.2044
   1816771.57847   1414455.16043  23623331.1434   23623330.4324
     -1691.2244
  -6181606.60949  -4809510.17245  22017130.0254   22017128.0884
      1172.1174
   5719956.20749   4450277.03146  21359261.9474   21359259.2134
     -2488.8134
  -2015852.90646  -1566002.91442  24097811.0254   24097810.1744
       491.2444
  -2466788.68747  -1919485.09842  24278213.1894   24278212.3854
      2458.9874
  14205165.41847  11047839.96943  24081321.7994   24081320.4594
     -4216.8174
  -1225822.83649   -955486.39146  21411806.5334   21411804.8544
       -94.6904
 04  9  8 22  2 45.0020000  0  8G19G 3G 8G13G10G28G23G27
  -5043059.29748  -3928698.63744  23347391.8304   23347389.0454
       736.4484
   1842281.44948   1434332.98043  23628185.9474   23628184.9754
     -1700.6584
  -6199137.03549  -4823170.23445  22013794.0964   22013792.4554
      1168.6954
   5757403.93049   4479457.06346  21366387.7834   21366385.5214
     -2496.5154
  -2023083.67645  -1571637.26242  24096434.8464   24096433.7604
       482.0514
  -2503626.96147  -1948190.21542  24271203.2604   24271201.8464
      2455.8854
  14268467.24247  11097166.01243  24093368.2834   24093365.8734
     -4220.1224
  -1224354.26649   -954342.05946  21412086.1044   21412084.0024
       -97.9054
 04  9  8 22  3  0.0020000  0  8G19G 3G 8G13G10G28G23G27
  -5053989.32448  -3937215.53944  23345312.1354   23345308.5374
       728.6684
   1867932.67248   1454320.94543  23633066.6504   23633066.1354
     -1710.0824
  -6216616.02749  -4836790.22345  22010467.7834   22010466.1544
      1165.2664
   5794967.06649   4508727.02346  21373536.3614   21373533.7564
     -2504.2094
  -2030176.55546  -1577164.17642  24095085.0884   24095084.4324
       472.8594
  -2540418.40647  -1976858.84042  24264202.1664   24264200.9794
      2452.7634
  14331818.41047  11146530.50442  24105423.2294   24105421.1744
     -4223.4114
  -1222837.32049   -953160.02046  21412374.8774   21412372.8144
      -101.1304
 04  9  8 22  3 15.0020000  0  8G19G 3G 8G13G10G28G23G27
  -5064800.11348  -3945639.51644  23343254.5724   23343251.4674
       720.7194
   1893727.58648   1474420.89143  23637975.6824   23637974.6974
     -1719.6614
  -6234041.40649  -4850368.43046  22007152.1744   22007150.2094
      1161.6924
   5832647.91049   4538088.71146  21380706.3464   21380704.5414
     -2512.0564
  -2037128.94546  -1582581.62942  24093761.9394   24093761.1664
       463.4934
  -2577160.45347  -2005488.98442  24257210.1194   24257208.6354
      2449.4704
  14395221.12147  11195935.14842  24117488.5964   24117485.5924
     -4226.8474
  -1221269.67249   -951938.47346  21412673.2054   21412670.7874
      -104.5104
 04  9  8 22  3 30.0020000  0  8G19G 3G 8G13G10G28G23G27
  -5075492.35548  -3953971.12544  23341220.3614   23341216.9824
       712.8164
   1919665.17248   1494631.98843  23642911.2834   23642910.0724
     -1729.1724
  -6251413.92649  -4863905.44945  22003846.1894   22003844.3614
      1158.1684
   5870445.50049   4567541.36746  21387898.9944   21387897.0494
     -2519.8394
  -2043941.63746  -1587890.21142  24092465.8774   24092464.6934
       454.1794
  -2613854.02048  -2034081.29742  24250227.5574   24250226.9904
      2446.2384
  14458674.18447  11245379.02343  24129563.8694   24129561.3654
     -4230.2044
  -1219652.16449   -950678.08246  21412981.2134   21412978.4394
      -107.8344
 04  9  8 22  3 45.0020000  0  8G19G 3G 8G13G10G28G23G27
  -5086067.21148  -3962211.25044  23339207.7364   23339204.7324
       704.9904
   1945743.87147   1514953.04343  23647873.8614   23647872.7174
     -1738.5804
  -6268734.73449  -4877402.18046  22000550.0024   22000548.6704
      1154.7214
   5908358.23449   4597083.74646  21395113.7364   21395111.3814
     -2527.5164
  -2050615.98446  -1593091.01642  24091196.0644   24091194.6044
       444.9574
  -2650500.19947  -2062636.72742  24243253.9794   24243252.5574
      2443.0794
  14522175.94147  11294860.82842  24141647.7444   24141644.7014
     -4233.4514
  -1217986.27049   -949379.98446  21413297.9084   21413296.0844
      -111.0604
 04  9  8 22  4  0.0020000  0  8G19G 3G 8G13G10G28G23G27
  -5096524.27748  -3970359.58644  23337217.9244   23337214.7174
       697.1384
   1971963.77748   1535384.14142  23652863.1114   23652862.4594
     -1747.9944
  -6286003.71549  -4890858.52046  21997263.9474   21997262.5064
      1151.2654
   5946386.24649   4626715.94546  21402350.2364   21402348.2684
     -2535.2014
  -2057151.65646  -1598183.72742  24089951.8224   24089950.9594
       435.7114
  -2687098.59847  -2091154.95342  24236289.6824   24236287.9514
      2439.8934
  14585726.39147  11344380.64542  24153741.2914   24153737.6154
     -4236.6974
  -1216271.63749   -948043.91046  21413624.0414   21413622.4674
      -114.3094
 04  9  8 22  4 15.0020000  0  8G19G 3G 8G13G10G28G23G27
  -5106862.09848  -3978415.02344  23335251.1584   23335247.5534
       689.1884
   1998325.76247   1555925.94943  23657879.9634   23657878.8034
     -1757.4664
  -6303219.94149  -4904273.75046  21993987.6584   21993986.1624
      1147.7484
   5984530.46149   4656438.69546  21409608.8464   21409606.5884
     -2542.9484
  -2063547.55147  -1603167.54742  24088735.2294   24088733.7644
       426.3934
  -2723648.19547  -2119635.12142  24229334.6974   24229332.7954
      2436.6404
  14649326.27048  11393938.94942  24165844.3694   24165840.3894
     -4239.9924
  -1214507.34049   -946669.12946  21413960.0254   21413958.3224
      -117.6204
 04  9  8 22  4 30.0020000  0  8G19G 3G 8G13G10G28G23G27
  -5117081.41048  -3986378.10544  23333306.2684   23333302.5884
       681.2884
   2024828.78948   1576577.65243  23662923.0024   23662922.2794
     -1766.8684
  -6320384.23049  -4917648.50846  21990721.5184   21990720.1464
      1144.2864
   6022789.80949   4686251.16046  21416889.2684   21416887.0964
     -2550.6234
  -2069804.45346  -1608043.05942  24087545.1194   24087543.5964
       417.1274
  -2760149.66046  -2148077.78542  24222387.7214   24222387.4864
      2433.4314
  14712974.59848  11443535.00842  24177955.5804   24177952.7644
     -4243.2224
  -1212694.23849   -945256.32846  21414305.0644   21414302.8654
      -120.8734
 04  9  8 22  4 45.0020000  0  8G19G 3G 8G13G10G28G23G27
  -5127181.67648  -3994248.43744  23331383.7914   23331380.6194
       673.3514
   2051473.21147   1597339.53543  23667993.9164   23667992.8114
     -1776.2954
  -6337496.02749  -4930982.37146  21987465.0964   21987463.3814
      1140.7864
   6061164.71949   4716153.66846  21424191.7524   21424189.4794
     -2558.3274
  -2075921.87147  -1612809.87542  24086380.4084   24086379.1934
       407.8284
  -2796602.44946  -2176482.49642  24215451.0574   24215450.6354
      2430.1864
  14776671.41848  11493168.85942  24190076.5494   24190073.8114
     -4246.4554
  -1210831.80949   -943805.08247  21414659.2834   21414657.1504
      -124.1624
 04  9  8 22  5  0.0020000  0  8G19G 3G 8G13G10G28G23G27
  -5137163.84048  -4002026.73044  23329484.1974   23329480.9244
       665.4784
   2078257.66847   1618210.53543  23673090.6194   23673089.9904
     -1785.6304
  -6354556.66449  -4944276.36746  21984218.5724   21984216.7134
      1137.3764
   6099653.93449   4746145.25446  21431515.8854   21431513.5684
     -2565.9484
  -2081900.82446  -1617468.79342  24085243.5804   24085241.4164
       398.5974
  -2833007.61346  -2204850.13742  24208523.4634   24208522.6194
      2427.0114
  14840415.27747  11542839.35942  24202206.6504   24202203.5574
     -4249.5914
  -1208921.37149   -942316.43746  21415023.1434   21415021.1194
      -127.3624
 04  9  8 22  5 15.0020000  0  8G19G 3G 8G13G10G28G23G27
  -5147024.35948  -4009710.24244  23327608.0414   23327604.8224
       657.3684
   2105185.25447   1639193.07043  23678214.8854   23678214.3304
     -1795.1724
  -6371562.79749  -4957527.89546  21980982.5804   21980980.8264
      1133.7424
   6138260.21949   4776228.05946  21438862.3934   21438860.4204
     -2573.7524
  -2087738.09446  -1622017.29742  24084131.7134   24084130.6274
       389.1514
  -2869361.68046  -2233177.93042  24201605.3144   24201605.2644
      2423.6044
  14904209.21547  11592548.84442  24214346.3854   24214343.5964
     -4252.9294
  -1206959.63349   -940787.80946  21415396.4794   21415394.4164
      -130.7834
 04  9  8 22  5 30.0020000  0  8G19G 3G 8G13G10G28G23G27
  -5156765.96948  -4017301.09844  23325754.4324   23325751.3964
       649.4414
   2132253.00847   1660284.81643  23683365.5184   23683364.2094
     -1804.5174
  -6388517.14549  -4970739.07046  21977756.1354   21977754.3964
      1130.2904
   6176980.76649   4806399.90646  21446230.9244   21446228.5144
     -2581.3704
  -2093436.41846  -1626457.55542  24083047.3774   24083046.4554
       379.8884
  -2905667.41446  -2261468.06242  24194696.6194   24194696.7254
      2420.3824
  14968049.96147  11642294.85942  24226494.4634   24226492.1194
     -4256.0504
  -1204949.51649   -939221.48446  21415778.5184   21415776.4324
      -134.0084
 04  9  8 22  5 45.0020000  0  8G19G 3G 8G13G10G28G23G27
  -5166388.79748  -4024799.39144  23323923.4004   23323920.3144
       641.5224
   2159460.28147   1681485.29743  23688543.1044   23688541.3614
     -1813.8184
  -6405420.36349  -4983910.39846  21974539.3614   21974537.9394
      1126.8814
   6215814.95749   4836660.28546  21453620.7054   21453618.5534
     -2588.9464
  -2098996.08647  -1630789.75442  24081989.3854   24081988.1194
       370.6454
  -2941925.18746  -2289720.83642  24187796.9554   24187796.2874
      2417.1854
  15031936.91447  11692076.80943  24238652.2214   24238650.4904
     -4259.1304
  -1202891.35249   -937617.72346  21416170.2054   21416168.3424
      -137.2114
 04  9  8 22  6  0.0020000  0  8G19G 3G 8G13G10G28G23G27
  -5175889.13748  -4032202.24244  23322115.6044   23322112.6704
       633.3564
   2186810.63347   1702797.25843  23693748.0254   23693746.3264
     -1823.3574
  -6422268.53149  -4997038.83246  21971333.3544   21971331.7294
      1123.2114
   6254766.27749   4867011.94946  21461033.1044   21461030.6974
     -2596.7554
  -2104413.40647  -1635011.03142  24080958.7834   24080957.1584
       361.1554
  -2978130.98046  -2317933.10542  24180907.1194   24180906.7794
      2413.7204
  15095873.48047  11741897.46542  24250817.7604   24250816.4514
     -4262.4384
  -1200781.48849   -935973.66446  21416572.1354   21416569.7214
      -140.6584
 04  9  8 22  6 15.0020000  0  8G19G 3G 8G13G10G28G23G27
  -5185266.10248  -4039508.96944  23320331.0184   23320327.9864
       625.1314
   2214304.39148   1724220.96943  23698979.7914   23698978.6074
     -1832.9174
  -6439061.13749  -5010123.97345  21968137.9634   21968136.1114
      1119.5074
   6293835.29349   4897455.32446  21468467.4084   21468465.0024
     -2604.6014
  -2109687.60547  -1639120.81242  24079955.2604   24079953.9714
       351.6134
  -3014284.26646  -2346104.45742  24174027.2294   24174026.6544
      2410.2194
  15159860.11747  11791757.09842  24262995.1354   24262993.2324
     -4265.7764
  -1198619.28549   -934288.83646  21416983.3074   21416981.3384
      -144.1474
 04  9  8 22  6 30.0020000  0  8G19G 3G 8G13G10G28G23G27
  -5194520.41848  -4046720.10244  23318570.1584   23318566.9864
       616.9544
   2241940.63347   1745755.70343  23704238.4394   23704238.1234
     -1842.4164
  -6455799.17649  -5023166.59046  21964952.6114   21964951.1864
      1115.8694
   6333020.82449   4927989.49246  21475924.5254   21475922.1234
     -2612.3694
  -2114819.50047  -1643119.68042  24078978.5254   24078977.4714
       342.1264
  -3050385.77746  -2374235.44142  24167157.3614   24167157.2484
      2406.7674
  15223895.54747  11841654.77042  24275180.7914   24275178.2364
     -4269.0294
  -1196405.75449   -932564.00846  21417404.6434   21417402.2954
      -147.5694
 04  9  8 22  6 45.0020000  0  8G19G 3G 8G13G10G28G23G27
  -5203653.75048  -4053836.97744  23316832.0184   23316828.7444
       608.8894
   2269717.29347   1767399.84443  23709524.3544   23709523.3614
     -1851.7774
  -6472484.23849  -5036167.92646  21961777.7444   21961776.3424
      1112.3384
   6372320.86749   4958612.89546  21483402.7524   21483400.4984
     -2620.0034
  -2119811.01247  -1647009.16442  24078029.0884   24078027.5374
       332.7674
  -3086437.33246  -2402327.53942  24160297.2754   24160296.3264
      2403.4374
  15287977.60247  11891588.78142  24287375.4554   24287372.8224
     -4272.1374
  -1194142.81649   -930800.68046  21417835.5414   21417833.3304
      -150.8624
 04  9  8 22  7  0.0020000  0  8G19G 3G 8G13G10G28G23G27
  -5212663.20748  -4060857.31644  23315117.7604   23315114.1504
       600.6304
   2297636.75847   1789155.27743  23714837.2834   23714835.9634
     -1861.2984
  -6489113.82049  -5049126.03146  21958613.4004   21958611.7954
      1108.6394
   6411738.10249   4989327.60946  21490903.7684   21490901.1394
     -2627.8164
  -2124659.43447  -1650787.14842  24077106.0254   24077104.8814
       323.2284
  -3122436.14147  -2430378.50042  24153446.9554   24153446.2324
      2399.9214
  15352108.67247  11941560.97742  24299578.4944   24299577.3114
     -4275.4054
  -1191827.71149   -928996.69146  21418275.9244   21418273.6934
      -154.3404
 04  9  8 22  7 15.0020000  0  8G19G 3G 8G13G10G28G23G27
  -5221549.90648  -4067782.00044  23313426.7444   23313423.2754
       592.4474
   2325697.60247   1811020.86343  23720176.8384   23720176.1784
     -1870.7234
  -6505689.12549  -5062041.84446  21955459.0724   21955457.3144
      1105.0204
   6451270.96949   5020132.42646  21498426.6434   21498424.6354
     -2635.5244
  -2129365.95746  -1654454.56642  24076210.1194   24076209.4204
       313.7684
  -3158383.35546  -2458389.28542  24146605.9004   24146605.6434
      2396.4814
  15416287.21547  11991570.18042  24311792.0104   24311789.3144
     -4278.5704
  -1189461.79349   -927153.12146  21418725.8774   21418723.8034
      -157.7284
 04  9  8 22  7 30.0020000  0  8G19G 3G 8G13G10G28G23G27
  -5230313.23448  -4074610.56644  23311758.4864   23311755.5684
       584.2224
   2353900.04747   1832996.79743  23725543.3614   23725543.2294
     -1880.1634
  -6522209.74249  -5074915.03945  21952315.0644   21952313.1704
      1101.3744
   6490919.88349   5051027.68046  21505971.6504   21505969.5104
     -2643.2614
  -2133930.04747  -1658011.00442  24075342.0804   24075340.3894
       304.2734
  -3194278.32047  -2486359.35542  24139774.9164   24139774.9204
      2392.9984
  15480513.42247  12041616.53942  24324013.4634   24324010.4394
     -4281.7474
  -1187044.56249   -925269.56246  21419186.1274   21419183.8734
      -161.1494
 04  9  8 22  7 45.0020000  0  8G19G 3G 8G13G10G28G23G27
  -5238950.90648  -4081341.19544  23310115.1894   23310112.1894
       575.8454
   2382246.16848   1855084.68443  23730937.4394   23730937.0574
     -1889.7414
  -6538673.68049  -5087744.08245  21949182.2604   21949180.3344
      1097.5964
   6530686.59449   5082014.71146  21513538.7134   21513536.9434
     -2651.1144
  -2138349.65247  -1661454.84042  24074500.5104   24074499.1154
       294.6404
  -3230118.85247  -2514286.99242  24132955.2994   24132955.5844
      2389.3694
  15544789.01647  12091701.40242  24336245.4794   24336242.2604
     -4285.0404
  -1184574.04349   -923344.48446  21419656.5494   21419654.2564
      -164.7014
 04  9  8 22  8  0.0020000  0  8G19G 3G 8G13G10G28G23G27
  -5247467.68048  -4087977.62144  23308494.2364   23308490.8854
       567.7854
   2410730.75847   1877280.46543  23736358.2684   23736357.3504
     -1898.9734
  -6555085.77349  -5100532.71145  21946058.9714   21946057.1624
      1094.1404
   6570565.93449   5113089.50046  21521127.9944   21521125.4554
     -2658.6234
  -2142629.58647  -1664789.85943  24073686.6974   24073685.1434
       285.3294
  -3265909.78547  -2542175.99643  24126144.4004   24126143.9674
      2386.0624
  15609108.93448  12141820.76642  24348484.9164   24348481.3614
     -4287.9954
  -1182055.11349   -921381.67646  21420135.2994   21420133.5964
      -167.9294
 04  9  8 22  8 15.0020000  0  8G19G 3G 8G13G10G28G23G27
  -5255861.02348  -4094517.88744  23306897.2054   23306893.4904
       559.5564
   2439355.85547   1899585.73843  23741805.6664   23741804.4164
     -1908.3404
  -6571443.80949  -5113279.22346  21942946.2364   21942944.3574
      1090.5364
   6610560.17249   5144253.82046  21528738.6504   21528736.2604
     -2666.2834
  -2146767.55947  -1668014.25043  24072899.4164   24072898.0294
       275.8654
  -3301648.71547  -2570024.49243  24119343.8934   24119343.1434
      2382.5954
  15673475.00848  12191976.11742  24360733.1354   24360729.5844
     -4291.0724
  -1179485.52349   -919379.39847  21420624.7214   21420622.8424
      -171.3064
 04  9  8 22  8 30.0020000  0  8G19G 3G 8G13G10G28G23G27
  -5264130.40248  -4100961.54344  23305323.4394   23305319.7404
       551.2924
   2468121.71947   1922000.69143  23747278.9864   23747278.7874
     -1917.7244
  -6587747.19149  -5125983.13746  21939843.8544   21939841.9634
      1086.8924
   6650669.53149   5175507.84846  21536370.9864   21536368.7914
     -2673.9574
  -2150763.11347  -1671127.66843  24072138.8694   24072137.3304
       266.3704
  -3337335.05947  -2597831.99243  24112553.2684   24112552.1044
      2379.0904
  15737887.46147  12242167.60243  24372989.9944   24372988.3184
     -4294.1644
  -1176864.88749   -917337.34046  21421123.2834   21421121.1314
      -174.7094
 04  9  8 22  8 45.0020000  0  8G19G 3G 8G13G10G28G23G27
  -5272275.17248  -4107308.10944  23303773.8694   23303769.6624
       542.9854
   2497028.66447   1944525.57843  23752780.2524   23752779.5644
     -1927.1304
  -6603995.55549  -5138644.19146  21936751.6664   21936750.1784
      1083.2244
   6690894.46149   5206851.93446  21544025.8464   21544023.1544
     -2681.6624
  -2154615.82047  -1674129.76642  24071405.1354   24071403.8694
       256.8474
  -3372968.29347  -2625598.12943  24105772.3854   24105771.7834
      2375.5494
  15802346.47347  12292395.32442  24385256.0184   24385254.8694
     -4297.2674
  -1174192.69549   -915255.10946  21421631.5724   21421629.9394
      -178.1464
 04  9  8 22  9  0.0020000  0  8G19G 3G 8G13G10G28G23G27
  -5280298.36748  -4113559.92644  23302247.2604   23302243.0214
       534.8804
   2526073.34047   1967157.77343  23758307.3544   23758306.8184
     -1936.3124
  -6620191.99249  -5151264.78146  21933669.7214   21933667.9554
      1079.7634
   6731231.32049   5238283.23846  21551701.1974   21551699.1504
     -2689.1244
  -2158328.69547  -1677022.92242  24070698.6194   24070697.2754
       247.5254
  -3408551.56648  -2653325.31643  24099000.8934   24099000.1074
      2372.2184
  15866848.60247  12342656.67242  24397530.1744   24397528.5764
     -4300.1424
  -1171472.22749   -913135.26646  21422149.0964   21422147.2054
      -181.3654
 04  9  8 22  9 15.0020000  0  8G19G 3G 8G13G10G28G23G27
  -5288197.23048  -4119714.85244  23300743.4474   23300740.1274
       526.5914
   2555258.05947   1989899.12143  23763860.1274   23763860.2094
     -1945.6484
  -6636333.93449  -5163842.91846  21930598.3304   21930596.3614
      1076.1294
   6771682.53149   5269803.65246  21559398.9394   21559396.9714
     -2696.7474
  -2161899.16447  -1679805.09842  24070019.0254   24070017.5374
       238.0314
  -3444082.14848  -2681011.44543  24092239.4714   24092238.6114
      2368.7054
  15931396.12947  12392953.38742  24409813.5414   24409811.8734
     -4303.1684
  -1168700.84849   -910975.74646  21422676.8694   21422674.7444
      -184.7594
 04  9  8 22  9 30.0020000  0  8G19G 3G 8G13G10G28G23G27
  -5295971.37548  -4125772.62144  23299264.0024   23299260.8654
       518.2764
   2584582.90647   2012749.64543  23769440.8074   23769440.3544
     -1954.9904
  -6652421.33249  -5176378.55546  21927536.7994   21927535.0644
      1072.4934
   6812248.21949   5301413.26646  21567118.4474   21567116.3504
     -2704.3794
  -2165326.90247  -1682476.05542  24069367.5494   24069365.8544
       228.5164
  -3479559.73448  -2708656.29743  24085488.2994   24085486.9124
      2365.1724
  15995988.95747  12443285.35942  24422105.4554   24422103.0574
     -4306.1894
  -1165878.52349   -908776.52746  21423213.8074   21423211.5294
      -188.1554
 04  9  8 22  9 45.0020000  0  8G19G 3G 8G13G10G28G23G27
  -5303621.94148  -4131734.07844  23297808.6434   23297804.8144
       510.0384
   2614046.21147   2035708.06342  23775047.5494   23775046.7054
     -1964.2204
  -6668455.45749  -5188872.66846  21924485.8934   21924483.7914
      1068.9424
   6852926.84049   5333110.89146  21574859.3464   21574857.3774
     -2711.9084
  -2168613.33247  -1685036.89842  24068741.8694   24068740.8264
       219.0954
  -3514985.44148  -2736260.70742  24078747.2364   24078745.2444
      2361.7144
  16060625.39147  12493651.35543  24434405.3464   24434402.8854
     -4309.0964
  -1163006.48449   -906538.57846  21423760.3854   21423758.3074
      -191.4694
 04  9  8 22 10  0.0020000  0  8G19G 3G 8G13G10G28G23G27
  -5311148.12548  -4137598.62544  23296375.5494   23296372.4204
       501.7464
   2643648.56647   2058774.80943  23780680.4794   23780679.9754
     -1973.4904
  -6684435.61749  -5201324.72746  21921444.7214   21921442.8504
      1065.3444
   6893719.05949   5364897.02046  21582621.8854   21582619.8344
     -2719.4814
  -2171757.69147  -1687487.06243  24068143.8774   24068142.1784
       209.6244
  -3550358.48448  -2763824.08643  24072015.9394   24072014.8614
      2358.2034
  16125305.86747  12544051.68443  24446714.7134   24446711.8894
     -4312.0324
  -1160083.98849   -904261.30946  21424316.3774   21424314.3074
      -194.8334
 04  9  8 22 10 15.0020000  0  8G19G 3G 8G13G10G28G23G27
  -5318550.53948  -4143366.72344  23294967.5414   23294964.1074
       493.4944
   2673388.74647   2081948.98842  23786340.0574   23786339.6194
     -1982.6794
  -6700362.67649  -5213735.41845  21918414.0334   21918411.9284
      1061.8044
   6934623.76649   5396770.81646  21590405.3384   21590403.3264
     -2726.9804
  -2174760.94947  -1689827.26643  24067572.0804   24067571.2714
       200.2174
  -3585679.69548  -2791347.07843  24065294.5024   24065293.0214
      2354.7474
  16190029.31647  12594485.48043  24459030.6744   24459028.1234
     -4314.8974
  -1157112.09049   -901945.53546  21424881.8774   21424879.9164
      -198.1274
 04  9  8 22 10 30.0020000  0  8G19G 3G 8G13G10G28G23G27
  -5325826.68748  -4149036.44144  23293582.8854   23293579.9284
       485.0774
   2703269.18847   2105232.43443  23792025.1584   23792025.8574
     -1992.0294
  -6716234.19549  -5226102.82846  21915393.5964   21915391.5534
      1058.1014
   6975642.99249   5428733.82846  21598211.4794   21598209.5844
     -2734.6154
  -2177620.44147  -1692055.44143  24067028.3774   24067027.3224
       190.6334
  -3620946.51248  -2818827.68743  24058583.5254   24058581.6504
      2351.1214
  16254797.82048  12644954.38343  24471355.7364   24471353.1584
     -4317.9004
  -1154088.29349   -899589.32846  21425457.1274   21425455.2324
      -201.5864
 04  9  8 22 10 45.0020000  0  8G19G 3G 8G13G10G28G23G27
  -5332978.03948  -4154608.89544  23292222.2684   23292219.2294
       476.7574
   2733288.00447   2128623.70343  23797738.3774   23797737.8614
     -2001.2544
  -6732051.92649  -5238428.32446  21912383.4634   21912381.6504
      1054.5154
   7016775.03549   5460784.76246  21606038.6584   21606036.5414
     -2742.1364
  -2180337.76648  -1694172.83242  24066510.6894   24066509.7714
       181.1554
  -3656160.47748  -2846267.11343  24051882.4244   24051880.5494
      2347.5984
  16319609.47748  12695456.91443  24483689.1974   24483686.9004
     -4320.7774
  -1151014.19949   -897193.93046  21426042.3544   21426040.3774
      -204.9404
 04  9  8 22 11  0.0020000  0  8G19G 3G 8G13G10G28G23G27
  -5340004.47348  -4160084.03144  23290885.3544   23290882.4714
       468.4294
   2763444.85947   2152122.53543  23803477.7134   23803476.4394
     -2010.4574
  -6747815.87549  -5250711.91446  21909383.6114   21909382.1504
      1050.9304
   7058019.67249   5492923.42246  21613887.4244   21613885.5374
     -2749.6424
  -2182912.96547  -1696179.49243  24066020.4004   24066019.1624
       171.6804
  -3691321.60248  -2873665.35242  24045191.1044   24045190.1114
      2344.0754
  16384463.95348  12745992.81643  24496030.7294   24496028.1354
     -4323.6324
  -1147889.99649   -894759.48446  21426636.9394   21426634.9394
      -208.2804
 04  9  8 22 11 15.0020000  0  8G19G 3G 8G13G10G28G23G27
  -5346904.87948  -4165460.94944  23289571.9244   23289568.5534
       460.0274
   2793740.59047   2175729.60542  23809242.6664   23809241.3034
     -2019.7154
  -6763524.83649  -5262952.65246  21906394.1974   21906392.5214
      1047.2644
   7099377.66049   5525150.40246  21621757.3854   21621755.3184
     -2757.1994
  -2185345.15247  -1698074.69142  24065557.8544   24065556.6314
       162.1464
  -3726428.89848  -2901021.66042  24038510.6274   24038509.5254
      2340.4864
  16449361.93447  12796562.57042  24508379.8464   24508378.3304
     -4326.5324
  -1144714.72349   -892285.24246  21427241.1504   21427238.9944
      -211.6854
 04  9  8 22 11 30.0020000  0  8G19G 3G 8G13G10G28G23G27
  -5353676.56648  -4170737.55944  23288283.0644   23288279.5844
       451.4464
   2824177.48847   2199446.66843  23815034.3224   23815033.8774
     -2029.1274
  -6779176.31649  -5275148.60246  21903415.9004   21903414.1194
      1043.4324
   7140851.36349   5557467.55946  21629649.6744   21629647.5574
     -2764.9144
  -2187631.81647  -1699856.51643  24065121.8854   24065121.9904
       152.4444
  -3761479.61748  -2928333.88742  24031840.8544   24031839.1004
      2336.7154
  16514305.52747  12847167.94942  24520738.9794   24520735.9904
     -4329.5734
  -1141485.86349   -889769.25046  21427855.6044   21427853.6114
      -215.2574
 04  9  8 22 11 45.0020000  0  8G19G 3G 8G13G10G28G23G27
  -5360321.73448  -4175915.59044  23287018.2994   23287014.5024
       443.0114
   2854752.90647   2223271.64542  23820852.7054   23820852.2134
     -2038.3614
  -6794772.91449  -5287301.78546  21900448.0334   21900446.1394
      1039.7734
   7182438.19549   5589872.86746  21637563.2604   21637561.5964
     -2772.4554
  -2189775.30947  -1701526.75443  24064714.8384   24064713.9324
       142.8994
  -3796476.06248  -2955603.81242  24025181.4714   24025179.9044
      2333.0964
  16579292.07447  12897806.75042  24533104.8384   24533102.5614
     -4332.4364
  -1138205.73449   -887213.30946  21428479.6504   21428477.8224
      -218.6754
 04  9  8 22 12  0.0020000  0  8G19G 3G 8G13G10G28G23G27
  -5366841.17248  -4180995.65644  23285777.7364   23285774.3504
       434.6294
   2885465.75847   2247203.72743  23826697.0804   23826696.6004
     -2047.5234
  -6810315.62149  -5299412.98046  21897490.4084   21897488.4824
      1036.1804
   7224137.11749   5622365.51646  21645498.6744   21645496.2324
     -2779.9284
  -2191776.45747  -1703086.09042  24064333.9394   24064332.7294
       133.4104
  -3831418.94548  -2982831.99242  24018531.7604   24018530.4204
      2329.5264
  16644320.39147  12948478.09442  24545479.2754   24545477.3304
     -4335.2214
  -1134875.35549   -884618.20746  21429113.5884   21429111.5924
      -222.0254
 04  9  8 22 12 15.0020000  0  8G19G 3G 8G13G10G28G23G27
  -5373235.27748  -4185978.06644  23284561.1664   23284558.1704
       426.2744
   2916315.24647   2271242.27742  23832567.7994   23832566.7484
     -2056.6334
  -6825805.08249  -5311482.68746  21894542.7524   21894541.4164
      1032.6314
   7265947.30949   5654944.87546  21653454.7054   21653452.3074
     -2787.3464
  -2193635.86347  -1704534.98043  24063979.6114   24063978.8304
       123.9604
  -3866308.79748  -3010018.86342  24011892.4714   24011891.0184
      2325.9904
  16709389.66047  12999181.38342  24557861.8694   24557859.1464
     -4337.9514
  -1131495.21949   -881984.32846  21429756.6044   21429754.9204
      -225.3424
 04  9  8 22 12 30.0020000  0  8G19G 3G 8G13G10G28G23G27
  -5379501.98448  -4190861.19944  23283368.6584   23283366.1464
       417.7804
   2947302.94947   2295388.52742  23838464.1974   23838463.6584
     -2065.8474
  -6841239.05549  -5323509.15246  21891605.4324   21891603.9514
      1028.9324
   7307870.44549   5687612.24646  21661432.4084   21661430.0414
     -2794.8764
  -2195351.60247  -1705871.91043  24063653.5184   24063652.4004
       114.3834
  -3901143.78948  -3037162.96942  24005263.1274   24005262.2834
      2322.3334
  16774501.46947  13049917.79342  24570252.3074   24570249.7954
     -4340.7874
  -1128063.70349   -879310.41446  21430409.5724   21430407.7254
      -228.7684
 04  9  8 22 12 45.0020000  0  8G19G 3G 8G13G10G28G23G27
  -5385640.39148  -4195644.36744  23282200.6894   23282198.1274
       409.2274
   2978429.52747   2319643.00443  23844387.3224   23844386.7914
     -2075.1054
  -6856616.95349  -5335491.92646  21888679.1354   21888677.9864
      1025.1934
   7349907.18449   5720368.13346  21669431.6974   21669429.2324
     -2802.4494
  -2196922.85247  -1707096.26242  24063354.6354   24063353.5294
       104.7504
  -3935922.83248  -3064263.48842  23998644.9714   23998643.7094
      2318.6034
  16839656.26247  13100687.72342  24582650.3144   24582648.1864
     -4343.6534
  -1124579.87149   -876595.73846  21431072.5254   21431070.5574
      -232.2554
 04  9  8 22 13  0.0020000  0  8G19G 3G 8G13G10G28G23G27
  -5391651.84448  -4200328.59044  23281056.3774   23281054.3964
       400.7644
   3009693.27047   2344004.36743  23850336.7994   23850336.0454
     -2084.2494
  -6871940.32049  -5347432.20346  21885763.6824   21885761.7994
      1021.5584
   7392055.85549   5753211.25446  21677452.3144   21677450.3774
     -2809.9114
  -2198351.18747  -1708209.24642  24063082.7754   24063081.7214
        95.2224
  -3970647.27047  -3091321.47342  23992036.7524   23992034.7754
      2314.9634
  16904852.27747  13151489.75442  24595057.2834   24595054.8034
     -4346.4014
  -1121045.19549   -873841.44546  21431745.1894   21431743.2524
      -235.6454
 04  9  8 22 13 15.0020000  0  8G19G 3G 8G13G10G28G23G27
  -5397538.73048  -4204915.76244  23279936.0644   23279933.4754
       392.4594
   3041091.51247   2368470.50843  23856311.7754   23856311.0454
     -2093.2164
  -6887211.37949  -5359331.72346  21882857.6584   21882856.3264
      1018.0714
   7434313.69549   5786139.42246  21685493.7684   21685491.6394
     -2817.1894
  -2199639.02747  -1709212.75443  24062838.0104   24062836.6394
        85.8564
  -4005319.67247  -3118338.89142  23985438.8854   23985437.2874
      2311.4934
  16970086.80147  13202321.77042  24607471.1894   24607468.6354
     -4348.9684
  -1117462.18449   -871049.48846  21432427.3304   21432425.2294
      -238.8674
 04  9  8 22 13 30.0020000  0  8G19G 3G 8G13G10G28G23G27
  -5403296.35948  -4209402.19944  23278840.9634   23278837.3934
       383.8424
   3072628.47747   2393044.75843  23862313.2444   23862312.1234
     -2102.4644
  -6902425.87149  -5371187.16046  21879962.4164   21879960.7954
      1014.2994
   7476685.07849   5819156.06646  21693556.6894   21693554.7014
     -2824.7594
  -2200781.80147  -1710103.22342  24062620.0024   24062619.0924
        76.1854
  -4039935.37147  -3145312.12542  23978851.9714   23978851.3114
      2307.7134
  17035363.94547  13253187.02742  24619893.2914   24619890.6664
     -4351.8104
  -1113826.39849   -868216.40646  21433118.8544   21433116.7954
      -242.3864
 04  9  8 22 13 45.0020000  0  8G19G 3G 8G13G10G28G23G27
  -5408924.60248  -4213787.84844  23277769.9164   23277765.7014
       375.2164
   3104303.92647   2417726.91042  23868340.6504   23868339.5374
     -2111.6974
  -6917583.79749  -5382998.52046  21877078.1194   21877075.9084
      1010.5284
   7519169.74249   5852260.97746  21701641.5494   21701639.1354
     -2832.3114
  -2201779.52347  -1710880.64842  24062430.2294   24062429.5844
        66.5154
  -4074494.35547  -3172241.17242  23972275.2294   23972274.8774
      2303.9324
  17100683.49647  13304085.31642  24632323.2364   24632320.3694
     -4354.6374
  -1110137.84449   -865342.21547  21433821.0184   21433818.8224
      -245.9044
 04  9  8 22 14  0.0020000  0  8G19G 3G 8G13G10G28G23G27
  -5414423.31248  -4218072.54344  23276723.5804   23276719.5334
       366.5814
   3136117.76647   2442516.90242  23874394.6894   23874393.8184
     -2120.9234
  -6932684.88349  -5394765.59446  21874203.8614   21874202.4514
      1006.7394
   7561767.66849   5885454.15646  21709747.5804   21709745.0644
     -2839.8624
  -2202632.12547  -1711545.00842  24062267.4324   24062266.4634
        56.8404
  -4108996.30947  -3199125.79742  23965709.3544   23965708.1624
      2300.1304
  17166045.11347  13355016.37543  24644760.7604   24644759.1234
     -4357.4414
  -1106396.50449   -862426.88747  21434532.6744   21434531.0534
      -249.4234
 04  9  8 22 14 15.0020000  0  8G19G 3G 8G13G10G28G23G27
  -5419789.76248  -4222254.17244  23275701.3544   23275698.6434
       357.7634
   3168072.19547   2467416.45342  23880475.5254   23880474.7954
     -2130.2954
  -6947726.78949  -5406486.55546  21871341.7604   21871339.8734
      1002.7944
   7604480.91049   5918737.18846  21717875.7444   21717873.5024
     -2847.5494
  -2203337.14847  -1712094.37942  24062133.8614   24062132.4554
        47.0024
  -4143438.68747  -3225963.98443  23959156.3224   23959154.4554
      2296.1594
  17231451.18047  13405982.06643  24657207.4324   24657205.8184
     -4360.4044
  -1102599.88349   -859468.47746  21435255.3144   21435253.3504
      -253.1084
 04  9  8 22 14 30.0020000  0  8G19G 3G 8G13G10G28G23G27
  -5425028.11348  -4226335.99644  23274705.1194   23274702.4634
       349.2234
   3200162.59047   2492421.94543  23886581.9554   23886580.9904
     -2139.3604
  -6962713.84849  -5418164.77046  21868489.8304   21868487.8614
       999.1374
   7647305.02749   5952106.60946  21726024.7444   21726022.4244
     -2854.9414
  -2203898.98047  -1712532.18043  24062027.7294   24062025.4754
        37.4554
  -4177825.86747  -3252759.14843  23952612.1664   23952611.4514
      2292.4794
  17296896.79747  13456978.58643  24669661.5724   24669659.4554
     -4363.0414
  -1098752.39549   -856470.43046  21435987.3614   21435985.5644
      -256.4994
 04  9  8 22 14 45.0020000  0  8G19G 3G 8G13G10G28G23G27
  -5430137.97748  -4230317.68044  23273732.8464   23273730.3734
       340.6584
   3232389.19147   2517533.57842  23892715.0804   23892713.7954
     -2148.4404
  -6977645.58249  -5429799.88746  21865648.3694   21865646.4754
       995.4494
   7690240.15249   5985562.54346  21734194.8544   21734192.9554
     -2862.3424
  -2204317.15247  -1712858.02042  24061947.6434   24061946.2134
        27.8784
  -4212157.32447  -3279510.90643  23946078.8384   23946078.3574
      2288.7644
  17362382.10947  13508005.99242  24682122.7604   24682121.2604
     -4365.6874
  -1094853.60549   -853432.41446  21436729.2604   21436727.2364
      -259.9194
 04  9  8 22 15  0.0020000  0  8G19G 3G 8G13G10G28G23G27
  -5435118.37548  -4234198.50444  23272784.8224   23272781.9244
       332.0274
   3264752.52747   2542751.73842  23898872.8384   23898871.6234
     -2157.5564
  -6992521.32449  -5441391.37146  21862817.5884   21862815.8774
       991.7164
   7733286.91849   6019105.46146  21742386.7054   21742384.4554
     -2869.7844
  -2204590.96147  -1713071.37143  24061895.6194   24061894.2054
        18.2544
  -4246432.10247  -3306218.50043  23939557.1974   23939556.0024
      2284.9854
  17427907.61347  13559064.78542  24694591.6504   24694589.2444
     -4368.3674
  -1090902.88349   -850353.93446  21437480.9714   21437479.2564
      -263.3824
 04  9  8 22 15 15.0020000  0  8G19G 3G 8G13G10G28G23G27
  -5439967.66848  -4237977.16444  23271862.5184   23271858.8304
       323.2864
   3297253.85548   2568077.46142  23905058.7604   23905056.6194
     -2166.7554
  -7007339.55949  -5452938.04346  21859998.0414   21859996.2134
       987.8824
   7776446.65249   6052736.41846  21750599.5574   21750597.3854
     -2877.3164
  -2204718.79747  -1713170.98843  24061871.3464   24061870.0614
         8.5224
  -4280648.60548  -3332880.66843  23933045.6354   23933044.7364
      2281.1004
  17493474.63747  13610155.91842  24707068.6974   24707066.3694
     -4371.1354
  -1086898.60549   -847233.70746  21438243.2134   21438241.4364
      -266.9524
 04  9  8 22 15 30.0020000  0  8G19G 3G 8G13G10G28G23G27
  -5444688.68748  -4241655.85944  23270964.0964   23270960.1894
       314.7354
   3329890.07047   2593508.28142  23911268.4084   23911267.6464
     -2175.7484
  -7022103.13349  -5464442.12146  21857188.6194   21857186.7134
       984.2384
   7819716.27349   6086452.99646  21758833.2604   21758831.2714
     -2884.6414
  -2204703.74247  -1713159.25043  24061874.1354   24061872.7054
        -1.0044
  -4314809.70748  -3359499.66443  23926545.2214   23926544.4824
      2277.4074
  17559079.86747  13661276.80142  24719553.5024   24719550.1434
     -4373.6824
  -1082843.69149   -844074.03547  21439014.7054   21439012.8654
      -270.3284
 04  9  8 22 15 45.0020000  0  8G19G 3G 8G13G10G28G23G27
  -5449280.00048  -4245233.48844  23270090.3854   23270086.5964
       306.0884
   3362662.19148   2619044.98843  23917504.7364   23917504.0684
     -2184.8084
  -7036810.89149  -5475902.70746  21854389.7134   21854387.7174
       980.5174
   7863096.80549   6120255.99646  21767088.4324   21767086.4084
     -2892.0354
  -2204544.36347  -1713035.05943  24061904.9324   24061903.2294
       -10.6254
  -4348914.02348  -3386074.42243  23920055.5254   23920054.2994
      2273.6214
  17624724.29347  13712428.25042  24732044.6354   24732042.9284
     -4376.2954
  -1078737.01249   -840874.02746  21439796.1824   21439794.2444
      -273.7794
 04  9  8 22 16  0.0020000  0  8G19G 3G 8G13G10G28G23G27
  -5453740.93048  -4248709.51244  23269240.7364   23269237.7294
       297.3954
   3395570.51247   2644687.83243  23923767.0024   23923766.2444
     -2193.8884
  -7051462.24649  -5487319.34446  21851601.4474   21851599.7484
       976.7574
   7906588.60949   6154145.69945  21775364.5254   21775362.5574
     -2899.4544
  -2204240.34847  -1712798.16043  24061963.0414   24061961.4324
       -20.2684
  -4382960.94948  -3412604.44943  23913576.1824   23913575.3734
      2269.7954
  17690408.12547  13763610.39842  24744544.2444   24744541.7324
     -4378.9224
  -1074577.93449   -837633.18746  21440587.6664   21440585.4904
      -277.2724
 04  9  8 22 16 15.0020000  0  8G19G 3G 8G13G10G28G23G27
  -5458071.25448  -4252083.77044  23268417.4794   23268414.5414
       288.6884
   3428614.85947   2670436.65242  23930055.0724   23930054.4004
     -2202.9574
  -7066057.18449  -5498692.02046  21848823.9634   21848822.9364
       972.9964
   7950191.53549   6188122.00046  21783661.9714   21783660.4634
     -2906.8624
  -2203791.54347  -1712448.44143  24062047.7444   24062046.7294
       -29.9204
  -4416950.33248  -3439089.65643  23907107.9794   23907107.7174
      2265.9594
  17756131.19947  13814823.13742  24757050.6434   24757047.2444
     -4381.5384
  -1070366.45349   -834351.51647  21441389.1114   21441386.9324
      -280.7654
 04  9  8 22 16 30.0020000  0  8G19G 3G 8G13G10G28G23G27
  -5462270.73448  -4255356.09044  23267618.3224   23267615.2834
       279.9654
   3461795.06647   2696291.34443  23936368.9554   23936368.3964
     -2212.0144
  -7080595.56649  -5510020.62546  21846057.8224   21846055.7364
       969.2264
   7993905.43049   6222184.76246  21791980.2294   21791978.4364
     -2914.2604
  -2203197.83647  -1711985.80543  24062160.9394   24062159.6074
       -39.5804
  -4450881.98048  -3465529.86343  23900651.2604   23900650.3504
      2262.1104
  17821893.20347  13866066.19942  24769566.2214   24769563.2364
     -4384.1344
  -1066102.49649   -831028.94546  21442200.4244   21442198.3694
      -284.2644
 04  9  8 22 16 45.0020000  0  8G19G 3G 8G13G10G28G23G27
  -5466341.32048  -4258527.96544  23266843.3144   23266840.5374
       271.3724
   3495108.73447   2722250.04343  23942708.3614   23942707.6044
     -2220.9114
  -7095079.19949  -5521306.55946  21843301.5964   21843299.8894
       965.5764
   8037727.89549   6256332.12146  21800319.4864   21800317.3774
     -2921.4984
  -2202461.23447  -1711411.82043  24062300.7754   24062300.0254
       -49.1074
  -4484757.90648  -3491926.64543  23894204.9714   23894204.0254
      2258.3954
  17887691.78947  13917337.75842  24782085.8384   24782083.8544
     -4386.5724
  -1061788.14549   -827667.11746  21443021.7444   21443019.4164
      -287.6234
 04  9  8 22 17  0.0020000  0  8G19G 3G 8G13G10G28G23G27
  -5470280.78148  -4261597.65244  23266093.6274   23266090.1194
       262.6314
   3528557.80547   2748314.25042  23949074.1664   23949072.5574
     -2229.9384
  -7109506.42649  -5532548.54746  21840556.1744   21840554.6004
       961.8154
   8081660.97349   6290565.67246  21808679.5254   21808677.9284
     -2928.8724
  -2201579.69947  -1710724.90643  24062468.3614   24062467.5104
       -58.7694
  -4518575.85948  -3518278.26243  23887769.7994   23887769.0844
      2254.5304
  17953528.83648  13968639.30142  24794615.1354   24794612.4984
     -4389.1364
  -1057421.22349   -824264.32046  21443852.5724   21443850.4474
      -291.1284
 04  9  8 22 17 15.0020000  0  8G19G 3G 8G13G10G28G23G27
  -5474089.96148  -4264565.82044  23265368.5184   23265365.1704
       253.9454
   3562141.19947   2774483.10942  23955464.3144   23955463.1744
     -2238.8934
  -7123877.83249  -5543747.03546  21837821.4244   21837819.5254
       958.0944
   8125703.48849   6324884.49646  21817060.6504   21817058.9434
     -2936.1684
  -2200554.27747  -1709925.87543  24062663.4864   24062662.1004
       -68.3614
  -4552336.73848  -3544585.41443  23881344.7684   23881343.7054
      2250.7254
  18019403.07847  14019969.82042  24807150.3854   24807147.4754
     -4391.6164
  -1053002.88749   -820821.46146  21444693.5884   21444691.3614
      -294.5564
 04  9  8 22 17 30.0020000  0  8G19G 3G 8G13G10G28G23G27
  -5477767.96148  -4267431.77344  23264668.4324   23264665.0804
       245.2004
   3595859.30147   2800756.94542  23961881.0724   23961879.8144
     -2247.8734
  -7138193.00449  -5554901.70746  21835097.3384   21835095.4204
       954.3454
   8169856.03949   6359289.06346  21825462.7524   21825461.2444
     -2943.5034
  -2199384.19947  -1709014.12143  24062886.1974   24062884.8504
       -78.0054
  -4586039.68748  -3570847.41043  23874931.3464   23874930.6584
      2246.8634
  18085315.02347  14071329.72742  24819692.3614   24819690.8184
     -4394.1304
  -1048532.26249   -817337.85246  21445544.1434   21445542.0724
      -298.0424
 04  9  8 22 17 45.0030000  0  8G19G 3G 8G13G10G28G23G27
  -5481313.48448  -4270194.51644  23263994.4374   23263990.7924
       236.3684
   3629715.64847   2827138.51242  23968324.0464   23968322.5894
     -2257.0904
  -7152451.25849  -5566012.02746  21832383.9214   21832382.1204
       950.5504
   8214122.70349   6393782.55946  21833886.3514   21833884.7574
     -2951.1114
  -2198067.93047  -1707988.44543  24063136.7494   24063135.6474
       -87.7514
  -4619685.42648  -3597064.81243  23868528.7884   23868528.1634
      2243.0494
  18151270.01647  14122723.15242  24832243.8434   24832242.0814
     -4396.9994
  -1044007.71149   -813812.23446  21446404.8044   21446403.2534
      -301.6374
 04  9  8 22 18  0.0030000  0  8G19G 3G 8G13G10G28G23G27
  -5484726.37948  -4272853.89544  23263345.3194   23263341.3514
       227.5264
   3663705.13347   2853623.81342  23974791.0624   23974790.2414
     -2265.9664
  -7166650.93449  -5577076.69946  21829681.8584   21829679.9094
       946.6454
   8258497.09049   6428359.98046  21842330.7494   21842328.8974
     -2958.2924
  -2196606.12147  -1706849.37543  24063414.4914   24063413.7224
       -97.4544
  -4653269.64548  -3623234.30143  23862137.9444   23862136.7924
      2238.9484
  18217258.67647  14174142.82042  24844801.1554   24844799.2724
     -4399.2444
  -1039430.10949   -810245.27046  21447275.8664   21447274.5384
      -305.1734
 04  9  8 22 18 15.0030000  0  8G19G 3G 8G13G10G28G23G27
  -5488006.89848  -4275410.12944  23262720.6164   23262717.1514
       218.7014
   3697829.35547   2880214.11743  23981284.8664   23981283.9764
     -2274.9484
  -7180793.28949  -5588096.71546  21826990.6014   21826988.7224
       942.8244
   8302981.58249   6463023.19946  21850796.0774   21850794.0774
     -2965.6334
  -2194998.87147  -1705596.96942  24063720.6324   24063719.2294
      -107.1504
  -4686794.77748  -3649357.75043  23855757.9604   23855757.1714
      2235.0094
  18283284.91846  14225591.73442  24857364.8274   24857363.6474
     -4401.7494
  -1034799.45749   -806636.96546  21448156.9684   21448155.4134
      -308.7104
 04  9  8 22 18 30.0030000  0  7G19G 3G 8G13G10G28G27
  -5491154.96548  -4277863.15244  23262121.2654   23262117.8394
       209.8714
   3732088.19947   2906909.30143  23987804.2804   23987803.4294
     -2283.9234
  -7194878.38349  -5599072.10246  21824310.6474   21824308.6164
       939.0064
   8347576.02349   6497772.09046  21859282.0694   21859280.1164
     -2972.9634
  -2193246.14147  -1704231.20742  24064054.7104   24064052.7964
      -116.8494
  -4720260.75047  -3675435.10243  23849390.0854   23849388.9174
      2231.0654
  -1030115.76249   -802987.33646  21449048.2184   21449046.9134
      -312.2464
 04  9  8 22 18 45.0030000  0  7G19G 3G 8G13G10G28G27
  -5494173.39548  -4280215.15644  23261547.7334   23261543.4404
       201.2294
   3766478.29747   2933706.77742  23994348.4444   23994347.5934
     -2292.6734
  -7208909.13749  -5610005.14546  21821640.4444   21821638.1284
       935.3844
   8392277.26249   6532604.21546  21867788.3744   21867786.2264
     -2980.0834
  -2191351.02747  -1702754.48842  24064415.4294   24064413.5584
      -126.3414
  -4753670.52047  -3701468.64543  23843031.9294   23843031.0654
      2227.3184
  -1025382.02349   -799298.69946  21449949.3514   21449947.6754
      -315.5834
 04  9  8 22 19  0.0030000  0  7G19G 3G 8G13G10G28G27
  -5497057.78148  -4282462.71144  23260998.6554   23260994.4484
       192.2924
   3801003.77047   2960609.73042  24000918.5624   24000917.1284
     -2301.6984
  -7222881.12149  -5620892.39846  21818981.7184   21818979.8544
       931.4664
   8437089.39849   6567522.74646  21876315.4764   21876314.0854
     -2987.4764
  -2189309.22747  -1701163.47743  24064803.2724   24064801.8784
      -136.1204
  -4787019.68047  -3727454.96143  23836686.0854   23836684.7924
      2223.2774
  -1020593.99249   -795567.77047  21450860.4684   21450858.6594
      -319.2024
 04  9  8 22 19 15.0030000  0  7G19G 3G 8G13G10G28G27
  -5499809.03148  -4284606.52044  23260474.9834   23260471.6124
       183.4174
   3835663.39147   2987617.21142  24007513.8904   24007511.8974
     -2310.6414
  -7236795.68449  -5631734.91046  21816333.8664   21816331.8154
       927.6384
   8482011.14549   6602526.68046  21884863.9764   21884862.3744
     -2994.7834
  -2187121.80147  -1699458.98443  24065219.6554   24065217.8744
      -145.8284
  -4820309.15248  -3753394.77343  23830351.3194   23830350.1794
      2219.2984
  -1015752.56249   -791795.22746  21451781.3514   21451779.6164
      -322.7624
 04  9  8 22 19 30.0030000  0  7G19G 3G 8G13G10G28G27
  -5502427.52748  -4286646.88744  23259976.9444   23259973.2964
       174.5664
   3870456.37147   3014728.62142  24014135.4914   24014133.3234
     -2319.5324
  -7250653.14549  -5642532.91846  21813696.8194   21813694.7574
       923.8314
   8527041.81649   6637615.49646  21893433.1324   21893431.4604
     -3002.0454
  -2184789.16447  -1697641.34843  24065663.5694   24065661.9834
      -155.5094
  -4853539.20748  -3779288.28143  23824027.6404   23824026.6514
      2215.3374
  -1010858.43049   -787981.60546  21452712.9134   21452710.9294
      -326.2764
 04  9  8 22 19 45.0030000  0  7G19G 3G 8G13G10G28G27
  -5504911.60248  -4288582.50444  23259503.9524   23259500.3624
       165.6054
   3905384.10547   3041945.04342  24020781.9834   24020780.3004
     -2328.5164
  -7264451.91049  -5653285.19546  21811071.0224   21811069.0304
       919.9184
   8572182.74249   6672790.23046  21902023.1474   21902021.5544
     -3009.3954
  -2182309.74247  -1695709.32442  24066135.8434   24066134.4334
      -165.2954
  -4886708.21148  -3805134.22343  23817716.0624   23817714.9564
      2211.2674
  -1005909.79349   -784125.52746  21453654.6634   21453652.6444
      -329.9094
 04  9  8 22 20  0.0030000  0  7G19G 3G 8G13G10G28G27
  -5507260.26648  -4290412.61344  23259056.8824   23259052.8664
       156.5784
   3940447.23047   3069266.94542  24027453.7264   24027453.1634
     -2337.5424
  -7278191.09449  -5663991.05146  21808456.2574   21808454.4874
       915.9464
   8617434.53949   6708051.35946  21910634.1014   21910632.7764
     -3016.7864
  -2179682.92647  -1693662.44542  24066635.5224   24066633.9834
      -175.1214
  -4919815.49247  -3830932.06643  23811415.5154   23811414.6834
      2207.1524
  -1000906.00449   -780226.47346  21454606.8584   21454604.9874
      -333.5864
 04  9  8 22 20 15.0030000  0  7G19G 3G 8G13G10G28G27
  -5509473.49248  -4292137.19544  23258636.2574   23258631.8864
       147.5484
   3975645.35246   3096694.03543  24034151.8514   24034150.9994
     -2346.5414
  -7291870.82449  -5674650.56246  21805853.0224   21805851.5384
       911.9824
   8662796.87149   6743398.60546  21919266.8664   21919265.0934
     -3024.1554
  -2176908.83647  -1691500.81642  24067163.1794   24067162.0114
      -184.9394
  -4952860.82447  -3856681.62943  23805127.5624   23805126.1364
      2203.0224
   -995847.20349   -776284.55146  21455569.3824   21455567.5034
      -337.2534
 04  9  8 22 20 30.0030000  0  7G19G 3G 8G13G10G28G27
  -5511553.43748  -4293757.91444  23258239.9914   23258236.1284
       138.6634
   4010975.76647   3124224.21942  24040874.5624   24040874.2804
     -2355.3614
  -7305493.41849  -5685265.57046  21803261.0544   21803259.3664
       908.1734
   8708267.18449   6778830.00046  21927919.4764   21927917.6404
     -3031.3544
  -2173989.68447  -1689226.15642  24067719.1944   24067717.6634
      -194.6104
  -4985846.57848  -3882384.77043  23798850.2654   23798849.5654
      2199.0504
   -990735.62149   -772301.49646  21456542.3194   21456540.1124
      -340.7724
 04  9  8 22 20 45.0030000  0  7G19G 3G 8G13G10G28G27
  -5513499.23848  -4295274.12144  23257869.5694   23257865.7224
       129.7204
   4046439.23446   3151858.08242  24047622.9214   24047622.4134
     -2364.2314
  -7319057.89549  -5695835.27746  21800679.6014   21800678.0544
       904.2984
   8753846.20349   6814346.10546  21936592.8124   21936591.0654
     -3038.6014
  -2170924.61747  -1686837.79742  24068301.7654   24068300.4294
      -204.3384
  -5018771.66448  -3908040.66043  23792585.1014   23792583.5544
      2195.0064
   -985570.35549   -768276.61747  21457525.2264   21457523.2614
      -344.3514
 04  9  8 22 21  0.0030000  0  7G19G 3G 8G13G10G28G27
  -5515314.10548  -4296688.28144  23257524.2024   23257520.6124
       120.9914
   4082032.07047   3179592.76242  24054396.7964   24054395.5264
     -2372.8564
  -7332567.59848  -5706362.31646  21798108.8744   21798107.1674
       900.6474
   8799530.38748   6849944.15246  21945286.3274   21945284.2924
     -3045.6124
  -2167716.98047  -1684338.33242  24068912.5224   24068911.1364
      -213.8424
  -5051639.25448  -3933651.71543  23786330.2964   23786329.1904
      2191.1734
   -980354.80949   -764212.55547  21458517.4604   21458515.7614
      -347.7034
 04  9  8 22 21 15.0030000  0  7G19G 3G 8G13G10G28G27
  -5516995.00448  -4297998.05944  23257204.0624   23257200.8234
       112.0604
   4117756.88347   3207430.26242  24061193.9834   24061194.2724
     -2381.6544
  -7346020.00448  -5716844.70346  21795548.9134   21795547.4404
       896.8274
   8845322.33649   6885626.17646  21954000.2574   21953998.2654
     -3052.7974
  -2164364.05547  -1681725.67242  24069550.3434   24069548.5894
      -223.5284
  -5084446.59848  -3959215.84443  23780086.7104   23780085.3194
      2187.1564
   -975086.12149   -760107.08646  21459520.3974   21459518.4724
      -351.2464
 04  9  8 22 21 30.0030000  0  7G19G 3G 8G13G10G28G27
  -5518544.25048  -4299205.24644  23256909.7884   23256906.2964
       103.2834
   4153611.01247   3235368.52043  24068017.0304   24068017.0344
     -2390.2754
  -7359417.18049  -5727284.05946  21792999.5074   21792997.6514
       893.1454
   8891219.35249   6921390.06646  21962734.0074   21962732.4054
     -3059.8014
  -2160868.38747  -1679001.77742  24070215.1554   24070214.4134
      -233.0454
  -5117195.94948  -3984734.77043  23773854.9214   23773853.3434
      2183.2904
   -969766.80949   -755962.16846  21460532.4604   21460530.6284
      -354.6214
 04  9  8 22 21 45.0030000  0  7G19G 3G 8G13G10G28G27
  -5519961.39548  -4300309.52044  23256639.7804   23256635.7694
        94.4764
   4189594.46547   3263407.56643  24074864.6244   24074864.5584
     -2398.8974
  -7372758.75048  -5737680.07046  21790460.6634   21790458.6674
       889.4384
   8937221.66049   6957235.99645  21971488.1014   21971486.1474
     -3066.8214
  -2157229.54747  -1676166.31642  24070908.4604   24070907.1984
      -242.5894
  -5149886.84048  -4010208.16443  23767634.9134   23767633.1364
      2179.3934
   -964396.41449   -751777.44546  21461554.7964   21461552.6324
      -358.0264
 04  9  8 22 22  0.0030000  0  7G19G 3G 8G13G10G28G27
  -5521244.93448  -4301309.66844  23256395.0304   23256391.6404
        85.5694
   4225708.53547   3291548.39543  24081737.3044   24081737.2654
     -2407.6054
  -7386043.50848  -5748031.82846  21787932.8904   21787931.1364
       885.6514
   8983330.53948   6993164.98045  21980262.4444   21980260.4684
     -3073.9254
  -2153446.02347  -1673218.11742  24071628.0464   24071626.9174
      -252.2354
  -5182517.73848  -4035634.80143  23761425.3664   23761423.6594
      2175.3934
   -958973.46549   -747551.77346  21462586.5934   21462584.3274
      -361.5304
 04  9  8 22 22 15.0030000  0  7G19G 3G 8G13G10G28G27
  -5522396.02048  -4302206.60544  23256176.2494   23256172.7614
        76.7394
   4261951.76247   3319789.86742  24088634.2104   24088633.9404
     -2416.2154
  -7399272.48048  -5758340.10946  21785415.4444   21785413.5584
       881.9324
   9029544.42648   7029175.79345  21989056.5154   21989054.7224
     -3080.9264
  -2149519.21147  -1670158.26242  24072374.9444   24072373.9794
      -261.7884
  -5215089.91848  -4061015.68443  23755226.5934   23755225.0734
      2171.4794
   -953499.31249   -743286.19546  21463628.1244   21463625.9054
      -364.9434
 04  9  8 22 22 30.0030000  0  7G19G 3G 8G13G10G28G27
  -5523412.74248  -4302998.83645  23255983.2494   23255980.0424
        67.7824
   4298325.63747   3348133.13743  24095555.8354   24095556.0074
     -2424.9254
  -7412444.11748  -5768603.71946  21782908.7104   21782907.0544
       878.1094
   9075864.78548   7065269.55546  21997871.0154   21997869.2614
     -3088.0244
  -2145447.28147  -1666985.34442  24073149.9684   24073149.1444
      -271.4624
  -5247601.41848  -4086349.28943  23749040.1084   23749038.7184
      2167.4334
   -947972.10249   -738979.28146  21464679.9834   21464677.6944
      -368.4814
 04  9  8 22 22 45.0030000  0  7G19G 3G 8G13G10G28G27
  -5524296.39148  -4303687.39145  23255814.8904   23255811.5034
        58.9104
   4334828.43847   3376576.85942  24102501.4834   24102501.8584
     -2433.5204
  -7425559.46948  -5778823.47346  21780413.1164   21780411.4604
       874.3574
   9122290.05548   7101445.06645  22006705.6164   22006703.7494
     -3095.0184
  -2141231.84447  -1663700.57442  24073952.1554   24073950.8394
      -281.0294
  -5280053.66448  -4111636.71943  23742864.7414   23742862.9484
      2163.4834
   -942393.22349   -734632.09846  21465741.3434   21465739.4764
      -371.9254
 04  9  8 22 23  0.0030000  0  7G19G 3G 8G13G10G28G27
  -5525047.05948  -4304272.31644  23255671.6874   23255668.7374
        50.0454
   4371459.71547   3405120.70342  24109472.5694   24109472.2804
     -2442.0854
  -7438618.95749  -5788999.68746  21777928.0854   21777926.4054
       870.6334
   9168819.73448   7137701.93845  22015559.5854   22015557.7184
     -3101.9794
  -2136873.12547  -1660304.17642  24074781.0074   24074780.3904
      -290.5814
  -5312446.69548  -4136877.98843  23736700.3584   23736698.9404
      2159.5354
   -936763.01649   -730244.91846  21466812.7804   21466810.9054
      -375.3474
 04  9  8 22 23 15.0030000  0  7G19G 3G 8G13G10G28G27
  -5525665.06248  -4304753.86744  23255554.2104   23255551.1044
        41.2004
   4408218.77747   3433764.12143  24116467.7264   24116467.2574
     -2450.6044
  -7451622.80949  -5799132.55546  21775453.5224   21775451.9484
       866.9234
   9215453.24648   7174039.71145  22024433.5304   22024431.6874
     -3108.9014
  -2132371.74247  -1656796.58642  24075637.9834   24075637.0224
      -300.0924
  -5344780.81648  -4162073.37543  23730546.8904   23730545.8274
      2155.6084
   -931081.92649   -725818.09446  21467893.8584   21467891.6084
      -378.7394
 04  9  8 22 23 30.0030000  0  7G19G 3G 8G13G10G28G27
  -5526150.44148  -4305132.07444  23255462.1474   23255458.5544
        32.3594
   4445105.28947   3462506.83643  24123486.8194   24123486.2884
     -2459.1014
  -7464571.19949  -5809222.20746  21772989.6874   21772987.7264
       863.2264
   9262190.33649   7210458.19945  22033327.8194   22033325.7264
     -3115.8064
  -2127727.56247  -1653177.74643  24076522.1554   24076521.0974
      -309.6124
  -5377056.05948  -4187222.88743  23724405.1794   23724403.4214
      2151.6834
   -925349.93749   -721351.61346  21468984.8514   21468982.7454
      -382.1334
 04  9  8 22 23 45.0030000  0  7G19G 3G 8G13G10G28G27
  -5526500.72748  -4305405.02344  23255395.1474   23255391.7614
        23.3524
   4482121.27347   3491350.44542  24130531.0854   24130529.9954
     -2467.7324
  -7477461.76249  -5819266.78946  21770536.3514   21770534.4994
       859.3714
   9309033.18049   7246959.10545  22042241.6324   22042239.7184
     -3122.8564
  -2122938.40248  -1649445.93043  24077433.6164   24077432.3044
      -319.2774
  -5409270.01648  -4212324.64843  23718275.2414   23718273.3124
      2147.5974
   -919564.66849   -716843.61746  21470085.7724   21470083.6324
      -385.6854
 04  9  8 22 24  0.0030000  0  7G19G 3G 8G13G10G28G27
  -5526718.45748  -4305574.68044  23255353.9914   23255350.4404
        14.5154
   4519263.80147   3520292.67242  24137599.1164   24137597.9724
     -2476.1684
  -7490297.02749  -5829268.28546  21768094.1244   21768092.3084
       855.6844
   9355978.79749   7283540.09445  22051174.7104   22051172.9254
     -3129.7084
  -2118007.00047  -1645603.27043  24078372.2184   24078370.4724
      -328.7604
  -5441425.11348  -4237380.52043  23712156.0304   23712154.6514
      2143.6734
   -913728.92249   -712296.28146  21471196.1874   21471194.1594
      -389.0504
 04  9  8 22 24 15.0030000  0  7G19G 3G 8G13G10G28G27
  -5526802.16448  -4305639.90244  23255337.5544   23255334.3434
         5.5804
   4556534.02348   3549334.39843  24144691.8194   24144690.0504
     -2484.6824
  -7503075.71149  -5839225.69946  21765662.1324   21765660.8004
       851.9124
   9403028.40249   7320202.10545  22060128.2804   22060126.2184
     -3136.6404
  -2112931.92246  -1641648.68042  24079337.2724   24079336.1634
      -338.3394
  -5473520.10248  -4262389.55543  23706048.5544   23706047.2884
      2139.6664
   -907841.12149   -707708.38347  21472316.7104   21472314.7964
      -392.5204
 04  9  8 22 24 30.0030000  0  7G19G 3G 8G13G10G28G27
  -5526752.82048  -4305601.43044  23255347.3434   23255344.2184
        -3.2904
   4593930.63348   3578474.61342  24151807.7964   24151806.7884
     -2493.1074
  -7515798.82849  -5849139.80946  21763240.8824   21763239.5114
       848.2084
   9450180.59049   7356944.05945  22069101.1014   22069098.7764
     -3143.4794
  -2107714.34846  -1637583.03943  24080330.3354   24080329.5154
      -347.8384
  -5505555.84848  -4287352.44543  23699952.2184   23699950.6044
      2135.7164
   -901902.43049   -703080.83246  21473446.8664   21473444.8584
      -395.9134
 04  9  8 22 24 45.0030000  0  7G19G 3G 8G13G10G28G27
  -5526569.55948  -4305458.61744  23255381.8744   23255378.7884
       -12.2174
   4631454.14548   3607713.70343  24158948.0624   24158946.8904
     -2501.5674
  -7528465.60249  -5859010.01246  21760830.4134   21760829.1794
       844.4524
   9497435.98849   7393766.43045  22078093.1404   22078091.1754
     -3150.3604
  -2102353.44547  -1633405.71143  24081350.4604   24081349.7334
      -357.3934
  -5537531.40648  -4312268.42243  23693867.8434   23693865.5584
      2131.7044
   -895912.00849   -698412.96946  21474586.6244   21474584.8584
      -399.3614
 04  9  8 22 25  0.0030000  0  7G19G 3G 8G13G10G28G27
  -5526250.62948  -4305210.08644  23255442.7494   23255439.5224
       -21.2624
   4669105.95347   3637052.77742  24166112.5154   24166111.5384
     -2510.1214
  -7541074.51649  -5868835.14146  21758431.2104   21758429.5114
       840.5944
   9544796.01249   7430670.33245  22087105.4374   22087103.7804
     -3157.3354
  -2096847.71548  -1629115.52743  24082398.1714   24082396.9214
      -367.0494
  -5569445.11748  -4337136.22743  23687794.8974   23687792.9604
      2127.5814
   -889868.27349   -693703.56646  21475736.7804   21475734.7724
      -402.9164
 04  9  8 22 25 15.0030000  0  7G19G 3G 8G13G10G28G27
  -5525793.74648  -4304854.07444  23255529.7804   23255526.3354
       -30.4594
   4706887.89147   3666493.23442  24173302.4524   24173302.1124
     -2518.7964
  -7553623.27049  -5878613.38746  21756043.4524   21756041.8234
       836.5844
   9592262.55149   7467657.23445  22096138.2414   22096136.3354
     -3164.4364
  -2091195.06648  -1624710.87542  24083473.8974   24083472.6674
      -376.8434
  -5601294.84848  -4361954.14843  23681734.4684   23681732.6674
      2123.3154
   -883769.19549   -688951.03547  21476897.5544   21476895.5464
      -406.6054
 04  9  8 22 25 30.0030000  0  7G19G 3G 8G13G10G28G27
  -5525201.94148  -4304392.91844  23255642.6474   23255639.2844
       -39.4544
   4744796.68047   3696032.53542  24180515.9294   24180516.2414
     -2527.2534
  -7566114.91849  -5888347.14146  21753666.4764   21753664.9294
       832.7774
   9639832.46549   7504724.68845  22105190.5774   22105188.5264
     -3171.3284
  -2085398.52047  -1620194.08242  24084576.8274   24084575.6444
      -386.4364
  -5633083.38348  -4386724.39843  23675685.2024   23675683.3944
      2119.2364
   -877617.58249   -684157.57046  21478068.2574   21478066.0034
      -410.1084
 04  9  8 22 25 45.0030000  0  7G19G 3G 8G13G10G28G27
  -5524474.88748  -4303826.36744  23255780.8124   23255777.5384
       -48.4704
   4782832.26247   3725670.63742  24187753.8744   24187754.0464
     -2535.7054
  -7578549.00049  -5898036.03146  21751299.8514   21751298.8474
       828.9394
   9687505.50849   7541872.50845  22114262.3664   22114260.5854
     -3178.2034
  -2079458.01648  -1615565.09843  24085707.5854   24085706.0464
      -396.0344
  -5664810.47348  -4411446.78143  23669647.3824   23669645.4684
      2115.1394
   -871413.32849   -679323.08646  21479248.6944   21479246.2884
      -413.6174
 04  9  8 22 26  0.0030000  0  7G19G 3G 8G13G10G28G27
  -5523613.91048  -4303155.46944  23255944.0934   23255941.3974
       -57.3984
   4820993.05147   3755406.30542  24195015.6634   24195015.2144
     -2544.0534
  -7590927.01249  -5907681.23046  21748944.4834   21748942.9094
       825.2014
   9735280.29749   7579099.60545  22123353.4444   22123351.8944
     -3184.9864
  -2073374.90648  -1610825.02042  24086865.2334   24086863.3354
      -405.5414
  -5696477.34048  -4436122.23043  23663621.6634   23663620.2844
      2111.1244
   -865157.75049   -674448.60947  21480439.3354   21480436.9094
      -417.0394
 04  9  8 22 26 15.0030000  0  7G19G 3G 8G13G10G28G27
  -5522615.37148  -4302377.37144  23256133.8824   23256131.3124
       -66.5694
   4859282.13347   3785241.95342  24202302.3124   24202301.5694
     -2552.6054
  -7603245.62949  -5917280.15646  21746600.5624   21746598.7534
       821.2414
   9783159.94149   7616408.39545  22132465.0384   22132462.7614
     -3191.9764
  -2067145.83247  -1605971.20742  24088050.5624   24088049.1284
      -415.2724
  -5728080.55148  -4460748.05943  23657607.0304   23657606.7724
      2106.8814
   -858847.34449   -669531.41447  21481639.9684   21481637.7804
      -420.6944
 04  9  8 22 26 30.0030000  0  7G19G 3G 8G13G10G28G27
  -5521478.98848  -4301491.87944  23256350.6404   23256347.2534
       -75.7594
   4897699.43447   3815177.48842  24209612.6634   24209612.0424
     -2561.1534
  -7615504.40649  -5926832.44146  21744267.7104   21744265.9374
       817.2524
   9831144.35249   7653798.84045  22141595.8584   22141593.8974
     -3198.9614
  -2060770.66447  -1601003.55542  24089263.6944   24089262.3744
      -425.0114
  -5759619.84048  -4485324.08244  23651605.8044   23651604.2024
      2102.6194
   -852482.12149   -664571.49246  21482851.1244   21482849.1444
      -424.3484
 04  9  8 22 26 45.0030000  0  7G19G 3G 8G13G10G28G27
  -5520206.25448  -4300500.13344  23256592.8044   23256589.3974
       -84.8494
   4936243.07847   3845211.50442  24216948.2804   24216946.5224
     -2569.5764
  -7627705.07049  -5936339.44546  21741945.6944   21741944.3474
       813.3784
   9879231.75449   7691269.52745  22150746.5304   22150744.9564
     -3205.8274
  -2054250.98047  -1595923.28142  24090504.3274   24090502.7724
      -434.6464
  -5791096.67248  -4509851.45743  23645615.8274   23645614.2184
      2098.4554
   -846063.39149   -659569.88746  21484072.4994   21484070.2494
      -427.9154
 04  9  8 22 27  0.0030000  0  7G19G 3G 8G13G10G28G27
  -5518795.82448  -4299401.09444  23256861.3044   23256857.8704
       -94.0294
   4974914.07047   3875344.72742  24224306.5304   24224305.2694
     -2578.0664
  -7639846.35949  -5945800.19546  21739635.6874   21739633.7884
       809.4194
   9927423.28949   7728821.35945  22159917.1084   22159915.5854
     -3212.7694
  -2047585.64847  -1590729.50842  24091772.4374   24091771.5224
      -444.3554
  -5822509.73448  -4534329.12143  23639637.7024   23639636.8514
      2094.2044
   -839590.00049   -654525.68046  21485304.2654   21485302.2224
      -431.5594
 04  9  8 22 27 15.0030000  0  7G19G 3G 8G13G10G28G27
  -5517248.11348  -4298195.06244  23257155.6794   23257152.5384
      -103.1814
   5013711.64847   3905576.58642  24231689.1404   24231688.8704
     -2586.5054
  -7651928.58649  -5955214.90646  21737336.6474   21737334.8004
       805.4824
   9975718.14548   7766453.69545  22169107.4374   22169105.6874
     -3219.6574
  -2040775.24647  -1585422.71142  24093068.1634   24093067.0854
      -454.0274
  -5853859.26248  -4558757.29344  23633672.3744   23633670.9684
      2089.9684
   -833062.46949   -649439.29346  21486546.1794   21486544.7614
      -435.1694
 04  9  8 22 27 30.0030000  0  7G19G 3G 8G13G10G28G27
  -5515564.05548  -4296882.79744  23257476.5464   23257472.7294
      -112.2714
   5052634.53147   3935906.09842  24239096.1404   24239095.5074
     -2594.8594
  -7663952.91048  -5964584.50446  21735048.3514   21735047.1634
       801.6224
  10024115.17648   7804165.64845  22178316.8514   22178315.2454
     -3226.4694
  -2033820.78547  -1580003.65642  24094392.2414   24094390.2454
      -463.6314
  -5885146.27748  -4583136.73443  23627718.5624   23627716.8044
      2085.8014
   -826481.78149   -644311.49246  21487798.7184   21487796.6874
      -438.7124
 04  9  8 22 27 45.0030000  0  7G19G 3G 8G13G10G28G27
  -5513743.43748  -4295464.12544  23257822.6324   23257818.8584
      -121.3744
   5091682.57847   3966333.11742  24246526.7964   24246526.6594
     -2603.2034
  -7675919.01248  -5973908.73446  21732771.0464   21732769.5774
       797.7404
  10072614.25848   7841957.11345  22187546.5544   22187544.7964
     -3233.2724
  -2026722.19147  -1574472.28142  24095742.8664   24095741.0034
      -473.2404
  -5916370.60948  -4607467.34843  23621777.1324   23621775.4994
      2081.6224
   -819847.69949   -639142.08247  21489061.0074   21489059.1244
      -442.2724
 04  9  8 22 28  0.0030000  0  7G19G 3G 8G13G10G28G27
  -5511785.56648  -4293938.48844  23258195.3744   23258191.6754
      -130.5254
   5130856.00447   3996857.84442  24253981.4374   24253981.6364
     -2611.5624
  -7687826.19549  -5983187.05546  21730505.3514   21730503.7294
       793.8124
  10121215.70348   7879828.35245  22196794.6324   22196792.8314
     -3240.0964
  -2019478.91847  -1568828.15242  24097120.8354   24097119.6554
      -482.8854
  -5947531.52348  -4631748.54343  23615846.8274   23615845.5814
      2077.3944
   -813159.69149   -633930.64146  21490333.9914   21490331.9174
      -445.8674
 04  9  8 22 28 15.0030000  0  7G19G 3G 8G13G10G28G27
  -5509691.00847  -4292306.35944  23258593.6714   23258590.3944
      -139.6374
   5170154.03147   4027479.67642  24261460.1164   24261459.0624
     -2619.8684
  -7699675.11749  -5992419.97346  21728250.0934   21728248.8704
       789.9284
  10169918.59449   7917778.63345  22206062.7334   22206060.6754
     -3246.8594
  -2012091.68046  -1563071.88743  24098526.6634   24098525.5934
      -492.4834
  -5978629.55948  -4655980.73044  23609929.4374   23609927.9564
      2073.2024
   -806418.39849   -628677.68746  21491616.5624   21491614.7804
      -449.4204
 04  9  8 22 28 30.0030000  0  7G19G 3G 8G13G10G28G27
  -5507458.33248  -4290566.59044  23259018.2884   23259015.1984
      -148.8454
   5209577.82447   4058199.50442  24268961.5934   24268960.6674
     -2628.2534
  -7711464.35949  -6001606.38746  21726007.1944   21726005.5154
       785.9494
  10218724.13348   7955808.90245  22215350.0154   22215347.8274
     -3253.7034
  -2004559.30946  -1557202.50843  24099960.3514   24099959.3704
      -502.1584
  -6009663.27348  -4680162.80944  23604023.5774   23604022.5734
      2068.9144
   -799622.32849   -623382.03946  21492909.8354   21492907.7614
      -453.0714
 04  9  8 22 28 45.0030000  0  7G19G 3G 8G13G10G28G27
  -5505085.37947  -4288717.53144  23259470.3124   23259467.3124
      -158.1974
   5249129.07047   4089018.66442  24276487.8274   24276487.8354
     -2636.7504
  -7723191.92249  -6010744.73846  21723775.6554   21723773.4214
       781.8384
  10267634.18848   7993920.61745  22224657.3824   22224655.5424
     -3260.6704
  -1996879.65247  -1551218.35542  24101421.6244   24101420.8544
      -511.9774
  -6040630.57448  -4704293.14544  23598130.6324   23598129.1874
      2064.4874
   -792769.55549   -618042.22346  21494214.1014   21494212.1124
      -456.8524
 04  9  8 22 29  0.0030000  0  7G19G 3G 8G13G10G28G27
  -5502575.28148  -4286761.59844  23259947.9054   23259944.2884
      -167.3404
   5288804.24247   4119934.37142  24284037.7264   24284037.2454
     -2645.0114
  -7734861.04749  -6019837.56246  21721554.7804   21721553.1904
       777.9424
  10316645.30949   8032111.09045  22233984.0074   22233981.5304
     -3267.4084
  -1989056.10248  -1545122.06642  24102910.2414   24102909.1984
      -521.5704
  -6071534.59448  -4728374.15644  23592249.4994   23592248.5504
      2060.2684
   -785863.19549   -612660.64546  21495528.1944   21495525.9954
      -460.4244
 04  9  8 22 29 15.0030000  0  7G19G 3G 8G13G10G28G27
  -5499928.20348  -4284698.93044  23260451.6944   23260448.1714
      -176.4724
   5328602.88347   4150946.26642  24291611.4134   24291610.4764
     -2653.2434
  -7746471.89148  -6028884.96946  21719345.4524   21719343.9444
       774.0564
  10365756.83648   8070379.78545  22243329.6404   22243327.7184
     -3274.1024
  -1981088.98848  -1538913.93742  24104426.7414   24104425.1714
      -531.1414
  -6102375.42648  -4752405.93744  23586381.3194   23586379.1284
      2056.0554
   -778903.57049   -607237.55946  21496852.6164   21496850.8234
      -463.9754
 04  9  8 22 29 30.0030000  0  7G19G 3G 8G13G10G28G27
  -5497142.09848  -4282527.93044  23260981.9834   23260978.8664
      -185.7404
   5368526.75847   4182055.76642  24299208.1634   24299207.3904
     -2661.5924
  -7758022.48049  -6037885.42246  21717147.4134   21717145.7334
       770.0394
  10414970.68048   8108728.19545  22252694.9054   22252693.0694
     -3280.9234
  -1972976.30947  -1532592.37542  24105970.5464   24105968.9214
      -540.8454
  -6133150.93048  -4776386.81643  23580524.5624   23580523.2884
      2051.7004
   -771888.61349   -601771.35946  21498187.7264   21498185.7884
      -467.6644
 04  9  8 22 29 45.0030000  0  7G19G 3G 8G13G10G28G27
  -5494218.80547  -4280250.02344  23261538.2804   23261535.1754
      -194.8864
   5408573.57047   4213261.06643  24306828.9604   24306828.0854
     -2669.7874
  -7769514.62149  -6046840.32846  21714960.4294   21714959.1834
       766.1434
  10464284.71948   8147154.69545  22262078.9444   22262076.8864
     -3287.6034
  -1964719.99647  -1526158.89542  24107541.5464   24107540.2104
      -550.4214
  -6163862.96148  -4800318.22344  23574680.2024   23574678.9954
      2047.4694
   -764820.10249   -596263.43446  21499532.5304   21499530.4254
      -471.2344
 04  9  8 22 30  0.0030000  0  7G19G 3G 8G13G10G28G27
  -5491155.83248  -4277863.27044  23262120.8354   23262117.4564
      -204.1984
   5448745.43048   4244563.80142  24314474.0544   24314472.4684
     -2678.1244
  -7780945.81249  -6055747.74246  21712785.0694   21712783.6324
       762.0794
  10513701.06348   8185660.91445  22271482.0304   22271480.8824
     -3294.4234
  -1956317.82047  -1519611.74642  24109140.1634   24109138.8194
      -560.1454
  -6194509.14548  -4824198.32844  23568848.5464   23568846.8124
      2043.0794
   -757695.75449   -590711.99247  21500887.9054   21500886.2614
      -474.9574
 04  9  8 22 30 15.0030000  0  7G19G 3G 8G13G10G28G27
  -5487954.99648  -4275369.10244  23262729.7884   23262726.8394
      -213.3894
   5489040.20347   4275962.31642  24322141.3824   24322140.9134
     -2686.3184
  -7792317.77349  -6064609.01246  21710620.9604   21710619.6514
       758.1314
  10563217.52748   8224245.14845  22280904.8974   22280903.4644
     -3301.0984
  -1947771.63747  -1512952.39142  24110766.4294   24110765.0894
      -569.7464
  -6225091.20748  -4848028.46544  23563028.6714   23563027.7104
      2038.8044
   -750517.43049   -585118.48847  21502254.1404   21502252.2534
      -478.5554
 04  9  8 22 30 30.0030000  0  7G19G 3G 8G13G10G28G27
  -5484615.43448  -4272766.84444  23263365.6404   23263361.8974
      -222.6374
   5529458.28947   4307456.91443  24329832.6324   24329832.3154
     -2694.5394
  -7803629.97349  -6073423.70346  21708468.6874   21708466.9404
       754.1474
  10612834.75449   8262907.89845  22290347.0464   22290344.9644
     -3307.8154
  -1939080.89547  -1506180.38342  24112420.5544   24112418.7574
      -579.3834
  -6255608.37148  -4871808.03543  23557221.5624   23557220.3004
      2034.4784
   -743284.40249   -579482.36346  21503630.6554   21503628.5894
      -482.2024
 04  9  8 22 30 45.0030000  0  7G19G 3G 8G13G10G28G27
  -5481138.48448  -4270057.52344  23264026.9914   23264023.4334
      -231.7974
   5569998.05947   4339046.32842  24337547.0384   24337546.5464
     -2702.6514
  -7814883.82049  -6082192.92646  21706326.9294   21706325.3394
       750.2574
  10662550.98849   8301647.79745  22299807.8044   22299805.7924
     -3314.4164
  -1930247.13748  -1499296.93442  24114101.1634   24114100.0384
      -588.9174
  -6286061.90248  -4895538.03143  23551426.0774   23551424.8744
      2030.2354
   -735998.04349   -573804.68446  21505017.2184   21505014.8974
      -485.7574
 04  9  8 22 31  0.0030000  0  7G19G 3G 8G13G10G28G27
  -5477523.47748  -4267240.62544  23264714.5934   23264711.4914
      -241.0014
   5610659.88347   4370730.85242  24345284.9134   24345284.3784
     -2710.7884
  -7826078.86749  -6090916.33646  21704196.6324   21704195.0654
       746.3364
  10712366.78949   8340465.28145  22309287.0774   22309285.3904
     -3321.0534
  -1921269.73447  -1492301.55942  24115809.2264   24115808.7494
      -598.4934
  -6316451.12148  -4919217.91044  23545643.5154   23545641.8274
      2025.9484
   -728657.60249   -568084.86346  21506414.2494   21506411.8784
      -489.3634
 04  9  8 22 31 15.0030000  0  7G19G 3G 8G13G10G28G27
  -5473768.74648  -4264314.84044  23265429.1634   23265425.8704
      -250.3154
   5651445.21947   4402511.63742  24353045.9914   24353045.3044
     -2719.0224
  -7837212.94149  -6099592.22746  21702077.9444   21702076.2924
       742.2724
  10762283.47349   8379361.38345  22318786.0384   22318784.5504
     -3327.7794
  -1912147.09447  -1485193.00842  24117545.4294   24117544.4684
      -608.1764
  -6346774.26248  -4942846.30143  23539872.8434   23539871.9564
      2021.5434
   -721261.42649   -562321.60946  21507821.5464   21507819.1514
      -493.0784
 04  9  8 22 31 30.0030000  0  7G19G 3G 8G13G10G28G27
  -5469877.23848  -4261282.49244  23266169.7494   23266167.3584
      -259.4344
   5692350.61747   4434385.94542  24360830.0624   24360829.8744
     -2727.0274
  -7848289.17249  -6108223.04746  21699970.1084   21699968.3194
       738.4154
  10812297.68849   8418333.47345  22328303.7104   22328301.9644
     -3334.2814
  -1902882.37547  -1477973.74242  24119308.5154   24119307.2924
      -617.6484
  -6377034.16048  -4966425.40644  23534114.6404   23534113.2574
      2017.3274
   -713812.54349   -556517.27746  21509238.9764   21509236.6674
      -496.5924
 04  9  8 22 31 45.0030000  0  7G19G 3G 8G13G10G28G27
  -5465846.83248  -4258141.90244  23266937.0854   23266933.8864
      -268.6944
   5733377.77347   4466355.14842  24368637.4444   24368636.9644
     -2735.1444
  -7859305.54749  -6116807.23446  21697873.9054   21697872.0654
       734.4254
  10862411.33249   8457383.03945  22337840.0384   22337838.2144
     -3340.9104
  -1893473.60947  -1470642.25842  24121098.9444   24121097.5974
      -627.2514
  -6407228.85548  -4989953.71143  23528368.9214   23528367.8274
      2012.9804
   -706308.93049   -550670.31646  21510667.0854   21510664.7184
      -500.2414
 04  9  8 22 32  0.0030000  0  7G19G 3G 8G13G10G28G27
  -5461677.81248  -4254893.32444  23267730.3514   23267726.6554
      -277.9354
   5774526.06347   4498418.73842  24376467.7574   24376466.7574
     -2743.2194
  -7870262.52749  -6125345.13346  21695788.8194   21695787.0344
       730.4654
  10912623.77049   8496509.60245  22347394.8434   22347393.5734
     -3347.4964
  -1883921.26648  -1463198.87143  24122916.9374   24122915.8704
      -636.8234
  -6437358.61748  -5013431.40643  23522635.5224   23522634.2964
      2008.6514
   -698750.99249   -544781.01246  21512105.3904   21512103.1834
      -503.8624
 04  9  8 22 32 15.0030000  0  7G19G 3G 8G13G10G28G27
  -5457369.46147  -4251536.15244  23268549.8824   23268546.2374
      -287.2234
   5815795.93848   4530577.08242  24384321.1554   24384319.5734
     -2751.3254
  -7881159.12149  -6133835.98446  21693715.3354   21693713.4684
       726.4404
  10962935.48849   8535713.52345  22356969.3194   22356967.3704
     -3354.1154
  -1874224.68047  -1455643.09442  24124762.0304   24124761.1324
      -646.4394
  -6467422.56648  -5036857.82043  23516914.8274   23516913.1164
      2004.2634
   -691137.99249   -538848.80546  21513554.1164   21513552.1204
      -507.5334
 04  9  8 22 32 30.0030000  0  7G19G 3G 8G13G10G28G27
  -5452922.91847  -4248071.30544  23269396.3194   23269392.6554
      -296.4364
   5857185.71948   4562828.85242  24392197.5934   24392196.6324
     -2759.3194
  -7891996.76249  -6142280.89146  21691652.9914   21691651.1284
       722.5094
  11013344.89149   8574993.55945  22366561.6714   22366560.2264
     -3360.6274
  -1864385.23847  -1447975.99242  24126634.4524   24126633.2104
      -655.9634
  -6497421.95748  -5060233.93444  23511205.7574   23511203.5424
      1999.9594
   -683471.16049   -532874.65247  21515012.8904   21515010.6714
      -511.1224
 04  9  8 22 32 45.0030000  0  7G19G 3G 8G13G10G28G27
  -5448339.38748  -4244499.69944  23270268.7184   23270265.0694
      -305.5694
   5898693.89548   4595172.87142  24400096.3434   24400096.0464
     -2767.2124
  -7902776.73849  -6150680.86346  21689601.6554   21689599.8664
       718.6654
  11063850.49249   8614348.55545  22376172.6944   22376170.9484
     -3367.0404
  -1854404.31648  -1440198.66843  24128533.6634   24128532.5504
      -665.3954
  -6527357.95348  -5083560.66844  23505508.8124   23505507.3314
      1995.7334
   -675751.76249   -526859.53146  21516481.8194   21516479.6874
      -514.6274
 04  9  8 22 33  0.0030000  0  7G19G 3G 8G13G10G28G27
  -5443615.43747  -4240818.70744  23271167.6474   23271164.1834
      -314.9304
   5940323.61747   4627611.59842  24408018.0384   24408017.4874
     -2775.3154
  -7913495.58649  -6159033.21946  21687562.1874   21687559.9994
       714.5904
  11114455.57849   8653781.07445  22385802.5464   22385801.1404
     -3373.6724
  -1844278.68448  -1432308.55542  24130460.4914   24130459.0504
      -675.0424
  -6557227.17648  -5106835.34844  23499825.5154   23499823.8394
      1991.2824
   -667976.25449   -520800.69546  21517961.3274   21517959.2144
      -518.3674
 04  9  8 22 33 15.0030000  0  7G19G 3G 8G13G10G28G27
  -5438750.29748  -4237027.69144  23272093.2334   23272090.1324
      -324.3434
   5982075.39147   4660145.44942  24415962.9994   24415962.3824
     -2783.4524
  -7924152.41449  -6167337.23446  21685534.1014   21685532.2654
       710.4554
  11165160.67249   8693291.52045  22395450.9374   22395449.7884
     -3380.3404
  -1834007.48448  -1424305.02342  24132414.6944   24132413.4334
      -684.7474
  -6587028.63748  -5130057.23044  23494154.4294   23494152.4054
      1986.7644
   -660143.89549   -514697.55946  21519451.7884   21519449.8044
      -522.1574
 04  9  8 22 33 30.0030000  0  7G19G 3G 8G13G10G28G27
  -5433744.82847  -4233127.31644  23273046.0154   23273042.8004
      -333.6984
   6023947.98047   4692773.43442  24423930.5774   24423930.5424
     -2791.5064
  -7934747.97749  -6175593.50846  21683517.5854   21683515.9134
       706.3714
  11215964.49649   8732878.89845  22405118.6634   22405116.9094
     -3386.9224
  -1823591.91848  -1416189.00042  24134397.5934   24134395.5974
      -694.3714
  -6616763.18748  -5153226.97344  23488495.5774   23488494.5774
      1982.3034
   -652255.75449   -508550.95746  21520953.0934   21520950.7804
      -525.8764
 04  9  8 22 33 45.0030000  0  7G19G 3G 8G13G10G28G27
  -5428598.42247  -4229117.12144  23274024.9604   23274022.1244
      -343.0944
   6065941.73047   4725495.80942  24431922.2264   24431922.1084
     -2799.5834
  -7945281.80949  -6183801.68746  21681513.3044   21681511.6284
       702.2554
  11266867.26649   8772543.38745  22414805.3354   22414803.9214
     -3393.5184
  -1813031.39548  -1407960.02742  24136406.8514   24136405.1324
      -704.0354
  -6646430.25448  -5176344.12944  23482850.3904   23482848.3354
      1977.8044
   -644311.01249   -502360.24646  21522464.7964   21522462.7264
      -529.6494
 04  9  8 22 34  0.0030000  0  7G19G 3G 8G13G10G28G27
  -5423312.55947  -4224998.25844  23275030.8194   23275027.6984
      -352.3914
   6108054.69147   4758311.09442  24439935.4994   24439935.8584
     -2807.5314
  -7955755.23849  -6191962.78546  21679520.0774   21679518.6554
       698.2294
  11317867.26249   8812283.61745  22424510.6404   22424509.2294
     -3400.0004
  -1802327.65647  -1399619.45742  24138443.8974   24138441.3544
      -713.5834
  -6676031.30948  -5199409.85544  23477217.2024   23477215.7104
      1973.4044
   -636311.36349   -496126.75447  21523986.9374   21523985.2534
      -533.3104
 04  9  8 22 34 15.0030000  0  7G19G 3G 8G13G10G28G27
  -5417885.30147  -4220769.22344  23276063.9374   23276060.0774
      -361.8174
   6150288.44947   4791220.49242  24447972.7884   24447972.9874
     -2815.5844
  -7966166.55149  -6200075.49246  21677538.6554   21677537.0304
       694.0884
  11368966.12149   8852100.90245  22434234.3744   22434232.7144
     -3406.5914
  -1791478.97747  -1391165.93742  24140507.6794   24140506.5584
      -723.2454
  -6705564.36348  -5222422.59844  23471597.3514   23471595.9294
      1968.8704
   -628254.83649   -489848.94546  21525520.2574   21525517.9794
      -537.1024
 04  9  8 22 34 30.0030000  0  7G19G 3G 8G13G10G28G27
  -5412318.78947  -4216431.68444  23277123.1554   23277119.4724
      -371.1014
   6192640.55147   4824222.12942  24456032.5154   24456031.0694
     -2823.4734
  -7976517.93049  -6208141.49246  21675569.0464   21675567.0584
       690.0924
  11420161.43049   8891993.32845  22443976.3584   22443974.8274
     -3413.0214
  -1780487.53948  -1382601.18442  24142599.3354   24142597.9174
      -732.7624
  -6735031.44548  -5245383.92244  23465989.9134   23465988.3234
      1964.4724
   -620143.65649   -483528.54347  21527063.4994   21527061.7654
      -540.7454
 04  9  8 22 34 45.0030000  0  7G19G 3G 8G13G10G28G27
  -5406609.36747  -4211982.77044  23278209.5934   23278206.0894
      -380.6284
   6235114.28147   4857318.51642  24464115.0464   24464113.5384
     -2831.5824
  -7986805.90649  -6216158.10246  21673611.3124   21673609.3904
       685.8654
  11471456.55949   8931963.54745  22453737.5384   22453735.7844
     -3419.6754
  -1769349.84048  -1373922.48442  24144718.8044   24144717.8944
      -742.5134
  -6764429.01248  -5268291.08244  23460396.3354   23460394.1634
      1959.8384
   -611974.09849   -477162.65646  21528617.9764   21528616.3004
      -544.6374
 04  9  8 22 35  0.0030000  0  7G19G 3G 8G13G10G28G27
  -5400759.05947  -4207424.07044  23279322.5544   23279319.4134
      -390.0214
   6277707.25047   4890507.83642  24472220.4994   24472219.3124
     -2839.5314
  -7997032.30549  -6224126.71546  21671665.3194   21671663.6444
       681.7604
  11522849.16848   8972009.71945  22463517.0464   22463516.2064
     -3426.1744
  -1758068.14147  -1365131.56242  24146866.0464   24146864.7964
      -752.1134
  -6793758.98848  -5291145.56644  23454814.2574   23454812.6944
      1955.3324
   -603748.37549   -470752.99646  21530183.6474   21530181.5504
      -548.3824
 04  9  8 22 35 15.0030000  0  7G19G 3G 8G13G10G28G27
  -5394768.36748  -4202755.98844  23280462.8354   23280459.1674
      -399.3794
   6320418.66447   4923789.43442  24480347.8354   24480347.5034
     -2847.4284
  -8007197.61349  -6232047.74246  21669731.0464   21669728.7884
       677.6874
  11574338.53548   9012131.28145  22473315.6874   22473313.9404
     -3432.6244
  -1746643.03947  -1356228.87542  24149039.8044   24149038.7414
      -761.6734
  -6823021.84848  -5313947.76644  23449245.9374   23449244.3474
      1950.8574
   -595466.91049   -464299.90646  21531759.4994   21531757.3944
      -552.0984
 04  9  8 22 35 30.0030000  0  7G19G 3G 8G13G10G28G27
  -5388637.08248  -4197978.34844  23281629.6714   23281626.0074
      -408.7524
   6363248.16847   4957163.06342  24488497.9764   24488496.9764
     -2855.3004
  -8017301.82049  -6239921.14846  21667808.1944   21667806.2574
       673.6144
  11625924.41049   9052328.05545  22483131.8514   22483130.6634
     -3439.0584
  -1735074.48047  -1347214.43042  24151241.7884   24151240.6444
      -771.2374
  -6852217.55948  -5336697.64143  23443690.2654   23443688.1204
      1946.3814
   -587129.64849   -457803.34446  21533345.8974   21533343.9564
      -555.8174
 04  9  8 22 35 45.0030000  0  7G19G 3G 8G13G10G28G27
  -5382364.70748  -4193090.78944  23282823.1084   23282819.6984
      -418.1584
   6406196.05547   4990628.94942  24496670.0774   24496669.7534
     -2863.1924
  -8027344.17249  -6247746.35547  21665897.3124   21665895.2064
       669.4904
  11677607.05949   9092600.21945  22492966.6084   22492965.3194
     -3445.5104
  -1723362.10247  -1338087.88342  24153469.8514   24153468.8904
      -780.8254
  -6881345.35948  -5359394.60943  23438147.3974   23438145.4174
      1941.8534
   -578735.93449   -451262.78146  21534943.2964   21534941.1904
      -559.5814
 04  9  8 22 36  0.0030000  0  7G19G 3G 8G13G10G28G27
  -5375949.03948  -4188091.55944  23284044.0854   23284040.5194
      -427.7114
   6449264.24647   5024188.58242  24504866.0074   24504866.4564
     -2871.2134
  -8037322.47349  -6255521.64846  21663998.1084   21663996.8744
       665.2204
  11729388.38349   9132949.27045  22502820.0304   22502818.7694
     -3452.0884
  -1711503.72347  -1328847.59842  24155726.8434   24155725.9174
      -790.5594
  -6910402.94148  -5382036.83644  23432618.1554   23432616.6754
      1937.1724
   -570283.54349   -444676.50446  21536551.4524   21536549.6834
      -563.4934
 04  9  8 22 36 15.0030000  0  7G19G 3G 8G13G10G28G27
  -5369392.18048  -4182982.30944  23285291.4374   23285289.0224
      -437.1244
   6492450.30147   5057840.03142  24513084.2884   24513083.8124
     -2879.0704
  -8047238.97749  -6263248.79346  21662111.3124   21662109.5774
       661.1004
  11781266.02749   9173373.38745  22512692.2884   22512690.8544
     -3458.5104
  -1699501.75047  -1319495.41042  24158010.7494   24158009.1794
      -800.1324
  -6939392.57848  -5404626.13344  23427101.3434   23427099.1834
      1932.6424
   -561774.72349   -438046.26246  21538170.7414   21538168.6284
      -567.2554
 04  9  8 22 36 30.0030000  0  7G19G 3G 8G13G10G28G27
  -5362692.59048  -4177761.83644  23286566.6714   23286563.2574
      -446.6394
   6535755.39847   5091584.25042  24521324.8044   24521324.7844
     -2887.0074
  -8057092.05549  -6270926.51646  21660236.4604   21660234.3434
       656.8724
  11833241.28549   9213873.56645  22522583.0384   22522581.4214
     -3465.0174
  -1687354.82047  -1310030.28942  24160321.2964   24160320.8234
      -809.7954
  -6968312.60248  -5427161.17644  23421597.4604   23421596.0194
      1928.0024
   -553207.93749   -431370.84046  21539800.9604   21539799.2024
      -571.1194
 04  9  8 22 36 45.0030000  0  7G19G 3G 8G13G10G28G27
  -5355850.67248  -4172430.46144  23287868.9524   23287864.8044
      -456.1284
   6579178.73447   5125420.60242  24529588.0464   24529587.9834
     -2894.8894
  -8066882.10249  -6278555.10546  21658373.1084   21658371.5304
       652.6704
  11885313.40249   9254449.21145  22532491.8434   22532489.9834
     -3471.4744
  -1675063.43047  -1300452.56642  24162660.7724   24162659.4834
      -819.4264
  -6997163.39148  -5449642.28144  23416107.5774   23416105.9874
      1923.3864
   -544583.54349   -424650.53546  21541442.2494   21541440.2884
      -574.9604
 04  9  8 22 37  0.0030000  0  7G19G 3G 8G13G10G28G27
  -5348865.11748  -4166987.16444  23289198.2264   23289193.7614
      -465.7044
   6622721.19547   5159349.78142  24537873.5934   24537873.6124
     -2902.8314
  -8076607.78149  -6286133.55546  21656522.3664   21656520.7574
       648.3794
  11937483.31649   9295101.05945  22542419.5694   22542417.6124
     -3477.9944
  -1662626.52347  -1290761.47742  24165027.4374   24165026.0074
      -829.1274
  -7025943.59448  -5472068.37943  23410630.7574   23410629.3584
      1918.6804
   -535900.35249   -417884.41846  21543094.6014   21543092.7614
      -578.8794
 04  9  8 22 37 15.0030000  0  7G19G 3G 8G13G10G28G27
  -5341739.74248  -4161434.92244  23290553.7184   23290549.8744
      -475.0254
   6666378.80147   5193368.66042  24546182.0074   24546181.7844
     -2910.5074
  -8086272.93449  -6293664.84046  21654683.3194   21654681.5304
       644.3434
  11989747.07849   9335826.05145  22552364.9294   22552363.0224
     -3484.2514
  -1650048.14847  -1280960.16042  24167421.0624   24167420.3314
      -838.5584
  -7054656.94948  -5494442.38744  23405166.9764   23405165.3704
      1914.2244
   -527162.06249   -411075.35246  21544757.3824   21544755.8004
      -582.5534
 04  9  8 22 37 30.0030000  0  7G19G 3G 8G13G10G28G27
  -5334473.10948  -4155772.60544  23291936.2884   23291932.8234
      -484.4424
   6710152.85547   5227478.31642  24554511.4604   24554511.9374
     -2918.2704
  -8095876.03149  -6301147.76246  21652855.6874   21652853.7574
       640.2074
  12042106.00849   9376625.19145  22562328.8434   22562326.9334
     -3490.5954
  -1637326.75047  -1271047.38742  24169842.0694   24169840.7764
      -848.0934
  -7083301.81248  -5516763.03944  23399716.1324   23399714.1674
      1909.6584
   -518367.13349   -404222.16046  21546430.8904   21546429.4134
      -586.3294
 04  9  8 22 37 45.0030000  0  7G19G 3G 8G13G10G28G27
  -5327064.88748  -4149999.95344  23293346.1164   23293342.8584
      -493.8824
   6754043.10547   5261678.49242  24562863.9374   24562864.0194
     -2926.0174
  -8105416.85549  -6308582.17646  21651040.2184   21651038.6444
       636.0554
  12094559.90249   9417498.33645  22572310.0694   22572308.5774
     -3496.9264
  -1624462.20347  -1261023.06242  24172289.6944   24172288.9174
      -857.6364
  -7111878.04748  -5539030.19544  23394278.2184   23394276.6794
      1905.0824
   -509515.41449   -397324.72746  21548115.6874   21548113.6554
      -590.1154
 04  9  8 22 38  0.0030000  0  7G19G 3G 8G13G10G28G27
  -5319514.08648  -4144116.20344  23294782.7804   23294779.5384
      -503.3874
   6798050.13747   5295969.68042  24571238.0544   24571237.4334
     -2933.8024
  -8114894.52749  -6315967.37146  21649236.8904   21649235.0114
       631.8454
  12147109.41049   9458445.98845  22582310.0854   22582308.5034
     -3503.3014
  -1611453.79347  -1250886.65642  24174765.7574   24174764.1674
      -867.2274
  -7140384.54348  -5561243.02744  23388853.3044   23388851.4404
      1900.4334
   -500605.98449   -390382.31246  21549811.2104   21549808.9604
      -593.9624
 04  9  8 22 38 15.0030000  0  7G19G 3G 8G13G10G28G27
  -5311820.21148  -4138120.96944  23296247.4914   23296243.9404
      -512.9254
   6842174.12947   5330352.00042  24579634.4764   24579633.4094
     -2941.5994
  -8124308.38749  -6323302.84046  21647445.7104   21647443.6444
       627.5914
  12199754.69549   9499468.27045  22592327.8514   22592326.7024
     -3509.6864
  -1598301.12947  -1240637.82842  24177268.4764   24177267.2374
      -876.8444
  -7168820.93748  -5583401.23844  23383442.3904   23383440.6874
      1895.7604
   -491638.28949   -383394.50046  21551517.2024   21551515.1554
      -597.8464
 04  9  8 22 38 30.0030000  0  7G19G 3G 8G13G10G28G27
  -5303983.60948  -4132014.52344  23297738.4134   23297734.9484
      -522.4404
   6886414.56647   5364825.04342  24588053.5774   24588052.7494
     -2949.3624
  -8133658.49649  -6330588.64546  21645666.1164   21645664.2264
       623.3414
  12252495.44549   9540564.91844  22602364.5384   22602362.8744
     -3516.0504
  -1585004.67247  -1230276.96142  24179798.6164   24179797.5734
      -886.4304
  -7197187.24648  -5605504.82444  23378044.3904   23378042.3474
      1891.0874
   -482612.53549   -376361.44146  21553234.7264   21553233.0154
      -601.7174
 04  9  8 22 38 45.0030000  0  7G19G 3G 8G13G10G28G27
  -5296001.84847  -4125794.95344  23299257.3664   23299254.0154
      -532.1174
   6930773.41847   5399390.37542  24596494.6554   24596494.0384
     -2957.2574
  -8142942.82849  -6337823.19146  21643899.1244   21643897.4404
       618.9554
  12305333.66849   9581737.55144  22612419.1944   22612417.3904
     -3522.5484
  -1571562.09447  -1219802.23442  24182357.0544   24182356.0304
      -896.1724
  -7225481.16448  -5627552.00844  23372660.1794   23372658.6204
      1886.2614
   -473526.44949   -369281.37946  21554963.9684   21554961.8354
      -605.7394
 04  9  8 22 39  0.0030000  0  7G19G 3G 8G13G10G28G27
  -5287874.83648  -4119462.21144  23300804.0624   23300800.4054
      -541.8014
   6975250.43047   5434047.76642  24604958.7884   24604957.2614
     -2965.1344
  -8152161.22749  -6345006.35546  21642145.1324   21642143.0384
       614.5604
  12358269.09449   9622985.90644  22622492.8514   22622491.0224
     -3529.0284
  -1557973.49647  -1209213.73043  24184942.4444   24184941.3944
      -905.9074
  -7253702.45348  -5649542.59844  23367290.0694   23367288.1324
      1881.4194
   -464379.89149   -362154.19146  21556704.1714   21556702.4954
      -609.7714
 04  9  8 22 39 15.0030000  0  7G19G 3G 8G13G10G28G27
  -5279605.28548  -4113018.39544  23302377.0544   23302374.1794
      -551.3034
   7019842.57447   5468794.88342  24613443.7964   24613443.0424
     -2972.8104
  -8161316.27049  -6352140.14546  21640402.9134   21640401.1714
       610.3364
  12411298.68048   9664307.62945  22632584.0624   22632582.4334
     -3535.3064
  -1544241.78947  -1198513.69942  24187555.7804   24187554.4994
      -915.4474
  -7281853.76648  -5671478.64844  23361932.2334   23361930.9794
      1876.7544
   -455175.53549   -354981.97346  21558456.0464   21558454.1124
      -613.6244
 04  9  8 22 39 30.0030000  0  7G19G 3G 8G13G10G28G27
  -5271192.95748  -4106463.33644  23303978.0774   23303974.7924
      -560.8224
   7064549.69147   5503631.58642  24621952.1944   24621951.0034
     -2980.4744
  -8170407.61349  -6359224.30946  21638672.9134   21638671.1084
       606.0904
  12464422.42648   9705702.72344  22642693.2264   22642691.6474
     -3541.5834
  -1530366.93047  -1187702.11742  24190196.2184   24190194.6634
      -924.9914
  -7309934.91049  -5693360.02744  23356588.9294   23356587.3864
      1872.0764
   -445913.10549   -347764.48846  21560218.5074   21560216.3084
      -617.4954
 04  9  8 22 39 45.0030000  0  7G19G 3G 8G13G10G28G27
  -5262635.43448  -4099795.13344  23305606.9444   23305603.2534
      -570.5024
   7109373.87547   5538559.51642  24630481.1874   24630480.9014
     -2988.2794
  -8179432.84849  -6366256.95746  21636955.4374   21636953.7494
       601.6824
  12517642.52748   9747172.90644  22652820.6404   22652819.0694
     -3548.0074
  -1516346.58648  -1176777.19142  24192864.1714   24192862.9994
      -934.6904
  -7337943.35248  -5715184.77044  23351259.0074   23351257.1714
      1867.2294
   -436590.27349   -340499.94947  21561992.5934   21561990.6904
      -621.5224
 04  9  8 22 40  0.0030000  0  7G19G 3G 8G13G10G28G27
  -5253933.24648  -4093014.20744  23307262.5544   23307258.9444
      -580.1464
   7154314.31347   5573578.00842  24639033.0694   24639032.7844
     -2996.0294
  -8188392.37149  -6373238.39546  21635250.5694   21635248.6904
       597.3024
  12570958.14148   9788717.51245  22662965.9524   22662964.7024
     -3554.3744
  -1502181.54747  -1165739.51242  24195559.6244   24195558.5304
      -944.3364
  -7365879.58648  -5736953.22744  23345943.2654   23345940.9994
      1862.4164
   -427207.58249   -333188.76246  21563778.1474   21563775.9914
      -625.5134
 04  9  8 22 40 15.0030000  0  7G19G 3G 8G13G10G28G27
  -5245086.15248  -4086120.34844  23308946.5464   23308943.1714
      -589.8064
   7199370.95347   5608687.06342  24647606.9054   24647606.0814
     -3003.7764
  -8197286.12949  -6380168.59046  21633558.2494   21633556.5694
       592.9174
  12624369.39548   9830336.64544  22673130.1634   22673128.2224
     -3560.7504
  -1487871.56647  -1154588.89143  24198282.8354   24198281.3584
      -953.9994
  -7393743.31648  -5758665.20744  23340640.4374   23340638.2964
      1857.5824
   -417764.66049   -325830.64147  21565575.2724   21565573.3004
      -629.5284
 04  9  8 22 40 30.0030000  0  7G19G 3G 8G13G10G28G27
  -5236095.05148  -4079114.28944  23310656.9764   23310653.6834
      -599.4074
   7244542.50447   5643885.64842  24656202.9054   24656202.0424
     -3011.4374
  -8206115.03549  -6387048.25046  21631878.1794   21631875.9054
       588.5944
  12677874.84048   9872029.18444  22683311.4444   22683310.1874
     -3567.0304
  -1473417.77747  -1143326.21142  24201033.2104   24201032.1014
      -963.5864
  -7421535.30948  -5780321.27044  23335352.4054   23335350.1794
      1852.7994
   -408262.40249   -318426.29347  21567383.4764   21567381.4484
      -633.4844
 04  9  8 22 40 45.0030000  0  7G19G 3G 8G13G10G28G27
  -5226958.95748  -4071995.25044  23312395.8514   23312392.3124
      -609.0734
   7289829.62547   5679174.29742  24664820.8904   24664820.4014
     -3019.1414
  -8214878.05549  -6393876.57846  21630210.5304   21630208.3004
       584.2014
  12731475.34848   9913795.77745  22693511.4994   22693509.9994
     -3573.3674
  -1458819.37147  -1131950.82442  24203811.0774   24203810.0074
      -973.2274
  -7449254.66848  -5801920.74244  23330077.3434   23330075.2614
      1847.9574
   -398699.88749   -310974.97347  21569203.1794   21569201.3664
      -637.5014
 04  9  8 22 41  0.0030000  0  7G19G 3G 8G13G10G28G27
  -5217678.37548  -4064763.62144  23314161.6404   23314157.8904
      -618.7054
   7335231.45747   5714552.32842  24673460.8044   24673459.4294
     -3026.7894
  -8223575.56249  -6400653.84447  21628555.6714   21628553.5814
       579.8344
  12785170.11348   9955635.82844  22703729.5624   22703727.5854
     -3579.6514
  -1444076.89547  -1120463.17643  24206616.6164   24206615.5384
      -982.8324
  -7476901.81248  -5823463.94944  23324816.2884   23324814.3474
      1843.1434
   -389077.58649   -303477.08247  21571034.3044   21571032.6714
      -641.4874
 04  9  8 22 41 15.0030000  0  7G19G 3G 8G13G10G28G27
  -5208254.94547  -4057420.69944  23315954.7574   23315951.3084
      -628.2294
   7380745.98447   5750018.17242  24682121.9214   24682120.4794
     -3034.3024
  -8232209.10549  -6407381.28147  21626912.3194   21626910.8974
       575.5704
  12838957.08648   9997547.72745  22713965.1474   22713963.3744
     -3585.7984
  -1429192.21147  -1108864.73843  24209449.0694   24209447.4914
      -992.3124
  -7504478.39848  -5844952.17644  23319568.8584   23319566.7454
      1838.4394
   -379397.05549   -295933.81646  21572876.3584   21572874.2294
      -645.3694
 04  9  8 22 41 30.0030000  0  7G19G 3G 8G13G10G28G27
  -5198686.70348  -4049964.91444  23317775.2104   23317772.4444
      -637.8834
   7426375.00047   5785573.22742  24690804.6084   24690803.7334
     -3041.9344
  -8240776.57049  -6414057.22347  21625282.0544   21625280.4214
       571.1644
  12892838.16448  10039532.95744  22724217.9134   22724216.3864
     -3592.0724
  -1414163.53147  -1097154.08643  24212308.8824   24212307.5694
     -1001.9124
  -7531982.27748  -5866383.74644  23314334.7494   23314332.7884
      1833.5924
   -369656.42649   -288343.70746  21574729.8124   21574727.6874
      -649.3754
 04  9  8 22 41 45.0030000  0  7G19G 3G 8G13G10G28G27
  -5188973.79348  -4042396.40244  23319623.9604   23319620.8314
      -647.5274
   7472117.98447   5821217.11342  24699508.8974   24699508.3394
     -3049.5324
  -8249278.27749  -6420681.92247  21623664.6244   21623662.6244
       566.7804
  12946812.84848  10081591.12544  22734489.1014   22734486.9954
     -3598.3124
  -1398991.17247  -1085331.48842  24215195.9214   24215195.1984
     -1011.4914
  -7559413.61748  -5887758.78944  23309114.9294   23309112.6124
      1828.7564
   -359855.74249   -280706.81646  21576594.8664   21576592.9764
      -653.3794
 04  9  8 22 42  0.0030000  0  7G19G 3G 8G13G10G28G27
  -5179118.34048  -4034716.82044  23321499.4764   23321496.5034
      -657.0304
   7517972.43447   5856947.83642  24708235.0624   24708234.6044
     -3056.9634
  -8257716.29749  -6427257.00047  21622058.7024   21622057.0264
       562.5354
  13000878.73448  10123720.37144  22744777.3824   22744775.7724
     -3604.3924
  -1383677.31647  -1073398.62143  24218110.4914   24218109.1084
     -1020.9244
  -7586774.36348  -5909078.83244  23303908.0624   23303906.4334
      1824.0504
   -349997.10949   -273024.76246  21578470.6324   21578468.8234
      -657.2424
 04  9  8 22 42 15.0030000  0  7G19G 3G 8G13G10G28G27
  -5169120.17248  -4026926.05144  23323401.8584   23323398.6674
      -666.5454
   7563938.23847   5892765.31342  24716981.8824   24716981.5264
     -3064.3874
  -8266090.50849  -6433782.35547  21620465.1084   21620463.5114
       558.2814
  13055035.66448  10165920.54744  22755083.2334   22755081.2844
     -3610.4624
  -1368221.99647  -1061355.51242  24221051.7104   24221050.2804
     -1030.3554
  -7614064.41848  -5930343.78544  23298714.6634   23298713.1444
      1819.3374
   -340080.34449   -265297.41446  21580358.1794   21580355.7574
      -661.1184
 04  9  8 22 42 30.0030000  0  7G19G 3G 8G13G10G28G27
  -5158980.64848  -4019025.12544  23325331.5694   23325328.3664
      -675.9684
   7610013.82847   5928668.34442  24725749.7724   24725749.8394
     -3071.7064
  -8274402.01649  -6440258.85547  21618883.4834   21618881.6204
       554.1014
  13109282.01648  10208190.41044  22765405.6164   22765404.4794
     -3616.4234
  -1352626.71547  -1049203.35242  24224019.1324   24224018.0304
     -1039.6854
  -7641284.86348  -5951554.49244  23293535.0074   23293533.0544
      1814.6964
   -330106.71949   -257525.75846  21582255.8434   21582253.6084
      -664.9084
 04  9  8 22 42 45.0030000  0  7G19G 3G 8G13G10G28G27
  -5148697.30548  -4011012.13744  23327288.0694   23327284.8624
      -685.5564
   7656201.28947   5964658.57042  24734539.4834   24734538.9994
     -3079.1644
  -8282648.29349  -6446684.52047  21617314.6874   21617312.4294
       549.7524
  13163620.17648  10250531.81344  22775746.1794   22775744.5504
     -3622.5444
  -1336889.19147  -1036940.35543  24227013.5154   24227012.9404
     -1049.1684
  -7668433.30948  -5972709.10544  23288368.8974   23288367.0504
      1809.8964
   -320073.75849   -249707.86346  21584165.0464   21584163.2924
      -668.8644
 04  9  8 22 43  0.0030000  0  7G19G 3G 8G13G10G28G27
  -5138271.73048  -4002888.31644  23329271.7574   23329268.5584
      -695.0384
   7702498.66447   6000734.42242  24743349.1474   24743348.3274
     -3086.4924
  -8290830.85249  -6453060.53147  21615756.8824   21615755.2104
       545.5044
  13218048.11348  10292943.16844  22786103.6634   22786101.8784
     -3628.5294
  -1321011.12147  -1024567.85242  24230035.0384   24230033.6834
     -1058.5384
  -7695511.25449  -5993808.77344  23283216.0154   23283214.0304
      1805.1964
   -309983.09849   -241845.00846  21586085.3664   21586083.2334
      -672.7114
 04  9  8 22 43 15.0030000  0  7G19G 3G 8G13G10G28G27
  -5127702.11348  -3994652.23844  23331283.4994   23331280.0264
      -704.6414
   7748907.41447   6036897.07842  24752180.3434   24752180.1594
     -3093.9174
  -8298948.05549  -6459385.61346  21614212.3044   21614210.8314
       541.1474
  13272567.44148  10335425.73844  22796477.9834   22796476.4794
     -3634.6224
  -1304990.90647  -1012084.57042  24233083.5224   24233082.7024
     -1068.0144
  -7722516.83648  -6014852.06644  23278076.8664   23278075.6514
      1800.3724
   -299832.82448   -233935.70747  21588016.7184   21588014.7064
      -676.6854
 04  9  8 22 43 30.0030000  0  7G19G 3G 8G13G10G28G27
  -5116990.05948  -3986305.17644  23333321.8584   23333318.9294
      -714.1374
   7795425.58247   6073144.99642  24761032.0694   24761032.1674
     -3101.2114
  -8307001.43049  -6465660.96947  21612679.9604   21612678.3704
       536.8924
  13327176.14548  10377977.94544  22806869.7574   22806868.3974
     -3640.5804
  -1288830.34447   -999491.92242  24236158.5074   24236157.7844
     -1077.3714
  -7749451.60248  -6035840.17244  23272951.4134   23272949.7694
      1795.6514
   -289624.60549   -225981.25446  21589959.1874   21589957.1474
      -680.5484
 04  9  8 22 43 45.0030000  0  7G19G 3G 8G13G10G28G27
  -5106134.91848  -3977846.62544  23335387.4684   23335384.3864
      -723.6764
   7842053.43446   6109478.35542  24769905.4134   24769905.5224
     -3108.5234
  -8314990.34449  -6471886.09446  21611159.7414   21611157.9764
       532.5944
  13381874.72348  10420600.20744  22817278.6084   22817277.5694
     -3646.5724
  -1272528.96147   -986789.55542  24239261.0694   24239259.8624
     -1086.7594
  -7776314.96148  -6056772.62944  23267839.4134   23267837.6244
      1790.8914
   -279357.74649   -217981.10246  21591913.0934   21591911.1634
      -684.4574
 04  9  8 22 44  0.0030000  0  7G19G 3G 8G13G10G28G27
  -5095135.86748  -3969275.93744  23337480.7654   23337477.1124
      -733.2704
   7888791.61747   6145897.71142  24778799.4524   24778799.4764
     -3115.8794
  -8322913.96549  -6478060.33646  21609651.7334   21609650.0654
       528.2414
  13436663.63348  10463292.85244  22827704.3664   22827703.3624
     -3652.5944
  -1256086.03147   -973976.89142  24242390.1874   24242388.6244
     -1096.1954
  -7803105.87548  -6077648.64544  23262741.3354   23262739.3974
      1786.0614
   -269031.35548   -209934.56646  21593878.0774   21593875.8704
      -688.4264
 04  9  8 22 44 15.0030000  0  7G19G 3G 8G13G10G28G27
  -5083992.39148  -3960592.69944  23339601.6554   23339597.2144
      -742.8984
   7935640.09447   6182402.98842  24787714.5694   24787714.2224
     -3123.2324
  -8330771.53149  -6484183.12146  21608156.7964   21608155.0694
       523.8384
  13491543.35948  10506056.24244  22838148.1244   22838146.8584
     -3658.6484
  -1239501.14147   -961053.61742  24245545.6084   24245545.1904
     -1105.6594
  -7829823.89148  -6098467.85244  23257657.1554   23257655.2844
      1781.2014
   -258644.85549   -201841.19146  21595854.7724   21595852.6594
      -692.4334
 04  9  8 22 44 30.0030000  0  7G19G 3G 8G13G10G28G27
  -5072707.61748  -3951799.36344  23341748.7104   23341745.1404
      -752.3184
   7982595.64147   6218991.71142  24796650.3044   24796649.0504
     -3130.3704
  -8338565.97749  -6490256.70747  21606673.5074   21606671.5194
       519.6304
  13546510.46548  10548887.74244  22848607.4294   22848606.2724
     -3664.4744
  -1222777.45347   -948022.17642  24248728.7574   24248727.7884
     -1114.9124
  -7856471.82848  -6119232.45744  23252585.9374   23252584.0654
      1776.5294
   -248201.23449   -193703.29746  21597842.0464   21597839.9524
      -696.2414
 04  9  8 22 44 45.0030000  0  7G19G 3G 8G13G10G28G27
  -5061277.88748  -3942893.08244  23343923.4834   23343920.5774
      -761.9824
   8029661.55547   6255666.43442  24805606.0934   24805605.3974
     -3137.7284
  -8346293.64849  -6496278.27347  21605203.0154   21605201.3944
       515.1784
  13601568.14148  10591789.79744  22859084.9524   22859083.7964
     -3670.5124
  -1205911.54747   -934879.91443  24251937.6324   24251937.0694
     -1124.3944
  -7883046.17648  -6139939.71544  23247528.7184   23247527.5384
      1771.6234
   -237696.91849   -185518.11746  21599840.8744   21599838.6284
      -700.2884
 04  9  8 22 45  0.0030000  0  7G19G 3G 8G13G10G28G27
  -5049704.79347  -3933875.09044  23346125.6634   23346122.3434
      -771.5404
   8076835.84447   6292425.61342  24814583.8974   24814582.1244
     -3144.9534
  -8353956.35949  -6502249.21547  21603744.9914   21603743.2104
       510.8474
  13656714.55948  10634761.00044  22869578.7964   22869577.9764
     -3676.4284
  -1188905.28947   -921628.29342  24255174.0224   24255173.3974
     -1133.7514
  -7909548.41048  -6160590.77344  23242486.2414   23242484.0504
      1766.8164
   -227133.50448   -177286.89146  21601850.9764   21601849.1554
      -704.2284
 04  9  8 22 45 15.0030000  0  7G19G 3G 8G13G10G28G27
  -5037989.37548  -3924746.19144  23348355.3274   23348352.3514
      -781.0284
   8124117.33247   6329268.32442  24823580.0384   24823580.1904
     -3152.0994
  -8361554.84849  -6508170.10946  21602298.4214   21602297.2184
       506.5664
  13711948.68048  10677800.54344  22880090.1014   22880088.6634
     -3682.2754
  -1171759.68747   -908268.10242  24258436.8274   24258436.3434
     -1143.0404
  -7935979.39848  -6181186.32044  23237456.4054   23237454.5654
      1762.0664
   -216511.80549   -169010.24246  21603872.4294   21603870.4294
      -708.1134
 04  9  8 22 45 30.0030000  0  7G19G 3G 8G13G10G28G27
  -5026129.37148  -3915504.61744  23350612.2414   23350608.8624
      -790.6674
   8171507.91846   6366196.02042  24832598.2024   24832598.4764
     -3159.3724
  -8369086.89149  -6514039.22346  21600865.2494   21600863.8194
       502.1364
  13767272.25448  10720909.78944  22890617.8354   22890616.7224
     -3688.2384
  -1154472.78547   -894797.79342  24261726.3194   24261725.3234
     -1152.4604
  -7962336.98048  -6201724.67244  23232440.5384   23232438.4014
      1757.1724
   -205829.62949   -160686.46546  21605905.1164   21605903.0504
      -712.1454
 04  9  8 22 45 45.0030000  0  7G19G 3G 8G13G10G28G27
  -5014126.35948  -3906151.61744  23352895.8824   23352892.3394
      -800.2014
   8219005.68847   6403207.25442  24841637.3824   24841637.3474
     -3166.5184
  -8376553.98449  -6519857.73846  21599444.6244   21599442.7374
       497.8064
  13822683.37949  10764087.25044  22901162.0854   22901160.6284
     -3694.0754
  -1137046.18447   -881218.64142  24265042.3664   24265041.4094
     -1161.7734
  -7988622.55948  -6222206.91044  23227438.4834   23227436.9444
      1752.3724
   -195088.53549   -152316.78146  21607949.1944   21607947.0074
      -716.0734
 04  9  8 22 46  0.0030000  0  7G19G 3G 8G13G10G28G27
  -5001979.24648  -3896686.32844  23355207.8824   23355204.2924
      -809.8084
   8266611.29347   6440302.50042  24850696.3664   24850695.5584
     -3173.7074
  -8383954.80149  -6525624.60547  21598036.1244   21598034.3124
       493.3884
  13878183.05948  10807333.72744  22911723.3124   22911722.2654
     -3699.9794
  -1119479.12947   -867530.02343  24268385.9764   24268384.4014
     -1171.1374
  -8014834.93448  -6242632.11744  23222450.3744   23222448.3744
      1747.4924
   -184287.32849   -143900.26647  21610004.4294   21610002.3514
      -720.0804
 04  9  8 22 46 15.0030000  0  7G19G 3G 8G13G10G28G27
  -4989688.61348  -3887109.21944  23357546.3904   23357543.4484
      -819.3764
   8314323.98846   6477481.19542  24859775.5624   24859775.2494
     -3180.8464
  -8391290.01249  -6531340.35947  21596640.2184   21596638.3354
       489.0144
  13933770.48449  10850648.57444  22922301.4134   22922300.1284
     -3705.8284
  -1101772.23847   -853732.46143  24271755.1794   24271754.1634
     -1180.4594
  -8040974.60549  -6263000.66844  23217476.2184   23217473.9334
      1742.6454
   -173426.40649   -135437.21146  21612071.2104   21612069.0774
      -724.0614
 04  9  8 22 46 30.0030000  0  7G19G 3G 8G13G10G28G27
  -4977254.56648  -3877420.35944  23359912.8274   23359909.5504
      -828.9364
   8362143.23847   6514742.92242  24868875.7964   24868875.3974
     -3187.9504
  -8398559.61749  -6537004.97347  21595256.9834   21595255.0694
       484.6404
  13989445.23848  10894031.47344  22932895.9684   22932894.2964
     -3711.6504
  -1083925.79747   -839826.14843  24275151.2184   24275150.1754
     -1189.7634
  -8067041.63348  -6283312.59844  23212515.8974   23212514.0114
      1737.8024
   -162506.11748   -126927.89546  21614149.5304   21614147.4174
      -728.0194
 04  9  8 22 46 45.0030000  0  7G19G 3G 8G13G10G28G27
  -4964677.86748  -3867620.33645  23362305.8584   23362302.7804
      -838.4474
   8410067.96147   6552086.85242  24877995.9764   24877995.6124
     -3194.9824
  -8405764.48049  -6542619.15246  21593886.0304   21593883.9684
       480.3244
  14045206.30549  10937481.62944  22943507.0074   22943505.0814
     -3717.4044
  -1065940.71947   -825811.82442  24278573.9524   24278572.7494
     -1199.0054
  -8093036.60548  -6303568.39844  23207569.1474   23207566.9684
      1732.9984
   -151526.96949   -118372.72346  21616238.1164   21616236.4094
      -731.9434
 04  9  8 22 47  0.0030000  0  7G19G 3G 8G13G10G28G27
  -4951956.11348  -3857707.26245  23364726.9374   23364724.2454
      -848.1174
   8458100.31347   6589514.64142  24887135.3824   24887134.9954
     -3202.1574
  -8412901.95749  -6548180.81646  21592527.6554   21592525.8314
       475.8324
  14101055.77048  10981000.66844  22954134.6634   22954133.1794
     -3723.2984
  -1047814.71947   -811687.68443  24282023.7494   24282021.7414
     -1208.4004
  -8118957.06248  -6323766.14144  23202637.0154   23202634.8864
      1728.0304
   -140486.50849   -109769.76646  21618339.3124   21618337.2294
      -736.0314
 04  9  8 22 47 15.0030000  0  7G19G 3G 8G13G10G28G27
  -4939091.98848  -3847683.25844  23367174.6634   23367171.7724
      -857.6084
   8506237.34447   6627024.00442  24896295.7884   24896295.0774
     -3209.1354
  -8419974.63349  -6553691.98847  21591181.6714   21591180.1514
       471.5124
  14156990.64849  11024586.25844  22964778.7264   22964776.6634
     -3728.9924
  -1029550.65247   -797455.95343  24285498.4374   24285497.4564
     -1217.6044
  -8144805.71549  -6343907.91444  23197717.8824   23197715.6514
      1723.2434
   -129387.34849   -101121.06646  21620451.3044   21620449.4484
      -739.9444
 04  9  8 22 47 30.0030000  0  7G19G 3G 8G13G10G28G27
  -4926083.86748  -3837547.06244  23369650.3124   23369646.3154
      -867.2084
   8554480.31647   6664615.91842  24905476.7574   24905475.5464
     -3216.1984
  -8426980.82849  -6559151.35547  21589848.2964   21589846.7534
       467.0804
  14213012.35548  11068239.51244  22975439.1634   22975437.6204
     -3734.7804
  -1011147.18047   -783115.59042  24289000.1874   24288998.7574
     -1226.8984
  -8170580.98448  -6363992.51244  23192812.9214   23192811.0424
      1718.3514
   -118227.96149    -92425.44146  21622575.0624   21622572.9174
      -743.9594
 04  9  8 22 47 45.0030000  0  7G19G 3G 8G13G10G28G27
  -4912931.77748  -3827298.68444  23372152.8584   23372149.3784
      -876.8064
   8602828.88747   6702290.10542  24914677.0934   24914676.0464
     -3223.2384
  -8433920.54349  -6564558.92247  21588527.9834   21588526.3514
       462.6484
  14269120.77749  11111960.34044  22986116.4054   22986114.4764
     -3740.5614
   -992604.36347   -768666.63743  24292528.9994   24292528.2764
     -1236.1884
  -8196282.64148  -6384019.75444  23187922.1474   23187919.9684
      1713.4444
   -107008.21149    -83682.77346  21624710.3824   21624708.4764
      -747.9834
 04  9  8 22 48  0.0030000  0  7G19G 3G 8G13G10G28G27
  -4899636.45348  -3816938.68744  23374683.0774   23374679.6204
      -886.3554
   8651282.00846   6740045.77342  24923896.4764   24923896.8784
     -3230.2084
  -8440794.34849  -6569915.12946  21587219.5934   21587218.1444
       458.2544
  14325314.80548  11155747.87944  22996809.7574   22996808.4954
     -3746.2684
   -973923.06647   -754109.80142  24296083.9604   24296082.9134
     -1245.4204
  -8221911.34449  -6403990.14144  23183045.2724   23183042.9954
      1708.5804
    -95728.78949    -74893.62147  21626856.4994   21626854.9764
      -751.9614
 04  9  8 22 48 15.0030000  0  7G19G 3G 8G13G10G28G27
  -4886196.36748  -3806465.89144  23377240.8354   23377237.4334
      -896.0064
   8699841.09447   6777884.02042  24933137.3514   24933137.1204
     -3237.2724
  -8447600.67249  -6575218.76646  21585924.6324   21585922.7224
       453.7554
  14381595.82449  11199603.19944  23007519.5074   23007518.2614
     -3752.0684
   -955101.82447   -739443.90642  24299666.1874   24299664.2494
     -1254.7494
  -8247465.38348  -6423902.35244  23178182.4054   23178179.9794
      1703.6034
    -84387.96949    -66056.61746  21629014.6794   21629012.6984
      -756.0554
 04  9  8 22 48 30.0030000  0  7G19G 3G 8G13G10G28G27
  -4872612.86748  -3795881.33644  23379825.3904   23379822.4214
      -905.5674
   8748504.34446   6815803.42642  24942397.9214   24942397.4794
     -3244.2174
  -8454340.66849  -6580470.69546  21584642.5464   21584640.4404
       449.3334
  14437962.19948  11243525.02044  23018245.7574   23018244.1324
     -3757.7584
   -936142.15647   -724670.14842  24303273.6324   24303272.1754
     -1263.9784
  -8272945.95348  -6443757.31644  23173333.5304   23173331.1874
      1698.7054
    -72987.10949    -57172.82846  21631183.9914   21631182.1364
      -760.0574
 04  9  8 22 48 45.0030000  0  7G19G 3G 8G13G10G28G27
  -4858884.50448  -3785183.90244  23382437.9444   23382434.8274
      -915.2244
   8797272.89846   6853804.88342  24951677.6554   24951677.8434
     -3251.2374
  -8461013.03149  -6585669.94147  21583372.4604   21583370.7694
       444.8244
  14494414.98449  11287514.17244  23028988.6404   23028987.3194
     -3763.5194
   -917042.94947   -709787.66443  24306908.3744   24306906.9874
     -1273.2804
  -8298351.74648  -6463554.00844  23168498.8044   23168496.6044
      1693.7204
    -61524.77049    -48241.14146  21633364.8904   21633363.5224
      -764.1564
 04  9  8 22 49  0.0030000  0  7G19G 3G 8G13G10G28G27
  -4845013.11348  -3774375.03544  23385077.3824   23385073.8864
      -924.7594
   8846144.61346   6891886.70342  24960978.0464   24960978.7104
     -3258.1144
  -8467619.48049  -6590817.81247  21582115.4524   21582113.1634
       440.4304
  14550952.27348  11331569.18044  23039747.1874   23039745.9334
     -3769.1534
   -897806.15647   -694797.95342  24310568.4134   24310567.9834
     -1282.4534
  -8323684.45748  -6483293.75844  23163678.1874   23163676.1874
      1688.8474
    -50002.69949    -39262.90646  21635558.0774   21635556.0154
      -768.1384
 04  9  8 22 49 15.0030000  0  7G19G 3G 8G13G10G28G27
  -4830995.19948  -3763451.98444  23387745.1634   23387741.5504
      -934.5284
   8895122.68446   6930051.42642  24970298.3974   24970298.8944
     -3265.2054
  -8474156.32049  -6595911.45747  21580871.4444   21580869.3194
       435.7894
  14607577.25848  11375692.51644  23050522.6714   23050520.9214
     -3774.9994
   -878428.30547   -679698.34042  24314256.5304   24314254.9994
     -1291.8574
  -8348940.41848  -6502973.69944  23158872.2884   23158869.2224
      1683.7314
    -38417.21549    -30235.25446  21637762.4834   21637760.5814
      -772.3664
 04  9  8 22 49 30.0030000  0  7G19G 3G 8G13G10G28G27
  -4816832.07448  -3752415.79744  23390439.8974   23390436.7334
      -944.2084
   8944205.43846   6968297.71542  24979638.2804   24979639.1044
     -3272.1844
  -8480624.79749  -6600951.82447  21579640.7724   21579638.9174
       431.2324
  14664288.29748  11419882.91044  23061314.3974   23061313.1634
     -3780.7364
   -858911.03147   -664490.07042  24317970.0624   24317968.9874
     -1301.1524
  -8374120.93048  -6522594.85544  23154080.4374   23154078.3314
      1678.7014
    -26769.63749    -21159.22746  21639979.0304   21639976.7884
      -776.5054
 04  9  8 22 49 45.0030000  0  7G19G 3G 8G13G10G28G27
  -4802525.03948  -3741267.45744  23393162.3904   23393159.0544
      -953.8024
   8993391.36346   7006624.37942  24988998.9524   24988997.9724
     -3279.0624
  -8487025.94549  -6605939.72747  21578422.3664   21578420.6014
       426.7434
  14721083.96948  11464139.24644  23072122.1874   23072120.5304
     -3786.3784
   -839255.64147   -649174.19542  24321710.7184   24321709.4644
     -1310.3594
  -8399227.17248  -6542158.13344  23149302.9054   23149301.1984
      1673.7494
    -15061.11349    -12035.69946  21642206.8124   21642204.9524
      -780.5684
 04  9  8 22 50  0.0030000  0  7G19G 3G 8G13G10G28G27
  -4788072.21148  -3730005.50444  23395912.5544   23395909.4404
      -963.5224
   9042681.84846   7045032.54342  24998377.6714   24998377.9764
     -3286.0324
  -8493358.10249  -6610873.87547  21577217.3514   21577215.4524
       422.1444
  14777965.77748  11508462.70744  23082946.3664   23082944.9564
     -3792.1214
   -819460.55147   -633749.46542  24325477.5934   24325476.2494
     -1319.6734
  -8424257.29348  -6561662.09844  23144539.8354   23144537.4724
      1668.6754
     -3289.85249     -2863.29347  21644447.1084   21644444.9684
      -784.7514
 04  9  8 22 50 15.0030000  0  7G19G 3G 8G13G10G28G27
  -4773473.73448  -3718630.07044  23398691.2104   23398687.4604
      -973.2324
   9092076.70347   7083522.03942  25007777.5934   25007777.1514
     -3292.9904
  -8499621.07449  -6615754.10947  21576025.6014   21576023.7964
       417.5324
  14834933.47348  11552853.08644  23093787.0304   23093785.2964
     -3797.8464
   -799525.95747   -618216.03542  24329271.3124   24329269.6084
     -1328.9734
  -8449211.20748  -6581106.67244  23139790.8274   23139789.3314
      1663.5944
      8544.14849      6358.00846  21646698.7574   21646696.8314
      -788.9334
 04  9  8 22 50 30.0030000  0  7G19G 3G 8G13G10G28G27
  -4758731.97348  -3707142.98444  23401496.1324   23401492.7614
      -982.7844
   9141573.14847   7122090.70742  25017196.2414   25017195.7494
     -3299.7634
  -8505817.23449  -6620582.28147  21574846.3274   21574844.5264
       413.0774
  14891984.22748  11597308.18444  23104643.3664   23104641.7724
     -3803.3844
   -779454.37947   -602575.84442  24333090.3514   24333089.3084
     -1338.1054
  -8474091.26649  -6600493.70744  23135056.6554   23135054.3124
      1658.6714
     20438.61349     15626.42646  21648962.2414   21648960.2724
      -792.9644
 04  9  8 22 50 45.0030000  0  7G19G 3G 8G13G10G28G27
  -4743843.35948  -3695541.46944  23404329.0304   23404325.3394
      -992.5744
   9191174.41847   7160741.02042  25026635.3514   25026635.2104
     -3306.7514
  -8511943.01649  -6625355.60547  21573680.6874   21573678.8274
       408.3854
  14949121.47348  11641830.69144  23115516.1164   23115514.8194
     -3809.1504
   -759242.40647   -586826.28143  24336936.5854   24336935.5034
     -1347.4654
  -8498893.78948  -6619820.32044  23130336.7574   23130334.6124
      1653.5024
     32397.14149     24944.75446  21651237.7884   21651235.9254
      -797.2354
 04  9  8 22 51  0.0030000  0  7G19G 3G 8G13G10G28G27
  -4728807.25048  -3683825.02044  23407190.8044   23407186.9914
     -1002.4074
   9240880.84446   7199473.25842  25036093.5224   25036093.9374
     -3313.7624
  -8517997.54749  -6630073.42647  21572528.9054   21572526.7414
       403.6354
  15006345.67648  11686420.94144  23126405.7884   23126404.7534
     -3814.9474
   -738889.47747   -570966.86342  24340809.7334   24340808.5154
     -1356.8624
  -8523617.99648  -6639085.91444  23125631.8744   23125629.8314
      1648.2804
     44420.56649     34313.66446  21653525.9214   21653523.7694
      -801.5624
 04  9  8 22 51 15.0030000  0  7G19G 3G 8G13G10G28G27
  -4713625.55148  -3671995.12544  23410080.0464   23410075.5384
     -1012.1134
   9290690.37547   7238285.86342  25045572.5854   25045571.8044
     -3320.6354
  -8523982.78149  -6634737.23447  21571389.7024   21571387.8124
       399.0164
  15063654.59448  11731077.21144  23137311.2024   23137309.5114
     -3820.5954
   -718397.69147   -554999.23442  24344708.8354   24344708.2024
     -1366.1194
  -8548265.65248  -6658291.85244  23120941.8274   23120939.7294
      1643.1774
     56507.02049     43731.67646  21655825.9834   21655823.8904
      -805.7644
 04  9  8 22 51 30.0030000  0  7G19G 3G 8G13G10G28G27
  -4698298.47348  -3660051.94544  23412996.1944   23412992.4134
     -1021.8054
   9340602.50446   7277178.43042  25055070.0384   25055069.3474
     -3327.4754
  -8529898.52349  -6639346.90247  21570264.1794   21570262.4214
       394.3834
  15121047.99648  11775799.31344  23148232.8514   23148231.6204
     -3826.2274
   -697767.37947   -538923.68742  24348634.8824   24348633.7574
     -1375.3544
  -8572836.84448  -6677438.20344  23116265.1634   23116263.6754
      1638.0794
     68656.43849     53198.75446  21658137.8354   21658135.9134
      -809.9614
 04  9  8 22 51 45.0030000  0  7G19G 3G 8G13G10G28G27
  -4682825.03548  -3647994.72744  23415940.7494   23415937.1794
     -1031.5624
   9390617.91446   7316151.46542  25064587.6244   25064586.7844
     -3334.3614
  -8535743.85949  -6643901.70347  21569151.4834   21569149.6244
       389.6894
  15178526.43048  11820587.67244  23159170.7884   23159169.8234
     -3831.8964
   -676997.84847   -522739.64542  24352586.7574   24352586.1244
     -1384.6354
  -8597330.60248  -6696524.22344  23111604.4604   23111602.9444
      1632.9174
     80869.89549     62715.73846  21660461.8664   21660460.1674
      -814.2304
 04  9  8 22 52  0.0040000  0  7G19G 3G 8G13G10G28G27
  -4667202.77048  -3635821.53944  23418913.5434   23418909.7424
     -1041.4844
   9440740.94146   7355208.34442  25074125.6214   25074125.6054
     -3341.5354
  -8541517.69949  -6648400.79346  21568052.6524   21568051.3324
       384.9234
  15236095.07448  11865446.32444  23170125.4264   23170125.1294
     -3837.9104
   -656086.32847   -506444.96142  24356566.4494   24356565.8124
     -1394.1014
  -8621747.12948  -6715550.05544  23106958.3794   23106956.4374
      1627.7684
     93149.59449     72284.33246  21662798.6524   21662796.8984
      -818.6474
 04  9  8 22 52 15.0040000  0  7G19G 3G 8G13G10G28G27
  -4651434.18448  -3623534.33244  23421914.5124   23421910.6334
     -1051.2394
   9490964.21146   7394343.35542  25083683.0904   25083683.0824
     -3348.2184
  -8547219.61349  -6652843.83246  21566967.8794   21566966.0744
       380.1284
  15293745.53548  11910368.73844  23181096.0744   23181095.3674
     -3843.3644
   -635036.19547   -490042.25842  24360572.0124   24360571.3754
     -1403.3424
  -8646083.31248  -6734513.29744  23102327.3164   23102325.6094
      1622.4124
    105493.69149     81903.10546  21665147.9574   21665146.1094
      -822.9404
 04  9  8 22 52 30.0040000  0  7G19G 3G 8G13G10G28G27
  -4635521.40248  -3611134.75844  23424942.3094   23424938.7304
     -1060.8524
   9541287.70746   7433556.43042  25093259.3014   25093258.7074
     -3354.9004
  -8552852.61749  -6657233.18447  21565895.9964   21565894.3634
       375.5344
  15351478.28548  11955355.25444  23192082.0194   23192081.1684
     -3848.8504
   -613849.29747   -473533.00843  24364603.5434   24364603.0704
     -1412.4604
  -8670343.87148  -6753417.59444  23097710.3484   23097708.3914
      1617.3714
    117899.80949     91570.20746  21667508.5594   21667506.8914
      -827.0744
 04  9  8 22 52 45.0040000  0  7G19G 3G 8G13G10G28G27
  -4619463.64548  -3598622.21944  23427998.0744   23427994.7034
     -1070.5174
   9591711.95746   7472848.05542  25102854.8944   25102854.2074
     -3361.6174
  -8558416.02049  -6661568.28947  21564837.2544   21564835.7734
       370.8934
  15409293.77748  12000406.26644  23203084.3794   23203083.6024
     -3854.3664
   -592524.95347   -456916.66042  24368661.6994   24368660.3364
     -1421.6234
  -8694527.87948  -6772262.25444  23093108.6444   23093106.3284
      1612.2674
    130369.05549    101286.50446  21669881.5274   21669879.6214
      -831.2834
 04  9  8 22 53  0.0040000  0  7G19G 3G 8G13G10G28G27
  -4603258.87948  -3585995.12544  23431082.2074   23431077.8714
     -1080.3184
   9642238.71546   7512219.52342  25112470.4184   25112469.6874
     -3368.4514
  -8563907.83249  -6665847.62547  21563792.2154   21563790.4184
       366.1214
  15467193.96948  12045523.26244  23214102.1684   23214101.4734
     -3860.0134
   -571061.37947   -440191.80142  24372746.1994   24372745.2504
     -1430.9054
  -8718633.16048  -6791045.57044  23088521.0194   23088519.6684
      1607.0194
    142903.47349    111053.58646  21672266.6914   21672264.6764
      -835.6284
 04  9  8 22 53 15.0040000  0  7G19G 3G 8G13G10G28G27
  -4586909.05948  -3573255.00044  23434193.2074   23434189.2854
     -1089.9884
   9692865.55546   7551669.00442  25122103.8554   25122104.5394
     -3375.1234
  -8569330.04749  -6670072.71947  21562760.5744   21562758.5164
       361.4814
  15525176.37948  12090704.33644  23225135.9344   23225135.6764
     -3865.4944
   -549460.87147   -423360.24642  24376856.6374   24376855.7814
     -1440.0344
  -8742661.72748  -6809769.09044  23083948.8484   23083947.2114
      1601.9044
    155501.00849    120869.84846  21674663.9104   21674662.2624
      -839.8364
 04  9  8 22 53 30.0040000  0  7G19G 3G 8G13G10G28G27
  -4570414.55548  -3560402.13744  23437331.6214   23437328.7384
     -1099.6344
   9743591.86746   7591195.98442  25131756.4804   25131757.2384
     -3381.7544
  -8574682.67649  -6674243.59447  21561741.9494   21561740.1174
       356.8424
  15583240.53548  12135949.09844  23236185.5514   23236184.1954
     -3870.9444
   -527723.84047   -406422.30942  24380993.6374   24380991.8794
     -1449.1354
  -8766613.84848  -6828433.05544  23079390.9104   23079388.7274
      1596.8084
    168161.54749    130735.19146  21677073.0904   21677070.8404
      -844.0364
 04  9  8 22 53 45.0040000  0  7G19G 3G 8G13G10G28G27
  -4553776.87548  -3547437.71144  23440497.4344   23440495.1254
     -1109.1794
   9794415.93046   7630799.12142  25141428.4184   25141428.6134
     -3388.2714
  -8579967.12949  -6678361.34847  21560736.0904   21560734.3204
       352.2974
  15641384.79348  12181256.27744  23247249.9804   23247248.9304
     -3876.2844
   -505851.84847   -389379.21542  24385155.0984   24385154.5354
     -1458.1334
  -8790490.79348  -6847038.43744  23074847.2154   23074845.6764
      1591.7964
    180883.71949    140648.57047  21679494.1294   21679491.8944
      -848.1454
 04  9  8 22 54  0.0040000  0  7G19G 3G 8G13G10G28G27
  -4536996.35948  -3534361.98844  23443691.3554   23443688.2624
     -1118.7014
   9845337.06646   7670477.91042  25151118.6604   25151118.4414
     -3394.7424
  -8585183.58249  -6682426.11347  21559743.6054   21559741.7234
       347.7644
  15699608.62148  12226625.47344  23258329.8164   23258328.6844
     -3881.5894
   -483845.41847   -372231.36343  24389342.7854   24389342.2344
     -1467.0954
  -8814292.84448  -6865585.46544  23070318.0434   23070315.8284
      1586.8034
    193667.18449    150609.71946  21681926.3244   21681924.6414
      -852.2314
 04  9  8 22 54 15.0040000  0  7G19G 3G 8G13G10G28G27
  -4520071.94948  -3521174.13344  23446911.8634   23446908.6604
     -1128.2944
   9896356.04746   7710232.94942  25160826.7934   25160826.4844
     -3401.2654
  -8590331.08649  -6686437.15247  21558764.0354   21558762.0664
       343.1674
  15757912.73048  12272057.22744  23269424.5744   23269423.4654
     -3886.9414
   -461703.60947   -354978.02042  24393556.6844   24393555.2154
     -1476.1214
  -8838018.84048  -6884073.23444  23065802.9344   23065801.0514
      1581.7334
    206513.12949    160619.54346  21684371.0354   21684369.2544
      -856.3964
 04  9  8 22 54 30.0040000  0  7G19G 3G 8G13G10G28G27
  -4503004.37148  -3507874.73044  23450159.9104   23450156.0354
     -1137.8394
   9947471.95346   7750063.49242  25170553.3484   25170553.7464
     -3407.7274
  -8595410.19549  -6690394.89547  21557797.3094   21557795.6914
       338.6074
  15816296.27048  12317550.85944  23280534.6914   23280533.5434
     -3892.2364
   -439427.21147   -337619.78942  24397795.4494   24397794.6954
     -1485.0934
  -8861669.34048  -6902502.17244  23061302.2464   23061300.3404
      1576.7004
    219421.05949    170677.66846  21686827.3094   21686825.6254
      -860.5294
 04  9  8 22 54 45.0040000  0  7G19G 3G 8G13G10G28G27
  -4485792.88348  -3494463.18044  23453435.0274   23453431.1604
     -1147.4334
   9998685.15646   7789969.86342  25180299.4734   25180299.2274
     -3414.2144
  -8600419.87949  -6694298.53547  21556844.1134   21556842.3794
       333.9794
  15874759.64148  12363106.72344  23291659.7544   23291658.6874
     -3897.5584
   -417015.70347   -320156.27342  24402060.0664   24402058.8284
     -1494.1014
  -8885243.66448  -6920871.75045  23056816.1374   23056814.2344
      1571.6224
    232391.72749    180784.68046  21689295.8794   21689294.0194
      -864.7114
 04  9  8 22 55  0.0040000  0  6G19G 8G13G10G28G27
  -4468437.62948  -3480939.59844  23456737.1444   23456734.1764
     -1157.0174
  -8605360.19949  -6698148.13347  21555903.9964   21555901.9694
       329.3554
  15933302.57448  12408724.55544  23302800.0984   23302799.2854
     -3902.8624
   -394469.32847   -302587.69142  24406350.4414   24406349.1024
     -1503.0924
  -8908741.73848  -6939181.90644  23052344.8324   23052342.8674
      1566.5384
    245425.06349    190940.51646  21691775.9654   21691774.2154
      -868.8894
 04  9  8 22 55 15.0040000  0  6G19G 8G13G10G28G27
  -4450940.52348  -3467305.48844  23460067.0434   23460063.4844
     -1166.4744
  -8610232.81249  -6701944.97746  21554976.9494   21554974.7114
       324.8414
  15991922.78948  12454402.60544  23313955.3794   23313954.1804
     -3908.0144
   -371790.31247   -284915.74642  24410666.7694   24410665.1914
     -1511.9344
  -8932165.32448  -6957434.02345  23047887.5194   23047885.3944
      1561.5724
    258519.33649    201143.84846  21694267.9104   21694265.9494
      -872.9524
 04  9  8 22 55 30.0040000  0  6G19G 8G13G10G28G27
  -4433299.05948  -3453558.87944  23463424.0274   23463420.6134
     -1176.0984
  -8615035.13749  -6705687.03946  21554062.7854   21554061.2584
       320.1554
  16050622.68448  12500142.76644  23325124.9884   23325124.2274
     -3913.3264
   -348976.33247   -267138.63742  24415007.8404   24415006.1024
     -1520.9324
  -8955511.79349  -6975626.05945  23043445.3244   23043442.8944
      1556.4314
    271677.12949    211396.67646  21696771.8714   21696769.8834
      -877.1864
 04  9  8 22 55 45.0040000  0  6G19G 8G13G10G28G27
  -4415512.27348  -3439699.03544  23466808.8094   23466805.1094
     -1185.7864
  -8619766.32049  -6709373.67246  21553162.7384   21553160.4224
       315.4124
  16109402.98448  12545945.56344  23336311.0984   23336309.1214
     -3918.6874
   -326026.55147   -249255.69142  24419375.1054   24419373.5904
     -1529.9854
  -8978780.18449  -6993757.24244  23039017.0274   23039015.0234
      1551.2264
    284899.42649    221699.75846  21699287.9184   21699285.6214
      -881.4864
 04  9  8 22 56  0.0040000  0  6G19G 8G13G10G28G27
  -4397579.28948  -3425725.28944  23470221.3484   23470217.9884
     -1195.5324
  -8624425.03549  -6713003.83646  21552275.9494   21552274.1994
       310.5814
  16168264.40248  12591811.56344  23347511.8874   23347510.4344
     -3924.0954
   -302940.08647   -231266.25042  24423767.8794   24423766.8364
     -1539.0984
  -9001969.36349  -7011826.71144  23034604.5594   23034601.8364
      1545.9454
    298187.39549    232054.02046  21701816.3014   21701814.1684
      -885.8654
 04  9  8 22 56 15.0040000  0  6G19G 8G13G10G28G27
  -4379500.66848  -3411638.03144  23473661.3794   23473658.0004
     -1205.2414
  -8629011.64149  -6716577.80947  21551403.1054   21551401.0474
       305.7744
  16227206.26648  12637740.25844  23358728.0594   23358726.7304
     -3929.4584
   -279717.72747   -213170.92242  24428186.8874   24428186.0824
     -1548.1574
  -9025079.73448  -7029834.76645  23030206.7624   23030204.1054
      1540.6914
    311540.52349    242459.05546  21704357.8484   21704355.1524
      -890.2094
 04  9  8 22 56 30.0040000  0  6G19G 8G13G10G28G27
  -4361274.57848  -3397435.88744  23477129.6684   23477126.2464
     -1215.0734
  -8633524.60549  -6720094.40647  21550544.2934   21550542.6484
       300.8644
  16286229.82448  12683732.60544  23369960.3324   23369958.5194
     -3934.9044
   -256357.89547   -194968.46942  24432632.8714   24432631.5664
     -1557.3224
  -9048109.52049  -7047780.02045  23025824.2544   23025821.3554
      1535.3194
    324960.69949    252916.33646  21706911.1844   21706908.4964
      -894.6784
 04  9  8 22 56 45.0040000  0  6G19G 8G13G10G28G27
  -4342904.17248  -3383121.29344  23480625.2774   23480621.9024
     -1224.6944
  -8637966.74649  -6723555.80547  21549698.9964   21549697.0194
       296.1434
  16345331.92648  12729786.16443  23381206.3554   23381204.9654
     -3940.1404
   -232863.69947   -176661.31243  24437103.3014   24437101.8204
     -1566.2804
  -9071061.78548  -7065664.88744  23021456.5434   23021453.6644
      1530.1514
    338444.87949    263423.48846  21709477.3484   21709475.0044
      -898.9454
 04  9  8 22 57  0.0040000  0  6G19G 8G13G10G28G27
  -4324391.22748  -3368695.61344  23484148.9264   23484144.9494
     -1234.1964
  -8642339.72749  -6726963.32447  21548867.1684   21548865.2854
       291.5324
  16404510.59048  12775899.36744  23392468.3714   23392466.8484
     -3945.2444
   -209237.23048   -158251.09042  24441599.0594   24441598.1564
     -1575.0984
  -9093938.10249  -7083490.57045  23017102.8944   23017100.9804
      1525.0884
    351991.53149    273979.31646  21712054.9264   21712052.7194
      -903.1104
 04  9  8 22 57 15.0040000  0  6G19G 8G13G10G28G27
  -4305732.94949  -3354156.69144  23487699.4104   23487695.0084
     -1243.8854
  -8646640.62549  -6730314.67247  21548048.6134   21548046.5664
       286.7274
  16463768.33248  12822074.20743  23403744.5984   23403743.1174
     -3950.5164
   -185475.88347   -139735.75042  24446121.1054   24446119.8754
     -1584.0904
  -9116735.55549  -7101254.78944  23012764.9884   23012762.4344
      1519.8304
    365603.49249    284586.03946  21714645.3404   21714642.9454
      -907.4644
 04  9  8 22 57 30.0040000  0  6G19G 8G13G10G28G27
  -4286927.69948  -3339503.23844  23491277.5664   23491274.1414
     -1253.6834
  -8650867.74249  -6733608.52747  21547244.0984   21547242.1054
       281.8084
  16523106.59048  12868311.78944  23415036.4024   23415035.0164
     -3955.8844
   -161578.09848   -121114.11743  24450668.5434   24450667.6644
     -1593.1864
  -9139452.35549  -7118956.17245  23008442.3634   23008439.8554
      1514.4534
    379282.48049    295244.99246  21717248.0434   21717245.9804
      -911.9334
 04  9  8 22 57 45.0040000  0  6G19G 8G13G10G28G27
  -4267978.90648  -3324737.94544  23494883.2544   23494880.1294
     -1263.2534
  -8655024.10249  -6736847.24647  21546453.3714   21546451.4964
       277.0914
  16582521.69548  12914609.23843  23426342.8404   23426341.4844
     -3961.0074
   -137547.42647   -102388.94142  24455241.0434   24455240.3204
     -1602.0454
  -9162091.81649  -7136597.28145  23004134.0124   23004131.4964
      1509.2974
    393025.30549    305953.68446  21719863.0984   21719861.3524
      -916.1884
 04  9  8 22 58  0.0040000  0  6G19G 8G13G10G28G27
  -4248885.74648  -3309860.15644  23498516.8324   23498513.1374
     -1272.8774
  -8659108.73049  -6740030.07047  21545676.1914   21545674.2114
       272.3094
  16642014.34448  12960967.12543  23437663.4104   23437661.9884
     -3966.1774
   -113383.14147    -83559.65642  24459839.5514   24459838.3524
     -1610.9524
  -9184653.01249  -7154177.41845  22999840.3874   22999837.9654
      1504.0804
    406832.82449    316712.78546  21722490.7234   21722488.8634
      -920.5014
 04  9  8 22 58 15.0040000  0  6G19G 8G13G10G28G27
  -4229649.81648  -3294871.10944  23502177.1294   23502173.6644
     -1282.3954
  -8663123.13349  -6743158.16847  21544912.3714   21544910.0944
       267.6274
  16701582.75048  13007384.02743  23448998.8164   23448998.0234
     -3971.2274
    -89087.01647    -64627.62142  24464463.2624   24464461.8364
     -1619.7424
  -9207137.50049  -7171697.77345  22995562.1294   22995559.3984
      1498.9664
    420703.57449    327521.16447  21725129.9414   21725128.2734
      -924.7174
 04  9  8 22 58 30.0040000  0  6G19G 8G13G10G28G27
  -4210270.25048  -3279770.14544  23505865.0514   23505861.8714
     -1291.9714
  -8667066.38349  -6746230.82847  21544162.0124   21544159.7774
       262.8834
  16761227.53148  13053860.43044  23460349.8404   23460348.1764
     -3976.3194
    -64658.39847    -45592.34442  24469111.4884   24469110.6764
     -1628.5744
  -9229544.22348  -7189157.53144  22991298.0434   22991295.7194
      1493.7824
    434638.60249    338379.62146  21727782.2544   21727779.9374
      -929.0024
 04  9  8 22 58 45.0040000  0  6G19G 8G13G10G28G27
  -4190747.84048  -3264557.87944  23509579.7464   23509576.5044
     -1301.4944
  -8670939.05949  -6749248.49647  21543424.7934   21543422.9884
       258.1784
  16820947.68848  13100395.59843  23471713.3094   23471712.3484
     -3981.3444
    -40098.18447    -26454.53542  24473785.3244   24473784.6024
     -1637.3484
  -9251873.66449  -7206557.08645  22987048.9494   22987046.6094
      1488.6294
    448637.29749    349287.69546  21730446.3634   21730444.0824
      -933.2464
 04  9  8 22 59  0.0040000  0  6G19G 8G13G10G28G27
  -4171081.38748  -3249233.36744  23513322.2694   23513319.4104
     -1311.0974
  -8674739.70349  -6752210.03147  21542701.8164   21542699.6294
       253.3764
  16880744.19148  13146990.25043  23483092.6054   23483091.3874
     -3986.4344
    -15405.35948     -7213.39142  24478484.5594   24478483.3794
     -1646.1884
  -9274124.67649  -7223895.50045  22982814.8324   22982812.2814
      1483.4014
    462701.03949    360246.46146  21733122.3244   21733120.3324
      -937.5834
